[[{"header":{"parameterUnit":"m.s-1","parameterCategory":1,"la1":30.6,"la2":29.2853,"lo1":-89.7004,"lo2":-87.6739,"dy":0.0162,"dx":0.0183,"nx":112,"ny":82,"refTime":"2024-07-12T18:00:00:Z","depth":0,"parameterNumber":2,"parameterNumberName":"U-component_of_WINDS"},"data":[0.0,0.0,0.0,0.0,0.0,0.0,0.0,0.0,0.0,0.0,0.0,0.0,0.0,0.0,0.0,0.0,0.0,0.0,0.0,0.0,0.0,0.0,0.0,0.0,0.0,0.0,0.0,0.0,0.0,0.0,0.0,0.0,0.0,0.0,0.0,0.0,0.0,0.0,0.0,0.0,0.0,0.0,0.0,0.0,0.0,0.0,0.0,0.0,0.0,0.0,0.0,0.0,0.0,0.0,0.0,0.0,0.0,0.0,0.0,0.0,0.0,0.0,0.0,0.0,0.0,0.0,0.0,0.0,0.0,0.0,0.0,0.0,0.0,0.0,0.0,0.0,0.0,0.0,0.0,0.0,0.0,0.0,0.0,0.0,0.0,0.0,0.0,0.0,0.0,0.0,0.0,-0.724,-0.8225,-0.891,-0.9159,-0.9117,-0.8574,-0.7317,0.0,0.0,0.0,0.0,0.0,0.0,0.0,0.0,0.0,0.0,0.0,0.0,0.0,0.0,0.0,0.0,0.0,0.0,0.0,0.0,0.0,0.0,0.0,0.0,0.0,0.0,0.0,0.0,0.0,0.0,0.0,0.0,0.0,0.0,0.0,0.0,0.0,0.0,0.0,0.0,0.0,0.0,0.0,0.0,0.0,0.0,0.0,0.0,0.0,0.0,0.0,0.0,0.0,0.0,0.0,0.0,0.0,0.0,0.0,0.0,0.0,0.0,0.0,0.0,0.0,0.0,0.0,0.0,0.0,0.0,0.0,0.0,0.0,0.0,0.0,0.0,0.0,0.0,0.0,0.0,0.0,0.0,0.0,0.0,0.0,0.0,0.0,0.0,0.0,0.0,0.0,0.0,0.0,0.0,0.0,0.0,0.0,0.0,0.0,0.0,0.0,0.0,0.0,0.0,-0.6431,-0.8187,-0.8653,-0.891,-0.9159,-0.8783,-0.8208,-0.7503,0.0,0.0,0.0,0.0,0.0,0.0,0.0,0.0,0.0,0.0,0.0,0.0,0.0,0.0,0.0,0.0,0.0,0.0,0.0,0.0,0.0,0.0,0.0,0.0,0.0,0.0,0.0,0.0,0.0,0.0,0.0,0.0,0.0,0.0,0.0,0.0,0.0,0.0,0.0,0.0,0.0,0.0,0.0,0.0,0.0,0.0,0.0,0.0,0.0,0.0,0.0,0.0,0.0,0.0,0.0,0.0,0.0,0.0,0.0,0.0,0.0,0.0,0.0,0.0,0.0,0.0,0.0,0.0,0.0,0.0,0.0,0.0,0.0,0.0,0.0,0.0,0.0,0.0,0.0,0.0,0.0,0.0,0.0,0.0,0.0,0.0,0.0,0.0,0.0,0.0,0.0,0.0,0.0,0.0,0.0,0.0,0.0,0.0,0.0,0.0,0.0,0.0,0.0,-0.6297,-0.6981,-0.8552,-0.8776,-0.8857,-0.9061,-0.8735,-0.816,-0.7284,-0.67,0.0,0.0,0.0,0.0,0.0,0.0,0.0,0.0,0.0,0.0,0.0,0.0,0.0,0.0,0.0,0.0,0.0,0.0,0.0,0.0,0.0,0.0,0.0,0.0,0.0,0.0,0.0,0.0,0.0,0.0,0.0,0.0,0.0,0.0,0.0,0.0,0.0,0.0,0.0,0.0,0.0,0.0,0.0,0.0,0.0,0.0,0.0,0.0,0.0,0.0,0.0,0.0,0.0,0.0,0.0,0.0,0.0,0.0,0.0,0.0,0.0,0.0,0.0,0.0,0.0,0.0,0.0,0.0,0.0,0.0,0.0,0.0,0.0,0.0,0.0,0.0,0.0,0.0,0.0,0.0,0.0,0.0,0.0,0.0,0.0,0.0,0.0,0.0,0.0,0.0,0.0,0.0,0.0,0.0,0.0,0.0,0.0,0.0,0.0,0.0,0.0,0.0,-0.7068,-0.7642,-0.8697,-0.8804,-0.8857,-0.8962,-0.8554,-0.7939,-0.7025,-0.6201,0.0,0.0,0.0,0.0,0.0,0.0,0.0,0.0,0.0,0.0,0.0,0.0,0.0,0.0,0.0,0.0,0.0,0.0,0.0,0.0,0.0,0.0,0.0,0.0,0.0,0.0,0.0,0.0,0.0,0.0,0.0,0.0,0.0,0.0,0.0,0.0,0.0,0.0,0.0,0.0,0.0,0.0,0.0,0.0,0.0,0.0,0.0,0.0,0.0,0.0,0.0,0.0,0.0,0.0,0.0,0.0,0.0,0.0,0.0,0.0,0.0,0.0,0.0,0.0,0.0,0.0,0.0,0.0,0.0,0.0,0.0,0.0,0.0,0.0,0.0,0.0,0.0,0.0,0.0,0.0,0.0,0.0,0.0,0.0,0.0,0.0,0.0,0.0,0.0,0.0,0.0,0.0,0.0,0.0,0.0,0.0,0.0,0.0,0.0,0.0,0.0,0.0,-0.7188,-0.8061,-0.8744,-0.8804,-0.8804,-0.8804,-0.8071,-0.7348,-0.6857,-0.5551,0.0,0.0,0.0,0.0,0.0,0.0,0.0,0.0,0.0,0.0,0.0,0.0,0.0,0.0,0.0,0.0,0.0,0.0,0.0,0.0,0.0,0.0,0.0,0.0,0.0,0.0,0.0,0.0,0.0,0.0,0.0,0.0,0.0,0.0,0.0,0.0,0.0,0.0,0.0,0.0,0.0,0.0,0.0,0.0,0.0,0.0,0.0,0.0,0.0,0.0,0.0,0.0,0.0,0.0,0.0,0.0,0.0,0.0,0.0,0.0,0.0,0.0,0.0,0.0,0.0,0.0,0.0,0.0,0.0,0.0,0.0,0.0,0.0,0.0,0.0,0.0,0.0,0.0,0.0,0.0,0.0,0.0,0.0,0.0,0.0,0.0,0.0,0.0,0.0,0.0,0.0,0.0,0.0,0.0,0.0,0.0,0.0,0.0,0.0,0.0,0.0,0.0,-0.6778,-0.7736,0.0,-0.8804,-0.8804,-0.8804,-0.8156,-0.7304,-0.6296,0.0,0.0,0.0,0.0,0.0,0.0,0.0,0.0,0.0,0.0,0.0,0.0,0.0,0.0,0.0,0.0,0.0,0.0,0.0,0.0,0.0,0.0,0.0,0.0,0.0,0.0,0.0,0.0,0.0,0.0,0.0,0.0,0.0,0.0,0.0,0.0,0.0,0.0,0.0,0.0,0.0,0.0,0.0,0.0,0.0,0.0,0.0,0.0,0.0,0.0,0.0,0.0,0.0,0.0,0.0,0.0,0.0,0.0,0.0,0.0,0.0,0.0,0.0,0.0,0.0,0.0,0.0,0.0,0.0,0.0,0.0,0.0,0.0,0.0,0.0,0.0,0.0,0.0,0.0,0.0,0.0,0.0,0.0,0.0,0.0,0.0,0.0,0.0,0.0,0.0,0.0,0.0,0.0,0.0,0.0,0.0,0.0,0.0,0.0,0.0,0.0,0.0,-0.5772,-0.6704,-0.7695,0.0,-0.8804,-0.8804,-0.8804,-0.809,-0.7128,-0.5957,0.0,0.0,0.0,0.0,0.0,0.0,0.0,0.0,0.0,0.0,0.0,0.0,0.0,0.0,0.0,0.0,0.0,0.0,0.0,0.0,0.0,0.0,0.0,0.0,0.0,0.0,0.0,0.0,0.0,0.0,0.0,0.0,0.0,0.0,0.0,0.0,0.0,0.0,0.0,0.0,0.0,0.0,0.0,0.0,0.0,0.0,0.0,0.0,0.0,0.0,0.0,0.0,0.0,0.0,0.0,0.0,0.0,0.0,0.0,0.0,0.0,0.0,0.0,0.0,0.0,0.0,0.0,0.0,0.0,0.0,0.0,0.0,0.0,0.0,0.0,0.0,0.0,0.0,0.0,0.0,0.0,0.0,0.0,0.0,0.0,0.0,0.0,0.0,0.0,0.0,0.0,0.0,0.0,0.0,0.0,0.0,0.0,0.0,0.0,0.0,0.0,0.0,-0.5737,-0.7015,-0.8107,-0.8744,-0.8804,-0.8758,-0.8758,-0.7669,-0.6658,0.0,0.0,0.0,0.0,0.0,0.0,0.0,0.0,0.0,0.0,0.0,0.0,0.0,0.0,0.0,0.0,0.0,0.0,0.0,0.0,0.0,0.0,0.0,0.0,0.0,0.0,0.0,0.0,0.0,0.0,0.0,0.0,0.0,0.0,0.0,0.0,0.0,0.0,0.0,0.0,0.0,0.0,0.0,0.0,0.0,0.0,0.0,0.0,0.0,0.0,0.0,0.0,0.0,0.0,0.0,0.0,0.0,0.0,0.0,0.0,0.0,0.0,0.0,0.0,0.0,0.0,0.0,0.0,0.0,0.0,0.0,0.0,0.0,0.0,0.0,0.0,0.0,0.0,0.0,0.0,0.0,0.0,0.0,0.0,0.0,0.0,0.0,0.0,0.0,0.0,0.0,0.0,0.0,0.0,0.0,0.0,0.0,0.0,0.0,0.0,0.0,0.0,0.0,-0.5523,-0.6619,-0.7548,-0.8088,-0.783,-0.7622,-0.7622,-0.6959,-0.6123,-0.5045,0.0,0.0,0.0,0.0,0.0,0.0,0.0,0.0,0.0,0.0,0.0,0.0,0.0,0.0,0.0,0.0,0.0,0.0,0.0,0.0,0.0,0.0,0.0,0.0,0.0,0.0,0.0,0.0,0.0,0.0,0.0,0.0,0.0,0.0,0.0,0.0,0.0,0.0,0.0,0.0,0.0,0.0,0.0,0.0,0.0,0.0,0.0,0.0,0.0,0.0,0.0,0.0,0.0,0.0,0.0,0.0,0.0,0.0,0.0,0.0,0.0,0.0,0.0,0.0,0.0,0.0,0.0,0.0,0.0,0.0,0.0,0.0,0.0,0.0,0.0,0.0,0.0,0.0,0.0,0.0,0.0,0.0,0.0,0.0,0.0,0.0,0.0,0.0,0.0,0.0,0.0,0.0,0.0,0.0,0.0,0.0,0.0,0.0,0.0,0.0,0.0,0.0,-0.5117,-0.6264,-0.7197,-0.7558,-0.7295,-0.7085,-0.7085,-0.6694,-0.5911,-0.4798,0.0,0.0,0.0,0.0,0.0,0.0,0.0,0.0,0.0,0.0,0.0,0.0,0.0,0.0,0.0,0.0,0.0,0.0,0.0,0.0,0.0,0.0,0.0,0.0,0.0,0.0,0.0,0.0,0.0,0.0,0.0,0.0,0.0,0.0,0.0,0.0,0.0,0.0,0.0,0.0,0.0,0.0,0.0,0.0,0.0,0.0,0.0,0.0,0.0,0.0,0.0,0.0,0.0,0.0,0.0,0.0,0.0,0.0,0.0,0.0,0.0,0.0,0.0,0.0,0.0,0.0,0.0,0.0,0.0,0.0,0.0,0.0,0.0,0.0,0.0,0.0,0.0,0.0,0.0,0.0,0.0,0.0,0.0,0.0,0.0,0.0,0.0,0.0,0.0,0.0,0.0,0.0,0.0,0.0,0.0,0.0,0.0,0.0,0.0,0.0,0.0,0.0,-0.4701,-0.6062,-0.7049,-0.7084,-0.6977,-0.6923,-0.6923,-0.6513,-0.5862,-0.4885,0.0,0.0,0.0,0.0,0.0,0.0,0.0,0.0,0.0,0.0,0.0,0.0,0.0,0.0,0.0,0.0,0.0,0.0,0.0,0.0,0.0,0.0,0.0,0.0,0.0,0.0,0.0,0.0,0.0,0.0,0.0,0.0,0.0,0.0,0.0,0.0,0.0,0.0,0.0,0.0,0.0,0.0,0.0,0.0,0.0,0.0,0.0,0.0,0.0,0.0,0.0,0.0,0.0,0.0,0.0,0.0,0.0,0.0,0.0,0.0,-0.6428,0.0,0.0,0.0,0.0,0.0,0.0,0.0,0.0,0.0,0.0,0.0,0.0,0.0,0.0,0.0,0.0,0.0,0.0,0.0,0.0,0.0,0.0,0.0,0.0,0.0,0.0,0.0,0.0,0.0,0.0,0.0,0.0,0.0,0.0,0.0,0.0,0.0,0.0,0.0,0.0,0.0,-0.5387,-0.6024,-0.6591,-0.7031,-0.6273,-0.5677,-0.5677,-0.5518,-0.5082,-0.4465,-0.4003,0.0,0.0,0.0,0.0,0.0,0.0,0.0,0.0,0.0,0.0,0.0,0.0,0.0,0.0,0.0,0.0,0.0,0.0,0.0,0.0,0.0,0.0,0.0,0.0,0.0,0.0,0.0,0.0,0.0,0.0,0.0,0.0,0.0,0.0,0.0,0.0,0.0,0.0,0.0,0.0,0.0,0.0,0.0,0.0,0.0,0.0,0.0,0.0,0.0,0.0,0.0,0.0,0.0,0.0,0.0,0.0,0.0,0.0,0.0,0.0,-0.669,0.0,0.0,0.0,0.0,0.0,0.0,0.0,0.0,0.0,0.0,0.0,0.0,0.0,0.0,0.0,0.0,0.0,0.0,0.0,0.0,0.0,0.0,0.0,0.0,0.0,0.0,0.0,0.0,0.0,0.0,0.0,0.0,0.0,0.0,0.0,0.0,0.0,0.0,0.0,0.0,-0.4833,-0.5518,-0.6064,-0.6239,-0.5681,-0.5297,-0.5297,-0.5186,-0.4889,-0.4434,-0.4069,0.0,0.0,0.0,0.0,0.0,0.0,0.0,0.0,0.0,0.0,0.0,0.0,0.0,0.0,0.0,0.0,0.0,0.0,0.0,0.0,0.0,0.0,0.0,0.0,0.0,0.0,0.0,0.0,0.0,0.0,0.0,0.0,0.0,0.0,0.0,0.0,0.0,0.0,0.0,0.0,0.0,0.0,0.0,0.0,0.0,0.0,0.0,0.0,0.0,0.0,0.0,0.0,0.0,-1.0522,-1.0065,-0.9287,-0.8127,-0.8016,-0.8749,-0.8111,-0.8092,-0.8405,-0.7294,0.0,0.0,0.0,0.0,0.0,0.0,0.0,0.0,0.0,0.0,0.0,0.0,0.0,0.0,0.0,0.0,0.0,0.0,0.0,0.0,0.0,0.0,0.0,0.0,-0.8216,-0.8048,0.0,0.0,0.0,0.0,0.0,0.0,0.0,0.0,0.0,0.0,0.0,0.0,-0.4269,-0.5148,-0.5724,-0.5492,-0.5352,-0.5297,-0.5297,-0.5214,-0.4987,-0.4614,-0.426,-0.3882,0.0,0.0,0.0,0.0,0.0,0.0,0.0,0.0,0.0,0.0,0.0,0.0,0.0,0.0,0.0,0.0,0.0,0.0,0.0,0.0,0.0,0.0,0.0,0.0,0.0,0.0,0.0,0.0,0.0,0.0,0.0,0.0,-0.4772,-0.4922,0.0,0.0,0.0,0.0,0.0,0.0,0.0,0.0,0.0,0.0,0.0,0.0,0.0,-0.8281,-0.9534,-0.9827,-1.0154,-1.0522,-1.0522,-1.0458,-1.033,-1.0146,-1.013,-1.0242,-1.0146,0.0,-0.844,-0.8829,0.0,0.0,0.0,0.0,0.0,0.0,0.0,0.0,0.0,0.0,0.0,0.0,0.0,0.0,0.0,0.0,0.0,0.0,0.0,0.0,0.0,0.0,-0.9198,-0.9029,-0.9211,-0.9307,0.0,-0.7717,-0.6655,-0.6233,-0.5588,0.0,0.0,0.0,0.0,0.0,0.0,0.0,-0.5181,-0.556,-0.5877,-0.6081,-0.5622,-0.5297,-0.5297,-0.5277,-0.5177,-0.5023,-0.4674,-0.4264,-0.3927,-0.3376,0.0,0.0,0.0,0.0,0.0,0.0,0.0,0.0,0.0,0.0,0.0,0.0,0.0,0.0,0.0,0.0,0.0,0.0,0.0,0.0,0.0,0.0,0.0,0.0,0.0,0.0,0.0,0.0,0.0,-0.4473,-0.5078,-0.4986,-0.48,-0.4644,0.0,0.0,0.0,0.0,0.0,0.0,0.0,0.0,0.0,-0.6969,-0.8645,-0.9891,-1.0514,-1.0522,-1.0522,-1.0522,-1.0522,-1.0721,-1.1026,-1.0645,-1.0522,-1.0522,-1.0522,-1.0617,-1.0745,-1.02,-0.9461,-0.8484,0.0,0.0,0.0,0.0,-0.544,-0.7539,-0.903,-1.0003,0.0,-1.0095,0.0,0.0,0.0,0.0,0.0,0.0,0.0,0.0,0.0,0.0,-0.9899,-0.9958,-1.0068,-1.0126,-0.9886,-0.917,-0.8259,0.0,-0.6454,-0.5698,-0.4861,0.0,0.0,0.0,0.0,0.0,-0.5031,-0.5311,-0.5582,-0.5664,-0.5462,-0.5297,-0.5297,-0.5297,-0.5221,-0.5092,-0.4879,-0.4542,-0.4058,-0.3605,-0.3092,0.0,0.0,0.0,0.0,0.0,0.0,0.0,0.0,0.0,0.0,0.0,0.0,0.0,0.0,0.0,0.0,0.0,0.0,0.0,0.0,0.0,0.0,0.0,0.0,0.0,0.0,0.0,0.0,-0.5241,-0.5648,-0.5574,-0.598,-0.5967,0.0,0.0,0.0,0.0,0.0,0.0,-0.7161,-0.794,-0.8564,-0.9051,-1.0014,-1.0522,-1.0522,-1.0881,-1.1056,-1.1056,-1.1056,-1.1328,-1.1749,-1.1241,-1.1056,-1.1056,-1.1056,-1.1655,-1.2517,-1.1104,-1.0522,-1.0362,-0.8731,-0.7371,-0.6253,-0.6253,-0.8068,-1.0569,-1.0929,-1.0895,-1.0701,-1.0082,0.0,-0.9729,-0.9616,0.0,0.0,0.0,0.0,-0.8904,-0.9369,-0.9883,-1.0287,-1.0528,-1.0587,-1.0587,-1.0408,-0.9883,-0.916,0.0,-0.7361,-0.6521,-0.5533,0.0,0.0,0.0,0.0,-0.4731,-0.4861,-0.5104,-0.5297,-0.5297,-0.5297,-0.5297,-0.5297,-0.5297,-0.5241,-0.5157,-0.4996,-0.4677,-0.4256,-0.3814,-0.3374,-0.2944,0.0,0.0,0.0,0.0,0.0,0.0,0.0,0.0,0.0,0.0,0.0,0.0,0.0,0.0,0.0,0.0,0.0,0.0,0.0,0.0,0.0,0.0,0.0,0.0,0.0,0.0,0.0,0.0,0.0,-0.7584,-0.8181,0.0,0.0,0.0,0.0,-0.6061,-0.6941,-0.7821,-0.8446,-0.9024,-0.9665,-1.0383,-1.0446,-1.0522,-1.0522,-1.1847,-1.2517,-1.2517,-1.2517,-1.2533,-1.2573,-1.2533,-1.2517,-1.2517,-1.2517,-1.2557,-1.2517,-1.1104,-1.0522,-1.0514,-1.0402,-1.0288,-1.0205,-1.0205,-1.0351,-1.0713,-1.2054,-1.2081,-1.1424,-1.0799,-1.0397,-1.0181,-0.9555,-0.9659,0.0,0.0,-0.9841,-1.0499,-1.0528,-1.055,-1.0565,-1.0587,-1.0587,-1.0587,-1.0587,-0.935,-0.8555,0.0,-0.8521,-0.7472,-0.6979,0.0,-0.5277,-0.48,-0.4922,-0.5056,-0.5068,-0.5234,-0.5297,-0.5297,-0.5297,-0.5297,-0.5297,-0.5297,-0.5293,-0.5285,-0.5067,-0.4782,-0.4599,-0.3989,-0.3538,-0.3264,-0.2871,0.0,0.0,0.0,0.0,0.0,0.0,0.0,0.0,0.0,0.0,0.0,0.0,0.0,0.0,0.0,0.0,0.0,0.0,0.0,0.0,0.0,0.0,0.0,0.0,0.0,0.0,0.0,0.0,-0.7897,-0.8314,0.0,-0.7787,-0.7901,-0.799,-0.8039,-0.892,-0.9678,-1.0254,-1.0465,-1.0682,-1.0923,-1.0681,-1.0522,-1.0522,-1.1919,-1.2621,-1.2621,-1.2621,-1.2621,-1.2621,-1.2621,-1.2621,-1.2621,-1.2621,-1.3068,-1.3862,-1.3362,-1.2623,-1.1871,-1.1871,-1.1871,-1.1871,-1.1871,-1.1871,-1.1884,-1.1959,-1.1809,-1.1534,-1.096,-1.0741,-1.0595,-1.0279,-1.0271,-1.0406,-1.0502,-1.0697,-1.0946,-1.1158,-1.1209,-1.1209,-1.1209,-1.1209,-1.1156,-1.0974,-1.0322,-0.9794,-0.9937,-0.8368,-0.6961,-0.6668,-0.662,-0.641,-0.5626,-0.5654,-0.5833,-0.5833,-0.5525,-0.5297,-0.5297,-0.5297,-0.5297,-0.5297,-0.5297,-0.5249,-0.5186,-0.4906,-0.4645,-0.437,-0.3958,-0.3615,-0.3317,-0.3255,-0.291,0.0,0.0,0.0,0.0,0.0,0.0,0.0,0.0,0.0,0.0,0.0,0.0,0.0,0.0,0.0,0.0,0.0,0.0,0.0,0.0,0.0,0.0,0.0,0.0,0.0,0.0,-0.8236,-0.8446,-0.8896,-0.909,-0.8865,-0.9152,-0.9455,-0.9779,-1.0359,-1.0875,-1.1265,-1.1289,-1.1177,-1.0947,-1.0681,-1.0745,-1.1224,-1.2158,-1.2621,-1.2621,-1.2621,-1.2621,-1.2621,-1.2621,-1.2621,-1.2653,-1.306,-1.3791,-1.4553,-1.4395,-1.3854,-1.302,-1.2941,-1.2829,-1.2653,-1.2822,-1.2846,-1.2663,-1.2163,-1.2012,-1.1966,-1.1545,-1.145,-1.1421,-1.1282,-1.1238,-1.126,-1.137,-1.1399,-1.1421,-1.1593,-1.1622,-1.1622,-1.1622,-1.1622,-1.1498,-1.1247,-1.0767,-1.0315,-1.0069,-0.8595,-0.7379,-0.7237,-0.7378,-0.7244,-0.6328,-0.6282,-0.6234,-0.595,-0.5567,-0.5297,-0.5297,-0.5297,-0.5297,-0.5297,-0.5242,-0.519,-0.5124,-0.4801,-0.4492,-0.4227,-0.3964,-0.3676,-0.339,-0.3381,-0.3129,-0.2637,0.0,0.0,0.0,0.0,0.0,0.0,0.0,0.0,0.0,0.0,0.0,0.0,0.0,0.0,0.0,0.0,0.0,0.0,0.0,0.0,0.0,0.0,0.0,-0.7826,-0.8484,-0.9056,-0.939,-1.0049,-1.0538,-1.0538,-1.0804,-1.1058,-1.1169,-1.1193,-1.1289,-1.1479,-1.1511,-1.1217,-1.0609,-1.0585,-1.124,-1.2613,-1.2621,-1.2645,-1.2693,-1.2693,-1.2693,-1.2693,-1.2693,-1.2693,-1.2703,-1.4053,-1.4569,-1.453,-1.414,-1.395,-1.3926,-1.3688,-1.3187,-1.2749,-1.3338,-1.3325,-1.2968,-1.2836,-1.2777,-1.2729,-1.2593,-1.2519,-1.2519,-1.2519,-1.2519,-1.2453,-1.2138,-1.205,-1.1977,-1.1663,-1.1637,-1.1637,-1.163,-1.1622,-1.156,-1.1373,-1.0661,-1.0021,-0.9837,-0.9285,-0.8857,-0.8792,-0.8381,-0.7715,-0.6845,-0.6749,0.0,-0.5436,-0.5356,-0.5297,-0.5297,-0.5297,-0.5297,-0.5297,-0.5183,-0.5069,-0.5117,-0.4691,-0.4429,-0.4232,-0.3921,-0.3727,-0.3588,-0.329,-0.3063,-0.2924,0.0,0.0,0.0,0.0,0.0,0.0,0.0,0.0,0.0,0.0,0.0,0.0,0.0,0.0,0.0,0.0,0.0,0.0,0.0,0.0,0.0,0.0,-0.8707,-0.8619,-0.9207,-0.9779,-1.0129,-1.0574,-1.0852,-1.0852,-1.1153,-1.1304,-1.1185,-1.1543,-1.1671,-1.1495,-1.1988,-1.2186,-1.2054,-1.2046,-1.223,-1.2621,-1.2621,-1.3068,-1.4069,-1.4069,-1.4069,-1.4069,-1.4069,-1.4069,-1.4093,-1.4474,-1.4569,-1.4561,-1.4427,-1.4442,-1.4403,-1.3989,-1.3719,-1.3494,-1.3251,-1.3029,-1.2829,-1.2819,-1.2701,-1.2593,-1.2519,-1.2519,-1.2519,-1.2519,-1.2519,-1.2504,-1.2409,-1.2387,-1.2314,-1.1992,-1.1904,-1.1845,-1.1681,-1.1622,-1.1498,-1.1247,-1.0989,-1.0737,-1.0421,-1.0233,-0.9742,-0.8548,-0.8581,-0.8506,-0.7656,-0.776,0.0,-0.6341,-0.6032,-0.5782,-0.5352,-0.5242,-0.5183,-0.5297,-0.5069,-0.4957,-0.4945,-0.4525,-0.4268,-0.4228,-0.3921,-0.3775,-0.3734,-0.3551,-0.3381,0.0,0.0,0.0,0.0,0.0,0.0,0.0,0.0,0.0,0.0,0.0,0.0,0.0,0.0,0.0,0.0,0.0,0.0,0.0,0.0,0.0,0.0,-0.9189,-0.9692,-0.9771,-1.0121,-1.0454,-1.0669,-1.0995,-1.1257,-1.1408,-1.1598,-1.1725,-1.1757,-1.2062,-1.2278,-1.2361,-1.3044,-1.3163,-1.2645,-1.3132,-1.3433,-1.3433,-1.3433,-1.3839,-1.4569,-1.4569,-1.4569,-1.4569,-1.4569,-1.4569,0.0,-1.4569,-1.4569,-1.4569,-1.4569,-1.4569,0.0,0.0,0.0,0.0,0.0,-1.3301,-1.3323,-1.3182,-1.3038,-1.2928,-1.2928,-1.2928,-1.2928,-1.2928,-1.2928,-1.2899,-1.2767,-1.2723,-1.265,-1.2321,-1.2241,-1.2189,-1.2006,-1.1898,-1.1725,-1.134,-1.1184,-1.1022,-1.0645,-1.0624,0.0,-0.9375,-0.9482,-0.9451,-0.8566,-0.8634,-0.8387,-0.7249,-0.692,-0.6618,-0.6235,-0.5826,-0.5668,-0.6005,-0.534,0.0,0.0,0.0,-0.4191,-0.4125,-0.3983,0.0,0.0,0.0,0.0,0.0,0.0,0.0,0.0,-0.3112,-0.3035,0.0,0.0,0.0,0.0,0.0,0.0,0.0,0.0,0.0,0.0,0.0,0.0,0.0,0.0,0.0,0.0,-1.0286,-1.0724,-1.101,-1.109,-1.1098,-1.1058,-1.1344,-1.167,-1.1988,-1.2091,-1.2282,-1.2677,-1.2701,-1.2949,-1.3664,0.0,0.0,0.0,0.0,-1.4569,-1.4569,-1.4569,-1.4569,-1.4569,-1.4569,-1.4569,-1.4569,-1.4569,-1.4569,-1.4569,-1.4569,-1.4569,-1.4569,-1.4569,-1.4569,-1.4569,-1.4569,-1.4308,-1.3953,-1.3654,-1.3813,-1.3992,-1.3637,0.0,0.0,-1.3492,-1.3492,-1.3492,-1.3492,-1.3492,-1.3433,-1.3148,-1.3067,-1.2987,-1.2658,-1.2577,-1.2562,-1.2458,-1.2316,-1.2102,-1.1626,-1.1338,-1.1104,-1.0719,-1.0645,-1.0624,-1.0624,-1.0624,-1.0342,-0.9445,-0.9383,-0.9035,-0.8153,-0.7769,-0.7599,-0.7491,0.0,0.0,-0.7031,-0.5828,-0.5277,-0.5882,-0.4927,-0.4254,-0.4053,-0.406,-0.4063,-0.4046,-0.4063,-0.4063,-0.4046,-0.4147,-0.415,-0.406,-0.3439,-0.3299,0.0,0.0,0.0,0.0,0.0,0.0,0.0,0.0,0.0,0.0,0.0,0.0,0.0,0.0,0.0,-1.0327,-1.107,-1.1599,-1.1416,-1.1646,-1.171,-1.1424,-1.1702,-1.194,-1.2011,-1.2544,-1.2957,-1.3124,-1.3132,-1.3513,-1.4387,-1.4561,-1.4443,-1.4244,-1.4427,-1.4569,-1.4569,-1.4569,-1.4569,-1.4569,0.0,0.0,-1.4569,-1.4569,-1.4569,-1.4569,-1.4569,-1.4569,-1.4569,-1.4569,-1.4569,-1.4569,-1.4569,-1.4514,-1.4292,-1.403,-1.3939,-1.379,-1.3572,-1.3492,-1.3492,-1.3492,-1.3492,-1.3492,-1.3492,-1.3492,0.0,-1.3418,-1.3404,-1.3323,-1.3001,-1.2914,-1.2778,-1.2373,-1.2248,-1.2091,-1.1764,-1.1423,-1.1166,-1.0987,-1.0722,-1.0624,-1.0624,-1.0624,-1.0345,-0.9578,-0.9761,-0.9535,-0.831,-0.8213,-0.8049,-0.7542,-0.7049,-0.6858,-0.7085,-0.6475,-0.6199,-0.6426,-0.5575,-0.4835,-0.4209,-0.4314,-0.4321,-0.4153,-0.4317,-0.4321,-0.4153,-0.4351,-0.4406,-0.4375,-0.4081,-0.3906,0.0,0.0,0.0,0.0,0.0,0.0,0.0,0.0,0.0,0.0,0.0,-1.0274,0.0,0.0,-1.1462,-1.1852,-1.1904,-1.1892,-1.1773,-1.2059,-1.2154,-1.1797,-1.2075,-1.2361,-1.2536,-1.2877,-1.3235,-1.3576,-1.36,-1.3902,-1.453,-1.4569,-1.4569,-1.4569,-1.4569,-1.4569,-1.4569,-1.4569,-1.4569,-1.4569,-1.4569,-1.4569,-1.4569,-1.4569,-1.4569,-1.4569,-1.4569,-1.4569,-1.4569,-1.4569,-1.4569,-1.4569,-1.4569,-1.4497,-1.4361,-1.4209,-1.3992,-1.379,-1.3572,-1.3492,-1.3492,-1.3492,-1.3492,-1.3492,-1.3492,-1.3492,-1.3492,-1.3492,-1.3492,-1.3455,-1.3294,-1.325,-1.3214,-1.2904,-1.272,-1.2466,-1.2172,-1.1813,-1.1411,-1.1049,-1.0875,-1.0728,-1.0651,-1.0624,-1.0491,-1.0104,-1.024,-1.0148,-0.9506,-0.9336,-0.9143,-0.8851,-0.8084,-0.7802,-0.8142,-0.7404,-0.6794,-0.6426,-0.5987,-0.5567,-0.521,-0.5291,-0.5186,-0.4781,-0.486,-0.47,-0.4355,-0.4426,-0.4519,-0.4519,-0.4408,-0.4204,0.0,0.0,0.0,0.0,0.0,0.0,0.0,0.0,-1.0853,-1.0852,-1.1328,-1.1928,-1.2567,-1.2244,-1.2195,-1.293,-1.2521,-1.2123,-1.2123,-1.2377,-1.2456,-1.2162,-1.2385,-1.2703,-1.306,-1.3147,-1.3402,-1.3926,-1.4029,-1.4166,-1.4545,-1.4569,-1.4569,-1.4569,-1.4569,-1.4569,-1.4569,-1.4569,-1.4569,-1.4569,-1.4569,-1.4569,-1.4569,-1.4569,-1.4569,-1.4569,-1.4648,-1.4744,-1.4752,-1.4816,-1.48,-1.4744,-1.4744,-1.456,-1.4361,-1.4209,-1.3992,-1.379,-1.3572,-1.3492,-1.3492,-1.3492,-1.3492,-1.3492,-1.3492,-1.3492,-1.3492,-1.3492,-1.3492,-1.3492,-1.3492,-1.3492,-1.3492,-1.3419,-1.3193,-1.283,-1.2585,-1.2196,-1.173,-1.1256,-1.1069,-1.0915,-1.0681,-1.0658,-1.0624,-1.0624,-1.0624,-1.0624,-1.0624,-1.0301,-1.0114,-1.0114,-0.9227,-0.8783,-0.9072,-0.8244,-0.7283,-0.6426,-0.6372,-0.6317,-0.6209,-0.6209,-0.5991,-0.5496,-0.5496,-0.5226,-0.468,-0.468,-0.4625,-0.4519,-0.4519,-0.4314,-0.9082,-0.9535,0.0,-1.1064,-1.0916,-1.1211,0.0,0.0,-1.3115,-1.4338,-1.3772,-1.3099,-1.3208,-1.2526,-1.2025,-1.2123,-1.2386,-1.2504,-1.2504,-1.2597,-1.2613,-1.2573,-1.2536,-1.2703,-1.306,-1.3354,-1.368,-1.4061,-1.4387,-1.4514,-1.4561,-1.4569,-1.4569,-1.4569,-1.4569,-1.4569,-1.4569,-1.4569,-1.4569,-1.4569,-1.4569,-1.4569,-1.4569,-1.4569,-1.4569,-1.4585,-1.4982,-1.5125,-1.5149,-1.5435,-1.5388,-1.5125,-1.5125,-1.4854,-1.4361,-1.4209,-1.3992,-1.379,-1.3572,-1.3492,-1.3492,-1.3492,-1.3492,-1.3492,-1.3492,-1.3492,-1.3492,-1.3492,-1.3492,-1.3492,-1.3492,-1.3492,-1.3419,-1.3273,-1.3046,-1.2813,-1.2631,-1.2195,-1.185,-1.1784,-1.1349,-1.0982,-1.0949,-1.0728,-1.0624,-1.0624,-1.0624,-1.0624,-1.0624,-1.0301,-1.0114,-1.0114,-0.9767,-0.9348,-0.8863,-0.8527,-0.7943,-0.7031,-0.6972,-0.6756,-0.6209,-0.6209,-0.6154,-0.61,-0.61,-0.5828,-0.5226,-0.5226,-0.4952,-0.4519,-0.4519,-0.4366,-1.1616,0.0,0.0,0.0,-1.3076,-1.3388,-1.4435,-1.4468,-1.4453,-1.4966,-1.4874,-1.4676,-1.4676,-1.3995,-1.3449,0.0,-1.3116,-1.2798,-1.2653,-1.2742,-1.279,-1.2653,-1.2621,-1.2837,-1.3322,-1.3505,-1.3815,-1.4379,-1.4482,-1.4569,-1.4569,-1.4569,-1.4569,-1.4569,-1.4569,-1.4569,-1.4569,-1.4569,-1.4752,-1.4959,-1.4959,-1.5054,-1.5245,-1.5245,-1.5245,-1.5253,-1.5404,-1.5467,-1.5483,-1.5618,-1.5594,-1.5467,-1.5467,-1.5312,-1.4906,-1.4356,-1.3992,-1.379,-1.3572,-1.3492,-1.3492,-1.3492,-1.3492,-1.3492,-1.3492,-1.3492,-1.3492,-1.3492,-1.3492,-1.3492,-1.3492,-1.3492,-1.3499,-1.3419,-1.3119,-1.29,-1.2826,-1.243,-1.2071,-1.1904,-1.167,-1.1396,-1.1049,-1.0895,-1.0755,-1.0651,-1.0624,-1.0624,-1.0624,-1.0454,-1.0307,-1.0134,-0.9947,-0.9512,-0.8875,-0.8625,-0.8221,-0.758,-0.7574,-0.7467,-0.7187,-0.7192,-0.7025,-0.6756,-0.6701,-0.6426,-0.5823,-0.5823,-0.561,-0.5159,-0.5159,-0.4955,-1.3412,0.0,0.0,-1.4201,-1.4747,-1.5024,-1.5023,-1.5164,-1.5331,-1.5456,-1.5427,-1.5395,-1.522,-1.4563,0.0,-1.3824,-1.3397,-1.3004,-1.2742,-1.2933,-1.2996,-1.2742,-1.2685,-1.2861,-1.3394,-1.3529,-1.3839,-1.445,-1.4585,-1.4569,-1.4569,-1.4569,-1.4569,-1.4569,-1.4569,-1.4617,-1.4792,-1.4792,-1.4975,-1.5316,-1.5316,-1.5443,-1.5674,-1.5674,-1.5674,-1.5682,-1.5777,-1.5825,-1.5833,-1.5928,-1.5912,-1.5825,-1.5825,-1.5692,-1.5404,-1.4746,-1.4273,-1.4037,-1.3704,-1.3631,-1.3616,-1.3521,-1.3492,-1.3492,-1.3492,-1.3492,-1.3492,-1.3492,-1.3492,-1.3492,-1.3492,-1.3492,-1.3492,-1.3492,-1.3193,-1.29,-1.29,-1.2599,-1.2238,-1.2031,-1.1924,-1.171,-1.1202,-1.1049,-1.0895,-1.0665,-1.0624,-1.0624,-1.0624,-1.0624,-1.0481,-1.0261,-1.0045,-0.9654,-0.9112,-0.8771,-0.8429,-0.8021,-0.7937,-0.7901,-0.7901,-0.7901,-0.7741,-0.7354,-0.73,-0.7058,-0.6569,-0.6569,-0.6346,-0.5968,-0.5798,-0.5551,0.0,0.0,-1.5028,-1.5072,-1.5232,-1.5551,-1.6127,-1.5921,-1.5849,-1.6444,-1.5558,-1.4588,-1.4072,-1.3341,-1.2664,-1.2145,-1.2623,-1.3084,-1.3076,-1.3084,-1.3084,-1.3076,-1.2774,-1.2765,0.0,-1.3394,-1.3735,-1.4101,-1.445,-1.4569,-1.4569,-1.4569,-1.4569,-1.4569,-1.4569,-1.4808,-1.5165,-1.5165,-1.5332,-1.5666,-1.5666,-1.5666,-1.5674,-1.5674,-1.5674,-1.5697,-1.6039,-1.619,-1.6214,-1.6563,-1.65,-1.619,-1.619,-1.5975,-1.5674,-1.5443,-1.5127,-1.4712,-1.4007,-1.3859,-1.3916,-1.3594,-1.3492,-1.3492,-1.3492,-1.3492,-1.3492,-1.3492,-1.3492,-1.3492,-1.3492,-1.3492,-1.3492,-1.3492,-1.3193,-1.29,-1.29,-1.2599,-1.2298,-1.2291,-1.2058,-1.177,-1.147,-1.1182,-1.0895,-1.0665,-1.0624,-1.0624,-1.0624,-1.0624,-1.0618,-1.0611,-1.017,-0.9816,-0.9682,-0.8997,-0.8509,-0.8279,-0.8039,-0.7901,-0.7901,-0.7901,-0.7901,-0.7901,-0.7901,-0.7749,-0.748,-0.748,-0.7307,-0.6928,-0.628,-0.6026,0.0,0.0,-1.5208,-1.5747,-1.586,-1.5988,-1.6411,-1.6304,-1.6161,-1.605,-1.5673,-1.5074,-1.4276,-1.3836,-1.3367,-1.2787,-1.323,-1.3531,-1.3156,-1.3481,-1.36,-1.3147,-1.3179,0.0,0.0,0.0,0.0,-1.4069,-1.422,-1.4395,-1.4553,-1.4569,-1.4569,-1.4569,-1.4879,-1.5062,-1.5189,-1.5404,-1.5682,-1.6031,-1.6269,-1.6373,-1.6373,-1.6373,-1.6373,-1.6389,-1.6508,-1.6555,-1.6563,-1.6683,-1.6667,-1.6555,-1.6555,-1.6484,-1.6349,-1.6039,-1.5785,-1.5534,-1.4486,-1.4321,-1.4468,-1.3998,-1.3821,-1.3821,-1.3821,-1.3667,-1.3492,-1.3492,-1.3492,-1.3492,-1.3492,-1.3492,-1.3492,-1.3492,-1.3193,-1.29,-1.29,-1.2599,-1.2305,-1.2305,-1.2225,-1.2064,-1.177,-1.1476,-1.1116,-1.0698,-1.0624,-1.0624,-1.0624,-1.0624,-1.0624,-1.0624,-1.0223,-0.9906,-0.972,-0.9215,-0.8847,-0.8561,-0.8465,-0.8339,-0.8165,-0.8159,-0.8159,-0.8159,-0.8159,-0.8229,-0.8311,-0.8311,-0.8086,-0.7711,-0.7527,-0.7019,0.0,-1.5607,-1.5753,-1.6504,-1.647,-1.638,-1.662,-1.6409,-1.6042,-1.5753,-1.526,-1.4656,-1.382,-1.3402,-1.3059,-1.2558,-1.3078,-1.3516,-1.3316,-1.3751,-1.395,-1.3505,-1.3529,-1.3497,0.0,0.0,0.0,-1.4069,-1.4228,-1.4458,-1.4816,-1.4832,-1.4887,-1.5006,-1.5237,-1.5419,-1.5547,-1.5761,-1.6039,-1.6397,-1.6627,-1.673,-1.673,-1.673,-1.673,-1.673,-1.673,-1.673,-1.673,-1.673,-1.673,-1.673,-1.673,-1.673,-1.6706,-1.6476,-1.6296,-1.6032,-1.4972,-1.4734,-1.4724,-1.4337,-1.4157,-1.4136,-1.4018,-1.3836,-1.3645,-1.3528,-1.3492,-1.3492,-1.3492,-1.3492,-1.3492,-1.3492,-1.3193,-1.29,-1.29,-1.2599,-1.2305,-1.2305,-1.2305,-1.2204,-1.1917,-1.1536,-1.1109,-1.0698,-1.0624,-1.0624,-1.0624,-1.0624,-1.0624,-1.0624,-1.0238,-0.9977,-0.9805,-0.9377,-0.9053,-0.8825,-0.8729,-0.8603,-0.8435,-0.8429,-0.8429,-0.8429,-0.8429,-0.8555,-0.8819,-0.8819,-0.8769,-0.8589,-0.8332,-0.783,-1.6262,-1.6535,-1.6677,-1.7158,-1.7043,-1.6807,-1.6786,-1.6213,-1.567,-1.5597,-1.4445,-1.3307,0.0,0.0,-1.1741,-1.1543,-1.2474,-1.3308,-1.3595,-1.397,-1.4202,0.0,0.0,0.0,0.0,0.0,0.0,-1.4164,0.0,-1.48,-1.5165,-1.5205,-1.5356,-1.5666,-1.5697,-1.5864,-1.6198,-1.6222,-1.6397,-1.673,-1.673,-1.673,-1.673,-1.673,-1.673,-1.673,-1.673,-1.673,-1.673,-1.673,-1.673,-1.673,-1.673,-1.673,-1.673,-1.6648,-1.6566,-1.6219,-1.5418,-1.5023,-1.4911,-1.4596,-1.4494,-1.4435,-1.4121,-1.4011,-1.3916,-1.3609,-1.3506,-1.3492,-1.3492,-1.3492,-1.3492,-1.3492,-1.3193,-1.29,-1.29,-1.2599,-1.2305,-1.2305,-1.2305,-1.2204,-1.1917,-1.141,-1.0935,-1.0628,-1.0645,-1.0645,-1.0624,-1.0624,-1.0624,-1.0561,-1.0238,-0.9983,-0.9983,-0.9488,-0.915,-0.915,-0.8855,-0.8711,-0.8699,-0.8699,-0.8699,-0.8699,-0.8699,-0.8825,-0.915,-0.915,-0.9226,-0.9484,-0.8818,-0.8554,-1.6361,-1.6798,-1.7114,-1.7112,-1.692,-1.6666,-1.625,-1.5928,-1.539,-1.4355,-1.3619,-1.2667,-1.1193,0.0,0.0,-1.1533,-1.3233,0.0,-1.4408,-1.4925,0.0,0.0,0.0,-1.4673,-1.4395,-1.4839,0.0,0.0,-1.4879,-1.48,-1.5165,-1.5419,-1.5594,-1.5674,-1.5936,-1.6111,-1.6206,-1.6468,-1.6643,-1.673,-1.673,-1.673,-1.673,-1.673,-1.673,-1.673,-1.673,-1.673,-1.673,-1.673,-1.673,-1.673,-1.673,-1.673,-1.6656,-1.6566,-1.6319,-1.6139,-1.571,-1.5539,-1.5397,-1.4918,-1.4823,-1.4809,-1.4721,-1.4362,-1.3967,-1.3879,-1.3682,-1.3492,-1.3492,-1.3492,-1.3492,-1.3492,-1.3193,-1.29,-1.29,-1.2599,-1.2305,-1.2305,-1.2305,-1.2204,-1.1917,-1.1744,-1.147,-1.0962,-1.0882,-1.0808,-1.0651,-1.0624,-1.0561,-1.0371,-1.0174,-0.9989,-0.9862,-0.9545,-0.9376,-0.9376,-0.9316,-0.9184,-0.9035,-0.9029,-0.9029,-0.9029,-0.9029,-0.91,-0.9376,-0.9376,-0.9412,-0.9484,-0.935,-0.8952,-1.7049,-1.7376,-1.7595,-1.7402,-1.692,-1.6316,-1.5732,-1.5164,-1.4449,-1.3258,-1.2665,0.0,0.0,0.0,0.0,0.0,0.0,0.0,-1.4781,-1.5169,-1.5418,0.0,-1.5154,0.0,-1.5102,-1.5451,-1.5674,0.0,-1.5316,-1.5253,-1.5618,-1.5809,-1.5983,-1.6134,-1.6333,-1.6436,-1.6436,-1.6635,-1.673,-1.673,-1.673,-1.673,-1.673,-1.673,-1.673,-1.673,0.0,-1.673,-1.673,-1.673,-1.673,-1.673,-1.673,-1.673,-1.6656,-1.6476,-1.6237,-1.6087,-1.5824,-1.5658,-1.5553,-1.5211,-1.516,-1.5131,-1.4903,-1.4692,-1.4348,-1.4062,-1.385,-1.3675,-1.3536,-1.3492,-1.3492,-1.3492,-1.3193,-1.29,-1.29,-1.2599,-1.2305,-1.2305,-1.2305,-1.2204,-1.1917,-1.187,-1.167,-1.1082,-1.0995,-1.0889,-1.0658,-1.0498,-1.0434,-1.0308,-1.0053,-0.9862,-0.9804,-0.9612,-0.9484,-0.9484,-0.9484,-0.9412,-0.9256,-0.925,-0.925,-0.925,-0.925,-0.9328,-0.9484,-0.9484,-0.9484,-0.9484,-0.9484,-0.9285,-1.7868,-1.7955,-1.7865,-1.7802,-1.692,-1.5913,-1.5258,-1.4278,-1.3248,-1.2328,0.0,0.0,-0.9649,0.0,-1.1084,-1.0897,0.0,-1.416,-1.4958,-1.5147,-1.5454,-1.6029,-1.5626,-1.5364,-1.565,-1.5761,-1.5817,-1.5817,-1.5817,-1.5936,-1.619,-1.6246,-1.642,-1.6722,-1.673,-1.673,-1.673,-1.673,-1.673,-1.673,-1.673,-1.673,-1.673,-1.673,-1.673,-1.673,-1.673,0.0,-1.6894,-1.6894,-1.6968,-1.7049,-1.6886,-1.6894,-1.6804,-1.6476,-1.6245,-1.6087,-1.5741,-1.5582,-1.5431,-1.5431,-1.5431,-1.5379,-1.5012,-1.4977,-1.4816,-1.4216,-1.4011,-1.3901,-1.3579,-1.3492,-1.3492,-1.3492,-1.3193,-1.29,-1.29,-1.2599,-1.2305,-1.2305,-1.2305,-1.2225,-1.1971,-1.1924,-1.1724,-1.1136,-1.1049,-1.0929,-1.0665,-1.0434,-1.0301,-1.0238,-0.9989,-0.9804,-0.974,-0.9612,-0.9484,-0.9484,-0.9484,-0.9484,-0.9484,-0.9484,-0.9484,-0.9484,-0.9484,-0.9484,-0.9484,-0.9484,-0.9484,-0.9484,-0.9484,-0.9484,-1.7868,-1.7715,-1.7497,-1.7716,-1.692,-1.5828,-1.4868,-1.3809,0.0,0.0,0.0,-0.9666,-0.8774,-0.9314,0.0,-1.1408,0.0,0.0,0.0,0.0,-1.5762,0.0,0.0,0.0,0.0,0.0,0.0,0.0,0.0,-1.6444,-1.6222,-1.6484,-1.6675,-1.673,-1.673,-1.673,-1.673,-1.673,-1.673,-1.673,-1.673,-1.673,-1.673,-1.673,-1.673,-1.673,-1.673,0.0,-1.7755,-1.7755,-1.8238,-1.8789,-1.8078,-1.7755,-1.7602,-1.6566,-1.617,-1.6012,-1.559,-1.5423,-1.5431,-1.5431,-1.5431,-1.5416,-1.5357,-1.516,-1.486,-1.4494,-1.4187,-1.3901,-1.3579,-1.3492,-1.3492,-1.3492,-1.3193,-1.29,-1.29,-1.2599,-1.2305,-1.2305,-1.2305,-1.2285,-1.2238,-1.2225,-1.2031,-1.1436,-1.1349,-1.1156,-1.0628,-1.0434,-1.0238,-1.0047,-0.9926,-0.974,-0.9548,-0.9548,-0.9484,-0.9484,-0.9484,-0.9484,-0.9484,-0.9484,-0.9484,-0.9484,-0.9484,-0.9484,-0.9484,-0.9484,-0.9484,-0.9484,-0.9484,-0.9484,-1.7868,-1.7777,-1.7589,-1.7759,-1.6727,-1.5384,-1.4426,0.0,0.0,0.0,0.0,-0.9239,-0.8236,0.0,0.0,0.0,0.0,0.0,0.0,0.0,0.0,0.0,0.0,0.0,0.0,0.0,0.0,0.0,0.0,-1.6659,-1.6492,-1.6643,-1.673,-1.673,-1.673,-1.673,-1.673,-1.673,-1.673,-1.673,-1.673,-1.673,-1.673,-1.673,-1.6976,-1.7367,-1.7367,0.0,-1.8709,-1.8709,-1.8939,-1.9186,-1.8318,-1.7997,-1.7836,-1.6566,-1.6087,-1.6004,-1.5597,-1.5431,-1.5401,-1.5233,-1.5292,-1.5431,-1.5431,-1.5204,-1.4874,-1.456,-1.4231,-1.3901,-1.3579,-1.3492,-1.3492,-1.3492,-1.3193,-1.2826,-1.2599,-1.2452,-1.2305,-1.2305,-1.2305,-1.2305,-1.2305,-1.2305,-1.2104,-1.151,-1.1423,-1.1216,-1.0698,-1.0308,-1.011,-0.9983,-0.9798,-0.9612,-0.9484,-0.9484,-0.9484,-0.9484,-0.9484,-0.9484,-0.9484,-0.9484,-0.9484,-0.9484,-0.9484,-0.9484,-0.9484,-0.9484,-0.9484,-0.9484,-0.9484,-0.9484,-1.7715,-1.7788,-1.7683,-1.7791,-1.6501,-1.4963,-1.3973,-1.256,0.0,0.0,0.0,-0.8929,-0.7909,0.0,0.0,0.0,0.0,0.0,0.0,0.0,0.0,0.0,0.0,0.0,0.0,0.0,0.0,0.0,0.0,0.0,-1.673,-1.673,-1.673,-1.673,-1.673,-1.673,-1.673,-1.673,-1.673,-1.673,-1.673,-1.673,-1.6738,-1.6894,-1.7286,-1.7764,-1.8158,0.0,0.0,-1.9502,-1.958,-1.9502,-1.863,-1.8158,-1.7827,-1.6487,-1.598,-1.589,-1.5412,-1.5226,-1.5182,-1.4926,-1.5057,-1.5313,-1.5248,-1.5043,-1.4779,-1.4457,-1.4179,-1.3901,-1.3579,-1.3492,-1.3499,-1.3419,-1.3119,-1.2746,-1.2378,-1.2305,-1.2305,-1.2305,-1.2305,-1.2305,-1.2305,-1.2251,-1.2031,-1.1503,-1.1369,-1.1142,-1.0692,-1.0244,-0.9983,-0.9983,-0.967,-0.9484,-0.9484,-0.9484,-0.9484,-0.9484,-0.9484,-0.9484,-0.9484,-0.9484,-0.9484,-0.9484,-0.9484,-0.9484,-0.9484,-0.9484,-0.9484,-0.9484,-0.9484,-0.9484,-1.7202,-1.7344,-1.7396,-1.7705,-1.6556,-1.4991,-1.3609,0.0,0.0,0.0,-0.8611,-0.8208,-0.7866,0.0,0.0,0.0,0.0,0.0,0.0,0.0,0.0,0.0,0.0,0.0,0.0,0.0,0.0,0.0,0.0,0.0,-1.6714,-1.673,-1.673,-1.673,-1.673,-1.673,-1.673,-1.673,-1.673,-1.673,-1.673,-1.673,-1.6738,-1.7521,-1.7521,-1.6894,-1.847,0.0,0.0,-2.006,-2.0382,-2.0304,-1.9502,-1.8709,-1.7794,-1.6212,-1.5629,-1.5503,-1.4813,-1.456,-1.4553,-1.4523,-1.4728,-1.4933,-1.4648,-1.4538,-1.4443,-1.4121,-1.4004,-1.3901,-1.3579,-1.3492,-1.3419,-1.3046,-1.2826,-1.2599,-1.2378,-1.2305,-1.2305,-1.2305,-1.2305,-1.2305,-1.2305,-1.2084,-1.1797,-1.147,-1.1202,-1.0915,-1.0665,-1.0244,-0.9983,-0.9983,-0.967,-0.9484,-0.9484,-0.9484,-0.9484,-0.9484,-0.9484,-0.9484,-0.9484,-0.9484,-0.9484,-0.9484,-0.9484,-0.9484,-0.9484,-0.9484,-0.9484,-0.9484,-0.9484,-0.9484,-1.6612,-1.6927,-1.7022,-1.697,-1.6127,-1.4845,-1.3141,0.0,0.0,-0.916,-0.8537,-0.8123,-0.781,-0.7769,-0.8047,0.0,0.0,0.0,0.0,0.0,0.0,0.0,0.0,0.0,0.0,0.0,0.0,0.0,0.0,0.0,-1.6087,-1.6103,-1.6103,-1.6103,-1.6103,-1.6198,-1.6412,-1.642,-1.642,-1.642,-1.6635,-1.6619,-1.6412,-1.6725,-1.7401,-1.8238,-1.8232,0.0,0.0,-2.011,-2.0166,-2.0061,-1.9487,-1.9005,-1.8531,-1.7158,-1.6654,-1.6553,-1.6029,-1.5827,-1.5795,-1.5578,-1.5602,-1.5502,-1.4754,-1.4333,-1.415,-1.4018,-1.3843,-1.366,-1.3528,-1.3419,-1.3273,-1.2973,-1.2746,-1.2526,-1.2305,-1.2305,-1.2305,-1.2305,-1.2305,-1.2305,-1.2305,-1.2058,-1.177,-1.147,-1.1182,-1.0889,-1.0658,-1.0244,-0.9983,-0.9983,-0.967,-0.9484,-0.9484,-0.9484,-0.9484,-0.9484,-0.9484,-0.9484,-0.9484,-0.9484,-0.9484,-0.9484,-0.9484,-0.9484,-0.9484,-0.9484,-0.9484,-0.9484,-0.9484,-0.9484,-1.5734,-1.6245,-1.6373,-1.6138,-1.5424,-1.4363,0.0,0.0,-1.0309,-0.8953,-0.8415,-0.8062,-0.7627,-0.7586,-0.7703,0.0,-0.7875,-0.8277,0.0,0.0,0.0,0.0,0.0,0.0,0.0,0.0,0.0,0.0,0.0,0.0,-1.5531,-1.5427,-1.5467,-1.5674,-1.5674,-1.5793,-1.6047,-1.6047,-1.6047,-1.6047,-1.6301,-1.6285,-1.6047,-1.6283,-1.7198,-1.8536,-1.7932,0.0,0.0,-1.9844,-1.9717,-1.9687,-1.9311,-1.9039,-1.8654,-1.764,-1.7225,-1.7068,-1.665,-1.6468,-1.6351,-1.6161,-1.6076,-1.5909,-1.5067,-1.4682,-1.449,-1.449,-1.4167,-1.384,-1.384,-1.3484,-1.3046,-1.29,-1.2673,-1.2452,-1.2305,-1.2305,-1.2305,-1.2305,-1.2305,-1.2271,-1.2191,-1.1931,-1.1637,-1.1343,-1.1049,-1.0788,-1.0651,-1.0244,-0.9983,-0.9983,-0.967,-0.9484,-0.9484,-0.9484,-0.9484,-0.9484,-0.9484,-0.9484,-0.9484,-0.9484,-0.9484,-0.9484,-0.9484,-0.9484,-0.9484,-0.9484,-0.9484,-0.9484,-0.9484,-0.9484,-1.4661,-1.5264,-1.5569,-1.5289,-1.4581,-1.357,0.0,-1.0888,-0.9819,-0.8477,-0.8197,-0.8004,-0.7314,-0.7196,-0.7213,-0.7303,-0.7602,0.0,0.0,0.0,0.0,0.0,0.0,0.0,0.0,0.0,0.0,0.0,0.0,0.0,-1.5189,-1.4847,-1.4967,-1.5658,-1.5674,-1.5674,-1.5682,-1.5682,-1.5682,-1.5682,-1.569,-1.569,-1.5758,-1.6598,-1.691,0.0,0.0,0.0,0.0,-1.9258,-1.9258,-1.9195,-1.9185,-1.8673,-1.7888,-1.7316,-1.6964,-1.6694,-1.6228,-1.5886,-1.5683,-1.5683,-1.5675,-1.5683,-1.5683,-1.5683,-1.5675,-1.5675,-1.518,-1.4601,-1.4601,-1.3753,-1.29,-1.29,-1.2599,-1.2305,-1.2305,-1.2305,-1.2305,-1.2305,-1.2305,-1.2211,-1.1924,-1.163,-1.1329,-1.1042,-1.0755,-1.0624,-1.0624,-1.0244,-0.9983,-0.9983,-0.967,-0.9484,-0.9484,-0.9484,-0.9484,-0.9484,-0.9484,-0.9484,-0.9484,-0.9484,-0.9484,-0.9484,-0.9484,-0.9484,-0.9484,-0.9484,-0.9484,-0.9484,-0.9484,-0.9484,-1.2797,-1.3427,-1.3782,-1.3081,-1.2943,-1.2468,-1.0604,-1.018,-0.9808,-0.8477,-0.8023,-0.7724,-0.7285,-0.7047,-0.7072,-0.7581,0.0,0.0,0.0,0.0,0.0,0.0,0.0,0.0,0.0,0.0,0.0,0.0,0.0,0.0,-1.4816,-1.4704,-1.4736,-1.4959,-1.4967,-1.5086,-1.534,-1.534,-1.534,-1.534,-1.557,-1.5562,-1.534,-1.564,-1.6504,0.0,0.0,0.0,0.0,-1.8864,-1.8747,-1.8718,-1.8993,-1.8942,-1.8646,-1.8232,-1.8046,-1.7889,-1.748,-1.7295,-1.7304,-1.7304,-1.7304,-1.7304,-1.7304,-1.6524,-1.5675,-1.5675,-1.5534,-1.5313,-1.5313,-1.5037,-1.4466,-1.3825,-1.3897,-1.3745,-1.2592,-1.2739,-1.3098,-1.3098,-1.3098,-1.3281,-1.3675,-1.2925,-1.2198,-1.2105,-1.1258,-1.0624,-1.0624,-1.0244,-0.9983,-0.9983,-0.967,-0.9484,-0.9484,-0.9484,-0.9484,-0.9484,-0.9484,-0.9484,-0.9484,-0.9484,-0.9484,-0.9484,-0.9484,-0.9484,-0.9484,-0.9484,-0.9484,-0.9484,-0.9484,-0.9484,0.0,-1.2033,-1.2257,-1.1638,-1.1575,-1.1302,-0.9843,-0.9602,-0.9429,-0.8404,-0.7937,-0.7598,-0.7255,-0.6987,-0.6969,-0.752,0.0,0.0,0.0,0.0,0.0,0.0,0.0,0.0,0.0,0.0,0.0,0.0,0.0,0.0,-1.4641,-1.4569,-1.4569,-1.4569,-1.4569,-1.4752,-1.4975,-1.4982,-1.4982,-1.4982,-1.5189,-1.5181,-1.4975,-1.5267,-1.6251,0.0,0.0,0.0,0.0,-1.8546,-1.8508,-1.8764,-1.8967,-1.9075,-1.9075,-1.8808,-1.8607,-1.8482,-1.8279,-1.8076,-1.8008,-1.8008,-1.8008,-1.8008,-1.8008,-1.7304,-1.6594,-1.6594,-1.6376,-1.6158,-1.6158,-1.5816,-1.5321,-1.4617,-1.4689,-1.4609,-1.3455,-1.3528,-1.389,-1.389,-1.3792,-1.3742,-1.3816,-1.3006,-1.2218,-1.1897,-1.1111,-1.0561,-1.0498,-1.0174,-0.9983,-0.9926,-0.9676,-0.9484,-0.9484,-0.9484,-0.9484,-0.9484,-0.9484,-0.9484,-0.9484,-0.9484,-0.9484,-0.9484,-0.9484,-0.9484,-0.9484,-0.9484,-0.9484,-0.9484,-0.9484,-0.9484,0.0,-1.0814,-1.0798,-1.064,-1.0412,-1.0085,-0.9501,-0.9129,0.0,-0.828,-0.7908,-0.7588,-0.7329,-0.7049,-0.696,-0.7396,0.0,0.0,0.0,0.0,0.0,0.0,0.0,0.0,0.0,0.0,0.0,0.0,0.0,0.0,-1.4641,-1.4569,-1.4569,-1.4569,-1.4569,-1.4569,-1.4569,-1.4569,-1.4569,-1.4569,-1.4569,-1.4569,-1.4641,-1.5338,-1.6175,0.0,0.0,0.0,0.0,-1.8375,-1.8452,-1.9075,-1.9075,-1.9075,-1.9075,-1.9075,-1.8808,-1.8482,-1.8482,-1.8279,-1.8008,-1.8008,-1.8008,-1.8008,-1.8008,-1.8008,-1.8008,-1.8008,-1.751,-1.7001,-1.7001,-1.6306,-1.5613,-1.5338,-1.5196,-1.4974,-1.4673,-1.4673,-1.4673,-1.4673,-1.4347,-1.3884,-1.2991,-1.2476,-1.1833,-1.0882,-1.0701,-1.0561,-1.0364,-1.0174,-0.9989,-0.9868,-0.9676,-0.9548,-0.9548,-0.9484,-0.9484,-0.9484,-0.9484,-0.9484,-0.9484,-0.9484,-0.9484,-0.9484,-0.9484,-0.9484,-0.9484,-0.9484,-0.9484,-0.9484,-0.9484,-0.9484,-0.7551,0.0,-0.8247,-0.7866,-0.8257,-0.8598,0.0,-0.8446,0.0,0.0,0.0,-0.747,-0.7957,-0.7626,-0.7628,0.0,0.0,0.0,0.0,0.0,0.0,0.0,0.0,0.0,0.0,0.0,0.0,0.0,0.0,0.0,-1.4641,-1.4569,-1.4569,-1.4569,-1.4569,-1.4569,-1.4569,-1.4569,-1.4569,-1.4569,-1.4569,-1.4569,-1.4641,-1.4776,-1.5613,0.0,0.0,0.0,-1.9075,-1.8931,-1.8931,-1.9075,-1.9075,-1.9075,-1.9065,-1.8741,-1.8549,-1.8482,-1.8212,-1.8076,-1.8008,-1.8008,-1.8008,-1.8008,-1.8008,-1.8008,-1.8008,-1.8008,-1.7872,-1.7725,-1.7725,-1.7588,-1.7157,-1.6245,-1.6464,-1.6464,-1.4958,-1.5108,-1.5542,-1.5542,-1.5404,-1.5375,-1.5416,-1.4222,-1.3126,-1.2598,-1.1397,-1.0561,-1.0561,-1.0364,-1.0244,-1.018,-0.9926,-0.974,-0.974,-0.9612,-0.9484,-0.9484,-0.9484,-0.9484,-0.9484,-0.9484,-0.9484,-0.9484,-0.9484,-0.9484,-0.9484,-0.9484,-0.9484,-0.9484,-0.9484,-0.9484,-0.6138,-0.7141,-0.8073,-0.7825,-0.829,-0.8746,-0.8468,0.0,0.0,0.0,0.0,0.0,-0.7767,0.0,0.0,0.0,0.0,0.0,0.0,0.0,0.0,0.0,0.0,0.0,0.0,0.0,0.0,0.0,0.0,0.0,-1.4641,-1.4569,-1.4569,-1.4569,-1.4569,-1.4569,-1.4569,-1.4569,-1.4569,-1.4569,-1.4569,-1.4569,-1.4641,-1.4991,-1.5754,0.0,0.0,0.0,-1.9075,-1.9075,-1.9075,-1.9075,-1.9075,-1.9075,-1.9075,-1.8741,-1.8549,-1.8482,-1.8212,-1.8076,-1.8008,-1.8008,-1.8008,-1.8008,-1.8008,-1.8008,-1.8008,-1.8008,-1.8008,-1.8008,-1.8008,-1.8008,-1.7803,-1.7028,-1.7176,-1.7176,-1.5895,-1.5974,-1.6333,-1.6333,-1.6191,-1.5952,-1.5628,-1.4362,-1.3146,-1.249,-1.1347,-1.0688,-1.087,-1.0555,-1.0358,-1.0604,-1.011,-0.9804,-0.9804,-0.9612,-0.9484,-0.9484,-0.9484,-0.9484,-0.9484,-0.9484,-0.9484,-0.9484,-0.9484,-0.9484,-0.9484,-0.9484,-0.9484,-0.9484,-0.9484,-0.9484,-0.5753,-0.7364,-0.8911,-0.8632,-0.9056,-0.9489,0.0,0.0,0.0,0.0,0.0,0.0,0.0,0.0,0.0,0.0,0.0,0.0,0.0,0.0,0.0,0.0,0.0,0.0,0.0,0.0,0.0,0.0,0.0,0.0,-1.4848,-1.4776,-1.4848,-1.4919,-1.4848,-1.4848,-1.4919,-1.4713,-1.4569,-1.4569,-1.4569,-1.4569,-1.4641,-1.5346,-1.6035,-1.6793,0.0,0.0,-1.8931,-1.8931,-1.8998,-1.9075,-1.9075,-1.9075,-1.9075,-1.8808,-1.8684,-1.8482,-1.8337,-1.8134,-1.8008,-1.8008,-1.8008,-1.8008,-1.8008,-1.8008,-1.8008,-1.8008,-1.8008,-1.8008,-1.8008,-1.8008,-1.7872,-1.7598,-1.747,-1.7323,-1.6978,-1.6908,-1.6908,-1.6908,-1.6633,-1.6057,-1.5046,-1.3915,-1.2869,-1.1784,-1.1115,-1.087,-1.1178,-1.0807,-1.0604,-1.0899,-1.0295,-0.9798,-0.9798,-0.9612,-0.9484,-0.9484,-0.9484,-0.9484,-0.9484,-0.9484,-0.9484,-0.9484,-0.9484,-0.9484,-0.9484,-0.9484,-0.9484,-0.9484,-0.9484,-0.9484,-0.6896,-0.829,-0.9035,-0.7514,-0.8313,-0.9417,0.0,0.0,0.0,0.0,0.0,0.0,0.0,0.0,0.0,0.0,0.0,0.0,0.0,0.0,0.0,0.0,0.0,0.0,0.0,0.0,0.0,0.0,0.0,0.0,-1.5621,-1.5621,-1.5903,-1.6515,-1.5965,-1.5903,-1.6515,-1.5267,-1.4569,-1.4569,-1.4569,-1.4569,-1.4569,-1.4713,-1.5204,-1.5965,0.0,-1.6932,-1.8172,-1.8172,-1.8519,-1.9075,-1.9075,-1.9075,-1.9065,-1.8674,-1.8549,-1.8482,-1.8144,-1.8008,-1.8008,-1.8008,-1.8008,-1.8008,-1.8008,-1.8008,-1.8008,-1.8008,-1.8008,-1.8008,-1.8008,-1.7862,-1.7716,-1.7539,-1.7392,-1.7166,-1.6978,-1.6908,-1.6908,-1.6908,-1.6862,-1.651,-1.5687,-1.445,-1.3324,-1.2484,-1.1787,-1.1178,-1.0744,-1.1052,-1.1178,-1.0737,-1.0238,-0.9989,-0.9989,-0.967,-0.9484,-0.9484,-0.9484,-0.9484,-0.9484,-0.9484,-0.9484,-0.9484,-0.9484,-0.9484,-0.9484,-0.9484,-0.9484,-0.9484,-0.9484,-0.9484,-0.6079,-0.7343,-0.8338,-0.755,-0.9204,-1.0884,0.0,0.0,0.0,0.0,0.0,0.0,0.0,0.0,0.0,0.0,0.0,0.0,0.0,0.0,0.0,0.0,0.0,0.0,0.0,0.0,0.0,0.0,0.0,0.0,-1.6385,-1.6385,-1.6524,-1.6862,-1.6594,-1.6594,-1.6932,-1.6175,-1.5613,-1.5275,-1.5275,-1.4991,-1.4641,-1.5471,-1.6035,-1.6455,0.0,-1.7619,-1.8586,-1.8586,-1.8798,-1.9075,-1.9008,-1.8942,-1.8875,-1.8539,-1.8347,-1.8212,-1.8076,-1.8008,-1.8008,-1.8008,-1.8008,-1.8008,-1.8008,-1.8008,-1.8008,-1.8008,-1.8008,-1.8008,-1.8008,-1.7862,-1.7647,-1.7529,-1.7323,-1.7166,-1.6968,-1.6908,-1.6908,-1.6908,-1.6734,-1.626,-1.5334,-1.4202,-1.318,-1.2583,-1.1911,-1.1545,-1.16,-1.1538,-1.1365,-1.1115,-1.0421,-0.9983,-0.9983,-0.967,-0.9484,-0.9484,-0.9484,-0.9484,-0.9484,-0.9484,-0.9484,-0.9484,-0.9484,-0.9484,-0.9484,-0.9484,-0.9484,-0.9484,-0.9484,-0.9484,-0.557,-0.6586,-0.7693,0.0,0.0,0.0,0.0,0.0,0.0,0.0,0.0,0.0,0.0,0.0,0.0,0.0,0.0,0.0,0.0,0.0,0.0,0.0,0.0,0.0,0.0,0.0,0.0,0.0,0.0,0.0,-1.6587,-1.6723,-1.6917,-1.7062,-1.6917,-1.6917,-1.7062,-1.702,-1.6702,-1.6035,-1.6035,-1.5754,-1.5196,-1.6376,-1.6932,-1.6932,-1.7482,-1.8172,-1.8865,-1.8865,-1.8931,-1.9065,-1.8875,-1.8741,-1.8674,-1.8405,-1.8134,-1.8008,-1.8008,-1.8008,-1.8008,-1.8008,-1.8008,-1.8008,-1.8008,-1.8008,-1.8008,-1.8008,-1.8008,-1.8008,-1.794,-1.7784,-1.7657,-1.7461,-1.7254,-1.7107,-1.6908,-1.6908,-1.6908,-1.6908,-1.6587,-1.5984,-1.5103,-1.4059,-1.3186,-1.2813,-1.2151,-1.1849,-1.2205,-1.1849,-1.1421,-1.1303,-1.0548,-0.9983,-0.9856,-0.967,-0.9484,-0.9484,-0.9484,-0.9484,-0.9484,-0.9484,-0.9484,-0.9484,-0.9484,-0.9484,-0.9484,-0.9484,-0.9484,-0.9484,-0.9484,-0.9484,-0.6711,-0.7231,-0.7593,-0.837,0.0,0.0,0.0,0.0,0.0,0.0,0.0,0.0,0.0,0.0,0.0,0.0,0.0,0.0,0.0,0.0,0.0,0.0,0.0,0.0,0.0,0.0,0.0,0.0,0.0,0.0,-1.5836,-1.6322,-1.6967,-1.7636,-1.6967,-1.6967,-1.7636,-1.7372,-1.7092,-1.6793,-1.6793,-1.6793,-1.6724,-1.6862,-1.6932,-1.6932,-1.6932,-1.7413,-1.8104,-1.8104,-1.8452,-1.9065,-1.8875,-1.8607,-1.8337,-1.8337,-1.8134,-1.8008,-1.8008,-1.8008,-1.8008,-1.8008,-1.8008,-1.8008,-1.8008,-1.8008,-1.8008,-1.8008,-1.8008,-1.794,-1.7784,-1.7588,-1.7461,-1.7245,-1.7038,-1.6908,-1.6908,-1.6908,-1.6908,-1.6908,-1.6587,-1.6184,-1.5697,-1.4762,-1.3868,-1.3501,-1.2887,-1.2205,-1.167,-1.1545,-1.1303,-1.0744,-1.0238,-0.9862,-0.9548,-0.9548,-0.9484,-0.9484,-0.9484,-0.9484,-0.9484,-0.9484,-0.9484,-0.9484,-0.9484,-0.9484,-0.9484,-0.9484,-0.9484,-0.9484,-0.9484,-0.9484,-0.5404,-0.6188,-0.6993,0.0,0.0,0.0,0.0,0.0,0.0,0.0,0.0,0.0,0.0,0.0,0.0,0.0,0.0,0.0,0.0,0.0,0.0,0.0,0.0,0.0,0.0,0.0,0.0,0.0,0.0,0.0,0.0,-1.7014,-1.7264,-1.7471,-1.7201,-1.7201,-1.7595,-1.7509,-1.7416,-1.7392,-1.7243,-1.675,-1.6044,-1.73,-1.7559,-1.7169,-1.7919,-1.8452,-1.8654,-1.8654,-1.8865,-1.9075,-1.8741,-1.8414,-1.8144,-1.8144,-1.8076,-1.8008,-1.8008,-1.8008,-1.8008,-1.8008,-1.8008,-1.8008,-1.8008,-1.8008,-1.8008,-1.8008,-1.8008,-1.8008,-1.793,-1.7666,-1.747,-1.7392,-1.7116,-1.6908,-1.6908,-1.6908,-1.6835,-1.6587,-1.6211,-1.566,-1.4861,-1.4152,-1.3665,-1.3528,-1.2948,-1.2389,-1.2143,-1.1787,-1.1303,-1.0681,-1.0238,-0.9856,-0.9548,-0.9484,-0.9484,-0.9484,-0.9484,-0.9484,-0.9484,-0.9484,-0.9484,-0.9484,-0.9484,-0.9484,-0.9484,-0.9484,-0.9484,-0.9484,-0.9484,-0.9484,-0.4889,-0.5812,-0.6855,0.0,0.0,0.0,0.0,0.0,0.0,0.0,0.0,0.0,0.0,0.0,0.0,0.0,0.0,0.0,0.0,0.0,0.0,0.0,0.0,0.0,0.0,0.0,0.0,0.0,0.0,0.0,0.0,-1.6799,-1.6931,-1.687,-1.687,-1.6931,-1.6992,-1.7195,-1.7246,-1.7174,-1.7169,-1.6836,-1.6237,-1.7577,-1.791,-1.7471,-1.8312,-1.8651,-1.8661,-1.8796,-1.8874,-1.8875,-1.8539,-1.8279,-1.8008,-1.8008,-1.8008,-1.8008,-1.8008,-1.8008,-1.8008,-1.8008,-1.8008,-1.8008,-1.8008,-1.8008,-1.8008,-1.8008,-1.8008,-1.8008,-1.8008,-1.7745,-1.747,-1.7392,-1.7116,-1.6908,-1.6908,-1.6807,-1.6642,-1.6367,-1.5872,-1.5287,-1.4559,-1.4066,-1.3761,-1.3511,-1.2948,-1.2451,-1.2205,-1.16,-1.0989,-1.0498,-1.0117,-0.9798,-0.9548,-0.9484,-0.9484,-0.9484,-0.9484,-0.9484,-0.9484,-0.9484,-0.9484,-0.9484,-0.9484,-0.9484,-0.9484,-0.9484,-0.9484,-0.9484,-0.9484,-0.9484,-0.5617,-0.6418,0.0,0.0,0.0,0.0,0.0,0.0,0.0,0.0,0.0,0.0,0.0,0.0,0.0,0.0,0.0,0.0,0.0,0.0,0.0,0.0,0.0,0.0,0.0,0.0,0.0,0.0,0.0,0.0,0.0,-1.5556,-1.5914,-1.5914,-1.5914,-1.5914,-1.5914,-1.6514,-1.6563,-1.6124,-1.6691,-1.7214,-1.7657,-1.7668,-1.7668,-1.7668,-1.7668,-1.7668,-1.7771,-1.8195,-1.8455,-1.8472,-1.8327,-1.8202,-1.8008,-1.8008,-1.8008,-1.8008,-1.8008,-1.8008,-1.8008,-1.8008,-1.8008,-1.8008,-1.8008,-1.8008,-1.8008,-1.8008,-1.8008,-1.7998,-1.8008,-1.7725,-1.7451,-1.7235,-1.7038,-1.6908,-1.6899,-1.6597,-1.6321,-1.6312,-1.5652,-1.5102,-1.5093,-1.4772,-1.4258,-1.3571,-1.2948,-1.2274,-1.1608,-1.0996,-1.0434,-1.0047,-0.9862,-0.974,-0.9548,-0.9484,-0.9484,-0.9484,-0.9484,-0.9484,-0.9484,-0.9484,-0.9484,-0.9484,-0.9484,-0.9484,-0.9484,-0.9484,-0.9484,-0.9484,-0.9484,-0.9484,-0.5046,0.0,0.0,0.0,0.0,0.0,0.0,0.0,0.0,0.0,0.0,0.0,0.0,0.0,0.0,0.0,0.0,0.0,0.0,0.0,0.0,0.0,0.0,0.0,0.0,0.0,0.0,0.0,0.0,0.0,0.0,-1.5546,-1.5672,-1.5536,-1.5536,-1.5604,-1.574,-1.5918,-1.5976,-1.5961,-1.6257,-1.6516,-1.6798,-1.7108,-1.7193,-1.7203,-1.7595,-1.7668,-1.7678,-1.7739,-1.7693,-1.756,-1.7432,-1.7491,-1.7568,-1.7568,-1.7754,-1.8008,-1.8008,-1.8008,-1.8008,-1.8008,-1.8008,-1.8008,-1.8008,-1.7803,-1.7627,-1.793,-1.7578,-1.7178,-1.749,-1.7071,-1.6722,-1.725,-1.7254,-1.6954,-1.6551,-1.6395,-1.6147,-1.557,-1.5267,-1.501,-1.4735,-1.421,-1.3761,-1.3511,-1.2528,-1.1545,-1.0926,-1.0681,-1.0434,-1.0047,-0.9989,-0.9798,-0.9548,-0.9484,-0.9484,-0.9484,-0.9484,-0.9484,-0.9484,-0.9484,-0.9484,-0.9484,-0.9484,-0.9484,-0.9484,-0.9484,-0.9484,-0.9484,-0.9484,-0.9484,0.0,0.0,0.0,0.0,0.0,0.0,0.0,0.0,0.0,0.0,0.0,0.0,0.0,0.0,0.0,0.0,0.0,0.0,0.0,0.0,0.0,0.0,0.0,0.0,0.0,0.0,0.0,0.0,0.0,0.0,0.0,-1.5536,-1.5546,-1.541,-1.541,-1.5478,-1.5604,-1.5672,-1.574,-1.5798,-1.6009,-1.6181,-1.6316,-1.6595,-1.6777,-1.6798,-1.7007,-1.7164,-1.7328,-1.7083,-1.7061,-1.7106,-1.6908,-1.6948,-1.7119,-1.7119,-1.7285,-1.75,-1.75,-1.7617,-1.7764,-1.7764,-1.7764,-1.7764,-1.7764,-1.7461,-1.7178,-1.7432,-1.7129,-1.6797,-1.7061,-1.6722,-1.6453,-1.6911,-1.6825,-1.6483,-1.612,-1.5945,-1.5689,-1.5194,-1.4974,-1.4729,-1.4174,-1.3761,-1.3321,-1.2773,-1.1794,-1.0996,-1.0624,-1.0624,-1.0498,-1.0238,-0.9989,-0.9734,-0.9548,-0.9484,-0.9484,-0.9484,-0.9484,-0.9484,-0.9484,-0.9484,-0.9484,-0.9484,-0.9484,-0.9484,-0.9484,-0.9484,-0.9484,-0.9484,-0.9484,-0.9484,0.0,0.0,0.0,0.0,0.0,0.0,0.0,0.0,0.0,0.0,0.0,0.0,0.0,0.0,0.0,0.0,0.0,0.0,0.0,0.0,0.0,0.0,0.0,0.0,0.0,0.0,0.0,0.0,0.0,0.0,0.0,-1.541,-1.541,-1.541,-1.541,-1.541,-1.541,-1.5604,-1.5672,-1.5672,-1.5951,-1.6056,-1.6056,-1.6316,-1.6374,-1.6374,-1.6181,-1.629,-1.6677,-1.6377,-1.6495,-1.6852,-1.6674,-1.6641,-1.667,-1.667,-1.6699,-1.6665,-1.6665,-1.6992,-1.7324,-1.7324,-1.7324,-1.7324,-1.7324,-1.7021,-1.668,-1.6719,-1.6607,-1.6558,-1.666,-1.6515,-1.6287,-1.6151,-1.589,-1.568,-1.5643,-1.5349,-1.5093,-1.5056,-1.4753,-1.4267,-1.3631,-1.345,-1.2956,-1.1608,-1.0926,-1.0624,-1.0624,-1.0624,-1.0561,-1.0561,-0.9926,-0.9548,-0.9484,-0.9484,-0.9484,-0.9484,-0.9484,-0.9484,-0.9484,-0.9484,-0.9484,-0.9484,-0.9484,-0.9484,-0.9484,-0.9484,-0.9484,-0.9484,-0.9484,-0.9484,0.0,0.0,0.0,0.0,0.0,0.0,0.0,0.0,0.0,0.0,0.0,0.0,0.0,0.0,0.0,0.0,0.0,0.0,0.0,0.0,0.0,0.0,0.0,0.0,0.0,0.0,0.0,0.0,0.0,0.0,-1.541,-1.541,-1.541,-1.541,-1.541,-1.541,-1.541,-1.542,-1.5478,0.0,-1.5662,-1.5788,-1.5788,-1.6202,-1.6306,-1.6181,-1.6019,-1.6022,-1.6055,-1.5869,-1.587,-1.595,-1.5762,-1.5908,-1.6211,-1.6211,-1.6436,-1.6665,-1.6665,-1.6797,-1.6875,-1.6875,-1.6875,-1.6875,-1.6875,-1.6562,-1.6279,-1.6631,-1.623,-1.5771,-1.6113,-1.5785,-1.5305,-1.5295,-1.5613,-1.5817,-1.5357,-1.5157,-1.501,-1.4698,-1.457,-1.4267,-1.3631,-1.307,-1.2274,-1.0989,-1.0681,-1.0624,-1.0624,-1.0624,-1.0498,-1.018,-0.9989,-0.9798,-0.9548,-0.9484,-0.9484,-0.9484,-0.9484,-0.9484,-0.9484,-0.9484,-0.9484,-0.9484,-0.9484,-0.9484,-0.9484,-0.9484,-0.9484,-0.9484,-0.9484,-0.9484,0.0,0.0,0.0,0.0,0.0,0.0,0.0,0.0,0.0,0.0,0.0,0.0,0.0,0.0,0.0,0.0,0.0,0.0,0.0,0.0,0.0,0.0,0.0,0.0,0.0,0.0,0.0,0.0,0.0,-1.4805,-1.4805,-1.4805,-1.4805,-1.4805,-1.4805,-1.4805,-1.4805,-1.501,-1.5107,-1.5117,-1.5505,-1.573,-1.5798,-1.6029,-1.6077,-1.6019,-1.5846,-1.5798,-1.5798,-1.5604,-1.5546,-1.5546,-1.542,-1.5547,-1.5752,-1.5752,-1.5898,-1.6103,-1.6103,-1.624,-1.6416,-1.6416,-1.6416,-1.6416,-1.6416,-1.6103,-1.5801,-1.6035,-1.5771,-1.5469,-1.5644,-1.531,-1.497,-1.4902,-1.506,-1.5207,-1.4864,-1.4818,-1.4753,-1.4552,-1.4258,-1.3821,-1.3139,-1.2212,-1.1358,-1.0681,-1.0624,-1.0624,-1.0624,-1.0624,-1.0371,-0.9798,-0.9734,-0.967,-0.9548,-0.9484,-0.9484,-0.9484,-0.9484,-0.9484,-0.9484,-0.9484,-0.9484,-0.9484,-0.9484,-0.9484,-0.9484,-0.9484,-0.9484,-0.9484,-0.9484,-0.9484,0.0,0.0,0.0,0.0,0.0,0.0,0.0,0.0,0.0,0.0,0.0,0.0,0.0,0.0,0.0,0.0,0.0,0.0,0.0,0.0,0.0,0.0,0.0,0.0,0.0,0.0,0.0,0.0,0.0,-1.4077,-1.4077,-1.4077,-1.4077,-1.4077,-1.4077,-1.4077,-1.4077,-1.4492,-1.4678,-1.4678,-1.5209,-1.5551,-1.5736,-1.5736,-1.5786,-1.5856,-1.573,-1.5672,-1.5614,-1.5478,-1.541,-1.541,-1.541,-1.541,-1.541,-1.541,-1.541,-1.541,-1.541,-1.5644,-1.5947,-1.5947,-1.5947,-1.5947,-1.5947,-1.5693,-1.541,-1.541,-1.541,-1.5362,-1.5205,-1.5098,-1.497,-1.4775,-1.4616,-1.4515,-1.4515,-1.4515,-1.4515,-1.4515,-1.395,-1.326,-1.2696,-1.1476,-1.0624,-1.0624,-1.0624,-1.0624,-1.0624,-1.0624,-1.0308,-0.9612,-0.9484,-0.9484,-0.9484,-0.9484,-0.9484,-0.9484,-0.9484,-0.9484,-0.9484,-0.9484,-0.9484,-0.9484,-0.9484,-0.9484,-0.9484,-0.9484,-0.9484,-0.9484,-0.9484,-0.9484,0.0,0.0,0.0,0.0,0.0,0.0,0.0,0.0,0.0,0.0,0.0,0.0,0.0,0.0,0.0,0.0,0.0,0.0,0.0,0.0,0.0,0.0,0.0,0.0,0.0,0.0,0.0,0.0,-1.4077,-1.4077,-1.4077,-1.4077,-1.4077,-1.4077,-1.4077,-1.4077,-1.4077,-1.4136,-1.4165,-1.4165,-1.4287,-1.4566,-1.4929,-1.4929,-1.5259,-1.574,-1.5536,-1.542,-1.542,-1.541,-1.541,-1.541,-1.541,-1.541,-1.541,-1.541,-1.541,-1.541,-1.541,-1.5449,-1.5498,-1.5498,-1.5498,-1.5498,-1.5498,-1.5459,-1.541,-1.541,-1.541,-1.5362,-1.5205,-1.5098,-1.497,-1.4775,-1.4616,-1.4515,-1.4515,-1.4515,-1.4515,-1.4515,-1.3821,-1.3191,-1.3122,-1.1725,-1.0624,-1.0624,-1.0624,-1.0624,-1.0624,-1.0624,-1.0308,-0.9612,-0.9484,-0.9484,-0.9484,-0.9484,-0.9484,-0.9484,-0.9484,-0.9484,-0.9484,-0.9484,-0.9484,-0.9484,-0.9484,-0.9484,-0.9484,-0.9484,-0.9484,-0.9484,-0.9484,-0.9484,0.0,0.0,0.0,0.0,0.0,0.0,0.0,0.0,0.0,0.0,0.0,0.0,0.0,0.0,0.0,0.0,0.0,0.0,0.0,0.0,0.0,0.0,0.0,0.0,0.0,0.0,0.0,0.0,-1.3437,-1.3437,-1.3437,-1.3437,-1.3437,-1.3437,-1.3437,-1.3437,-1.3437,-1.3662,-1.3896,-1.4077,-1.4077,-1.4238,-1.4424,-1.4424,-1.4851,-1.5546,-1.542,-1.541,-1.541,-1.541,-1.541,-1.541,-1.541,-1.541,-1.541,-1.541,-1.541,-1.541,-1.541,-1.541,-1.541,-1.541,-1.541,-1.541,-1.541,-1.541,-1.541,-1.541,-1.5362,-1.5254,-1.5088,-1.497,-1.4784,-1.4616,-1.4565,-1.4515,-1.4515,-1.4515,-1.4387,-1.3881,-1.3442,-1.2879,-1.1903,-1.1115,-1.0624,-1.0624,-1.0624,-1.0624,-1.0624,-1.0624,-1.0308,-0.9612,-0.9484,-0.9484,-0.9484,-0.9484,-0.9484,-0.9484,-0.9484,-0.9484,-0.9484,-0.9484,-0.9484,-0.9484,-0.9484,-0.9484,-0.9484,-0.9484,-0.9484,-0.9484,-0.9484,-0.9484,0.0,0.0,0.0,0.0,0.0,0.0,0.0,0.0,0.0,0.0,0.0,0.0,0.0,0.0,0.0,0.0,0.0,0.0,0.0,0.0,0.0,0.0,0.0,0.0,0.0,0.0,0.0,0.0,-1.2881,-1.2881,-1.2881,-1.2881,-1.2881,-1.2881,-1.2881,-1.2881,-1.2881,-1.3193,-1.3506,-1.3818,-1.3818,-1.3877,-1.3975,-1.3975,-1.4385,-1.5098,-1.5205,-1.5254,-1.5264,-1.5371,-1.541,-1.541,-1.541,-1.541,-1.541,-1.541,-1.541,-1.541,-1.541,-1.541,-1.541,-1.541,-1.541,-1.541,-1.541,-1.541,-1.541,-1.541,-1.5303,-1.5205,-1.5029,-1.4843,-1.4666,-1.4565,-1.4515,-1.4515,-1.4515,-1.4515,-1.4318,-1.3692,-1.3502,-1.3139,-1.1794,-1.1059,-1.0624,-1.0624,-1.0624,-1.0624,-1.0624,-1.0434,-1.018,-0.9798,-0.9804,-0.9804,-0.9804,-0.9612,-0.9484,-0.9484,-0.9484,-0.9484,-0.9484,-0.9484,-0.9484,-0.9484,-0.9484,-0.9484,-0.9484,-0.9484,-0.9484,-0.9484,-0.9484,-0.9484,0.0,0.0,0.0,0.0,0.0,0.0,0.0,0.0,0.0,0.0,0.0,0.0,0.0,0.0,0.0,0.0,0.0,0.0,0.0,0.0,0.0,0.0,0.0,0.0,0.0,0.0,0.0,0.0,-1.2881,-1.2881,-1.2881,-1.2881,-1.2881,-1.2881,-1.2881,-1.2881,-1.2881,-1.29,-1.293,-1.2939,-1.2939,-1.3154,-1.3545,-1.3545,-1.3779,-1.4165,-1.4639,-1.4814,-1.4844,-1.5244,-1.541,-1.541,-1.541,-1.541,-1.541,-1.541,-1.541,-1.541,-1.541,-1.541,-1.541,-1.541,-1.541,-1.541,-1.541,-1.541,-1.541,-1.541,-1.541,-1.5303,-1.4911,-1.4793,-1.4734,-1.4575,-1.4515,-1.4515,-1.4515,-1.4515,-1.4515,-1.4446,-1.4446,-1.4387,-1.4327,-1.2228,-1.0624,-1.0624,-1.0624,-1.0624,-1.0624,-0.9989,-0.9804,-1.0498,-1.0561,-1.0561,-1.0561,-0.9926,-0.9484,-0.9484,-0.9484,-0.9484,-0.9484,-0.9484,-0.9484,-0.9484,-0.9484,-0.9484,-0.9484,-0.9484,-0.9484,-0.9484,-0.9484,-0.9484,0.0,0.0,0.0,0.0,0.0,0.0,0.0,0.0,0.0,0.0,0.0,0.0,0.0,0.0,0.0,0.0,0.0,0.0,0.0,0.0,0.0,0.0,0.0,0.0,0.0,0.0,0.0,0.0,0.0,-1.2881,-1.2881,-1.2881,-1.2881,-1.2881,-1.2881,-1.2881,-1.2881,-1.2881,-1.2881,-1.2881,-1.2881,-1.2959,-1.3105,-1.3105,-1.3184,-1.335,-1.3779,-1.4121,-1.4375,-1.4531,-1.4756,-1.501,-1.501,-1.5176,-1.541,-1.541,-1.541,-1.541,-1.541,-1.541,-1.541,-1.541,-1.541,-1.541,-1.541,-1.541,-1.541,-1.541,-1.541,-1.5352,-1.5245,-1.4902,-1.4565,-1.4515,-1.4515,-1.4515,-1.4515,-1.4515,-1.4318,-1.3752,-1.413,-1.3959,-1.229,-1.124,-1.0624,-1.0624,-1.0624,-1.0624,-1.0624,-1.0371,-1.0308,-1.0561,-1.0624,-1.0434,-0.9926,-0.967,-0.9484,-0.9484,-0.9484,-0.9484,-0.9484,-0.9484,-0.9484,-0.9484,-0.9484,-0.9484,-0.9484,-0.9484,-0.9484,-0.9484,-0.9484,-0.9484,0.0,0.0,0.0,0.0,0.0,0.0,0.0,0.0,0.0,0.0,0.0,0.0,0.0,0.0,0.0,0.0,0.0,0.0,0.0,0.0,0.0,0.0,0.0,0.0,0.0,0.0,0.0,0.0,0.0,0.0,-1.2881,-1.2881,-1.2881,-1.2881,-1.2881,-1.2881,-1.2881,-1.2881,-1.2881,-1.2881,-1.2881,-1.2881,-1.2881,-1.2881,-1.2881,-1.29,-1.3174,-1.3535,-1.3936,-1.4019,-1.4307,-1.457,-1.457,-1.4736,-1.498,-1.498,-1.5078,-1.5205,-1.5205,-1.5293,-1.541,-1.541,-1.541,-1.541,-1.541,-1.541,-1.541,-1.541,-1.541,-1.541,-1.541,-1.4961,-1.4515,-1.4515,-1.4515,-1.4515,-1.4515,-1.4515,-1.4258,-1.3373,-1.3881,-1.3649,-1.1052,-1.0624,-1.0624,-1.0624,-1.0624,-1.0624,-1.0624,-1.0624,-1.0624,-1.0624,-1.0624,-1.0308,-0.9548,-0.9484,-0.9484,-0.9484,-0.9484,-0.9484,-0.9484,-0.9484,-0.9484,-0.9484,-0.9484,-0.9484,-0.9484,-0.9484,-0.9484,-0.9484,-0.9484,-0.935,0.0,0.0,0.0,0.0,0.0,0.0,0.0,0.0,0.0,0.0,0.0,0.0,0.0,0.0,0.0,0.0,0.0,0.0,0.0,0.0,0.0,0.0,0.0,0.0,0.0,0.0,0.0,0.0,-1.2881,-1.2881,-1.2881,-1.2881,-1.2881,-1.2881,-1.2881,-1.2881,-1.2881,-1.2881,-1.2881,-1.2881,-1.2881,-1.2881,-1.2881,-1.2881,-1.2881,-1.2881,-1.2881,-1.3115,-1.3516,-1.3873,-1.4048,-1.4058,-1.4058,-1.4068,-1.4077,-1.4077,-1.4404,-1.4766,-1.4766,-1.5029,-1.5371,-1.5371,-1.5391,-1.541,-1.541,-1.541,-1.541,-1.541,-1.541,-1.541,-1.5352,-1.4961,-1.4515,-1.4515,-1.4515,-1.4515,-1.4515,-1.4515,-1.4258,-1.3373,-1.3881,-1.364,-1.1059,-1.0624,-1.0624,-1.0624,-1.0624,-1.0624,-1.0624,-1.0624,-1.0624,-1.0624,-1.0624,-1.0308,-0.9548,-0.9484,-0.9484,-0.9484,-0.9484,-0.9484,-0.9484,-0.9484,-0.9484,-0.9484,-0.9472,-0.9472,-0.9472,-0.9478,-0.9484,-0.9484,-0.9484,-0.9087,-0.4022,0.0,0.0,0.0,0.0,0.0,0.0,0.0,0.0,0.0,0.0,0.0,0.0,0.0,0.0,0.0,0.0,0.0,0.0,0.0,0.0,0.0,0.0,0.0,0.0,0.0,0.0,0.0,-1.2881,-1.2881,-1.2881,-1.2881,-1.2881,-1.2881,-1.2881,-1.2881,-1.2881,-1.2881,-1.2881,-1.2881,-1.2881,-1.2881,-1.2881,-1.2881,-1.2881,-1.2881,-1.2881,-1.2949,-1.3066,-1.3184,-1.3408,-1.3682,-1.3682,-1.3867,-1.4077,-1.4077,-1.4155,-1.4307,-1.4307,-1.4394,-1.4437,-1.4437,-1.4902,-1.541,-1.541,-1.541,-1.541,-1.541,-1.541,-1.5303,-1.4852,-1.4625,-1.4515,-1.4515,-1.4515,-1.4515,-1.4515,-1.4515,-1.413,-1.294,-1.2879,-1.252,-1.087,-1.0624,-1.0624,-1.0624,-1.0624,-1.0624,-1.0624,-1.0624,-1.0624,-1.0624,-1.0624,-1.0308,-0.9548,-0.9484,-0.9484,-0.9484,-0.9484,-0.9484,-0.9484,-0.9484,-0.9484,-0.9484,-0.9286,-0.9184,-0.9184,-0.9382,-0.9484,-0.9484,-0.9017,-0.8161,0.0,0.0,0.0,0.0,0.0,0.0,0.0,0.0,0.0,0.0,0.0,0.0,0.0,0.0,0.0,0.0,0.0,0.0,0.0,0.0,0.0,0.0,0.0,0.0,0.0,-1.2881,-1.2881,-1.2881,-1.2881,-1.2881,-1.2881,-1.2881,-1.2881,-1.2881,-1.2881,-1.2881,-1.2881,-1.2881,-1.2881,-1.2881,-1.2881,-1.2881,-1.2881,-1.2881,-1.2881,-1.2881,-1.2881,-1.2881,-1.2881,-1.2881,-1.3027,-1.3242,-1.3242,-1.3389,-1.3613,-1.3613,-1.3721,-1.3877,-1.3877,-1.3984,-1.4077,-1.4077,-1.4394,-1.4756,-1.499,-1.4971,-1.4883,-1.4883,-1.4714,-1.4516,-1.4473,-1.4258,-1.4084,-1.4433,-1.4515,-1.4515,-1.4515,-1.364,-1.2781,-1.2573,-1.2081,-1.1476,-1.0744,-1.0624,-1.0624,-1.0624,-1.0624,-1.0624,-1.0624,-1.0624,-1.0624,-1.0624,-1.0624,-1.0434,-0.9989,-0.9798,-0.967,-0.9484,-0.9484,-0.9484,-0.9484,-0.937,-0.9292,-0.9319,-0.9083,-0.8999,-0.9071,-0.9106,-0.9184,-0.9262,-0.8431,-0.7577,0.0,0.0,0.0,0.0,0.0,0.0,-0.5706,-0.5911,0.0,0.0,0.0,0.0,0.0,0.0,0.0,0.0,0.0,0.0,0.0,0.0,0.0,0.0,0.0,0.0,-1.2782,-1.2782,-1.2754,-1.2803,-1.2852,-1.2881,-1.2881,-1.2881,-1.2881,-1.2881,-1.2881,-1.2881,-1.2881,-1.2881,-1.2881,-1.2881,-1.2881,-1.2881,-1.2881,-1.2881,-1.2881,-1.2881,-1.2881,-1.2881,-1.2881,-1.2881,-1.2881,-1.2881,-1.2881,-1.2881,-1.2881,-1.2881,-1.3115,-1.3437,-1.3437,-1.3682,-1.3941,-1.3941,-1.3867,-1.3789,-1.4238,-1.4238,-1.4019,-1.3961,-1.3578,-1.3323,-1.4057,-1.3699,-1.3387,-1.4295,-1.4515,-1.4446,-1.4139,-1.2228,-1.0926,-1.2081,-1.1351,-1.0624,-1.0624,-1.0624,-1.0624,-1.0624,-1.0624,-1.0624,-1.0624,-1.0624,-1.0624,-1.0624,-1.0624,-1.0624,-1.0624,-1.0116,-0.9705,-0.9458,-0.9394,-0.9394,-0.9394,-0.9154,-0.9047,-0.8975,-0.8794,-0.877,-0.8884,-0.8788,-0.8818,-0.8914,-0.798,-0.7469,0.0,0.0,-0.5024,0.0,0.0,0.0,0.0,-0.5433,0.0,0.0,0.0,0.0,0.0,0.0,0.0,0.0,0.0,0.0,0.0,0.0,0.0,0.0,0.0,0.0,-1.1861,-1.1861,-1.1973,-1.2334,-1.2686,-1.2881,-1.2881,-1.2881,-1.2881,-1.2881,-1.2881,-1.2881,-1.2881,-1.2881,-1.2881,-1.2881,-1.2881,-1.2881,-1.2881,-1.2881,-1.2881,-1.2881,-1.2881,-1.2881,-1.2881,-1.2881,-1.2881,-1.2881,-1.2881,-1.2881,-1.2881,-1.2881,-1.293,-1.2998,-1.2998,-1.3057,-1.3125,-1.3125,-1.332,-1.3506,-1.3281,-1.3496,-1.3659,-1.2991,-1.2566,-1.2351,-1.2507,-1.2434,-1.2681,-1.4157,-1.4515,-1.389,-1.1794,-1.0933,-1.0688,-1.0926,-1.0744,-1.0624,-1.0624,-1.0624,-1.0624,-1.0624,-1.0624,-1.0624,-1.0624,-1.0624,-1.0624,-1.0624,-1.0624,-1.0624,-1.0624,-0.9572,-0.895,-0.8837,-0.8837,-0.8837,-0.8837,-0.8783,-0.8747,-0.8729,-0.8619,-0.8407,-0.8105,-0.8489,-0.8693,-0.8735,-0.8696,-0.7861,0.0,0.0,-0.5338,-0.5451,0.0,0.0,0.0,0.0,-0.6065,0.0,0.0,0.0,0.0,0.0,0.0,0.0,0.0,0.0,0.0,0.0,0.0,0.0,0.0,0.0,-1.123,-1.1469,-1.1694,-1.1875,-1.21,-1.2263,-1.2263,-1.2432,-1.2559,-1.2559,-1.2773,-1.2881,-1.2881,-1.2881,-1.2881,-1.2881,-1.2881,-1.2881,-1.2881,-1.2881,-1.2881,-1.2881,-1.2881,-1.2881,-1.2881,-1.2881,-1.2881,-1.2881,-1.2881,-1.2881,-1.2881,-1.2881,-1.2881,-1.2881,-1.2881,-1.2881,-1.2881,-1.2881,-1.3027,-1.3154,-1.2939,-1.3027,-1.3092,-1.2556,-1.2274,-1.2175,-1.2126,-1.2076,-1.2278,-1.3103,-1.2453,-1.1326,-0.9969,-0.9686,-0.9686,-0.9686,-0.9686,-0.9873,-1.0524,-1.0624,-1.0624,-1.0624,-1.0624,-1.0624,-1.0624,-1.0624,-1.0624,-1.0624,-1.0624,-1.0434,-1.0053,-0.8983,-0.8397,-0.8565,-0.8731,-0.883,-0.8681,-0.8713,-0.8643,-0.8459,-0.8263,-0.8075,-0.7901,-0.8165,-0.8291,-0.8291,-0.8381,-0.7954,0.0,0.0,0.0,0.0,0.0,-0.6416,0.0,0.0,0.0,-0.724,0.0,0.0,0.0,0.0,0.0,0.0,0.0,0.0,0.0,0.0,0.0,0.0,0.0,0.0,0.0,-1.0977,-1.1302,-1.1469,-1.14,-1.143,-1.1596,-1.1904,-1.21,-1.21,-1.2529,-1.2754,-1.2754,-1.2842,-1.2881,-1.2881,-1.2881,-1.2881,-1.2881,-1.2881,-1.2881,-1.2881,-1.2881,-1.2881,-1.2881,-1.2881,-1.2881,-1.2881,-1.2881,-1.2881,-1.2881,-1.2881,-1.2881,-1.2881,-1.2881,-1.2881,-1.2881,-1.2881,-1.2881,-1.2881,-1.2881,-1.2832,-1.2627,-1.2431,-1.2323,-1.2283,-1.2126,-1.2076,-1.1977,-1.156,-1.0087,-0.8804,-0.8804,-0.8804,-0.8804,-0.8804,-0.8804,-0.9112,-1.006,-1.0221,-1.0221,-1.0221,-1.0221,-1.0221,-1.0221,-1.0221,-1.0221,-1.0221,-1.0221,-0.9975,-0.924,-0.8393,-0.8002,-0.8268,-0.865,-0.8792,-0.8646,-0.8676,-0.8521,-0.8174,-0.8008,-0.7901,-0.7901,-0.7901,-0.7901,-0.7901,-0.7901,-0.7901,0.0,0.0,0.0,0.0,-0.724,0.0,0.0,0.0,-0.7269,-0.6664,0.0,0.0,0.0,0.0,0.0,0.0,0.0,0.0,0.0,0.0,0.0,0.0,0.0,0.0,0.0,-0.9787,-1.0166,-1.0928,-1.0635,-1.0802,-1.1567,-1.1655,-1.1685,-1.1685,-1.207,-1.2305,-1.2305,-1.2686,-1.2881,-1.2881,-1.2881,-1.2881,-1.2881,-1.2881,-1.2881,-1.2881,-1.2881,-1.2881,-1.2881,-1.2881,-1.2881,-1.2881,-1.2881,-1.2881,-1.2881,-1.2881,-1.2881,-1.2881,-1.2881,-1.2881,-1.2881,-1.2881,-1.2881,-1.2881,-1.2881,-1.2832,-1.2686,-1.2529,-1.2372,-1.2283,-1.2126,-1.2076,-1.161,-0.9629,-0.8962,-0.8804,-0.8804,-0.8804,-0.8804,-0.8804,-0.8804,-0.8851,-0.8985,-0.9005,-0.9005,-0.9005,-0.9005,-0.9005,-0.9005,-0.9005,-0.9005,-0.9005,-0.9005,-0.8734,-0.8136,-0.7967,-0.7901,-0.7955,-0.829,-0.8435,-0.8416,-0.8444,-0.8312,-0.7955,-0.7901,-0.7901,-0.7901,-0.7901,-0.7901,-0.7901,-0.7901,-0.7901,0.0,0.0,0.0,0.0,0.0,0.0,-0.713,0.0,-0.707,0.0,0.0,0.0,0.0,0.0,0.0,0.0,0.0,0.0,0.0,0.0,0.0,0.0,0.0,0.0,0.0,0.0,0.0,0.0,-0.9414,-0.9551,-1.04,-1.0684,-1.0928,-1.1172,-1.1611,-1.1963,-1.218,-1.2412,-1.2627,-1.2881,-1.2881,-1.2881,-1.2881,-1.2881,-1.2881,-1.2881,-1.2881,-1.2881,-1.2881,-1.2881,-1.2881,-1.2881,-1.2881,-1.2881,-1.2881,-1.2881,-1.2881,-1.2881,-1.2881,-1.2881,-1.2881,-1.2881,-1.2881,-1.2881,-1.2832,-1.2735,-1.2676,-1.2431,-1.2323,-1.2283,-1.2126,-1.2076,-1.156,-0.9316,-0.8804,-0.9166,-1.0446,-1.0694,-1.0344,-0.9068,-0.8804,-0.8804,-0.8804,-0.8804,-0.8804,-0.8804,-0.8804,-0.8804,-0.8804,-0.8804,-0.8804,-0.8804,-0.8804,-0.8699,-0.8434,-0.8434,-0.8434,-0.8434,-0.854,-0.8639,-0.8639,-0.8639,-0.8593,-0.8434,-0.8434,-0.8275,-0.7901,-0.7901,-0.7901,-0.7901,-0.7901,-0.7901,-0.7191,0.0,0.0,0.0,0.0,0.0,0.0,0.0,0.0,0.0,0.0,0.0,0.0,0.0,0.0,0.0,0.0,0.0,0.0,0.0,0.0,0.0,0.0,0.0,0.0,0.0,0.0,0.0,0.0,-0.8398,-0.9248,-0.9805,-1.0244,-1.0547,-1.1094,-1.1543,-1.182,-1.1982,-1.2207,-1.2567,-1.2646,-1.2705,-1.2705,-1.2832,-1.2881,-1.2881,-1.2881,-1.2881,-1.2881,-1.2881,-1.2881,-1.2881,-1.2881,-1.2881,-1.2881,-1.2881,-1.2881,-1.2881,-1.2881,-1.2881,-1.2881,-1.2881,-1.2881,-1.2881,-1.2783,-1.2735,-1.2676,-1.2421,-1.2323,-1.2283,-1.2126,-1.2076,-1.1719,-1.0087,-0.9732,-1.0138,-1.1769,-1.2076,-1.146,-0.9218,-0.8804,-0.8804,-0.8804,-0.8804,-0.8804,-0.8804,-0.8804,-0.8804,-0.8804,-0.8804,-0.8804,-0.8804,-0.8804,-0.8804,-0.8804,-0.8804,-0.8804,-0.8804,-0.8804,-0.8804,-0.8804,-0.8804,-0.8804,-0.8804,-0.8804,-0.854,-0.8062,-0.8008,-0.7955,-0.7901,-0.7901,-0.7901,0.0,0.0,0.0,-0.7424,0.0,0.0,0.0,0.0,-0.7549,0.0,0.0,0.0,0.0,0.0,0.0,0.0,0.0,0.0,0.0,0.0,0.0,0.0,0.0,0.0,0.0,0.0,0.0,0.0,0.0,0.0,-0.8401,-0.9209,-0.9622,-0.9631,-1.0488,-1.0937,-1.0947,-1.1367,-1.1636,-1.1655,-1.2041,-1.2209,-1.2219,-1.2686,-1.2881,-1.2881,-1.2881,-1.2881,-1.2881,-1.2881,-1.2881,-1.2881,-1.2881,-1.2881,-1.2881,-1.2881,-1.2881,-1.2881,-1.2881,-1.2881,-1.2881,-1.2881,-1.2881,-1.2881,-1.2881,-1.2783,-1.2676,-1.2618,-1.2471,-1.2283,-1.2126,-1.2076,-1.2076,-1.2026,-1.1977,-1.2026,-1.2076,-1.2076,-1.146,-0.9218,-0.8804,-0.8804,-0.8804,-0.8804,-0.8804,-0.8804,-0.8804,-0.8804,-0.8804,-0.8804,-0.8804,-0.8804,-0.8804,-0.8804,-0.8804,-0.8804,-0.8804,-0.8804,-0.8804,-0.8804,-0.8804,-0.8804,-0.8804,-0.8804,-0.8804,-0.8646,-0.8374,-0.8268,-0.8115,-0.7901,-0.7901,-0.7901,0.0,0.0,-0.9175,-0.8193,0.0,0.0,0.0,0.0,0.0,0.0,0.0,0.0,0.0,0.0,0.0,0.0,0.0,0.0,0.0,0.0,0.0,0.0,0.0,0.0,0.0,0.0,0.0,0.0,-0.6719,0.0,0.0,-0.875,-0.931,-0.9583,-1.0195,-1.0625,-1.0908,-1.1055,-1.1279,-1.1606,-1.1763,-1.1943,-1.219,-1.2383,-1.2607,-1.2881,-1.2881,-1.2881,-1.2881,-1.2881,-1.2881,-1.2881,-1.2881,-1.2881,-1.2881,-1.2881,-1.2881,-1.2881,-1.2881,-1.2881,-1.2881,-1.2881,-1.2881,-1.2881,-1.2774,-1.2735,-1.2676,-1.2471,-1.2421,-1.2382,-1.2175,-1.2076,-1.2076,-1.2076,-1.2076,-1.1868,-1.1141,-1.0431,-0.9932,-0.9865,-0.9263,-0.8804,-0.8804,-0.8804,-0.8804,-0.8804,-0.8804,-0.8804,-0.8804,-0.8804,-0.8804,-0.8804,-0.8804,-0.8804,-0.8804,-0.8804,-0.8804,-0.8804,-0.8804,-0.8804,-0.8804,-0.8804,-0.8804,-0.8804,-0.8639,-0.8427,-0.8275,-0.8115,-0.7955,-0.7901,-0.7901,-0.7901,-0.9217,-0.9518,0.0,-0.8638,-0.829,0.0,-0.7266,0.0,0.0,0.0,0.0,0.0,0.0,0.0,0.0,0.0,0.0,0.0,0.0,0.0,0.0,0.0,0.0,0.0,0.0,0.0,-0.5664,-0.5905,0.0,0.0,0.0,0.0,-0.9131,-0.9359,-0.998,-1.041,-1.0684,-1.0684,-1.083,-1.1145,-1.1302,-1.1484,-1.1723,-1.1924,-1.2236,-1.2646,-1.2646,-1.2744,-1.2881,-1.2881,-1.2881,-1.2881,-1.2881,-1.2881,-1.2881,-1.2881,-1.2881,-1.2881,-1.2881,-1.2881,-1.2881,-1.2881,-1.2881,-1.2881,-1.2783,-1.2676,-1.2529,-1.2332,-1.2332,-1.2323,-1.2126,-1.2076,-1.2017,-1.161,-1.161,-1.156,-1.1091,-1.0285,-0.9725,-1.0269,-1.0174,-0.9725,-0.8962,-0.8804,-0.8804,-0.8804,-0.8804,-0.8804,-0.8804,-0.8804,-0.8804,-0.8804,-0.8804,-0.8804,-0.8804,-0.8804,-0.8804,-0.8804,-0.8804,-0.8804,-0.8804,-0.8804,-0.8804,-0.8804,-0.8639,-0.848,-0.8321,-0.8215,-0.8109,-0.8055,-0.8055,-0.7955]},{"header":{"parameterUnit":"m.s-1","parameterCategory":1,"la1":30.6,"la2":29.2853,"lo1":-89.7004,"lo2":-87.6739,"dy":0.0162,"dx":0.0183,"nx":112,"ny":82,"refTime":"2024-07-12T18:00:00:Z","depth":0,"parameterNumber":3,"parameterNumberName":"V-component_of_WINDS"},"data":[0.0,0.0,0.0,0.0,0.0,0.0,0.0,0.0,0.0,0.0,0.0,0.0,0.0,0.0,0.0,0.0,0.0,0.0,0.0,0.0,0.0,0.0,0.0,0.0,0.0,0.0,0.0,0.0,0.0,0.0,0.0,0.0,0.0,0.0,0.0,0.0,0.0,0.0,0.0,0.0,0.0,0.0,0.0,0.0,0.0,0.0,0.0,0.0,0.0,0.0,0.0,0.0,0.0,0.0,0.0,0.0,0.0,0.0,0.0,0.0,0.0,0.0,0.0,0.0,0.0,0.0,0.0,0.0,0.0,0.0,0.0,0.0,0.0,0.0,0.0,0.0,0.0,0.0,0.0,0.0,0.0,0.0,0.0,0.0,0.0,0.0,0.0,0.0,0.0,0.0,0.0,-1.9625,-2.2447,-2.4151,-2.4016,-2.3906,-2.219,-1.834,0.0,0.0,0.0,0.0,0.0,0.0,0.0,0.0,0.0,0.0,0.0,0.0,0.0,0.0,0.0,0.0,0.0,0.0,0.0,0.0,0.0,0.0,0.0,0.0,0.0,0.0,0.0,0.0,0.0,0.0,0.0,0.0,0.0,0.0,0.0,0.0,0.0,0.0,0.0,0.0,0.0,0.0,0.0,0.0,0.0,0.0,0.0,0.0,0.0,0.0,0.0,0.0,0.0,0.0,0.0,0.0,0.0,0.0,0.0,0.0,0.0,0.0,0.0,0.0,0.0,0.0,0.0,0.0,0.0,0.0,0.0,0.0,0.0,0.0,0.0,0.0,0.0,0.0,0.0,0.0,0.0,0.0,0.0,0.0,0.0,0.0,0.0,0.0,0.0,0.0,0.0,0.0,0.0,0.0,0.0,0.0,0.0,0.0,0.0,0.0,0.0,0.0,0.0,0.0,-1.755,-2.1898,-2.3455,-2.4151,-2.4016,-2.349,-2.1953,-1.917,0.0,0.0,0.0,0.0,0.0,0.0,0.0,0.0,0.0,0.0,0.0,0.0,0.0,0.0,0.0,0.0,0.0,0.0,0.0,0.0,0.0,0.0,0.0,0.0,0.0,0.0,0.0,0.0,0.0,0.0,0.0,0.0,0.0,0.0,0.0,0.0,0.0,0.0,0.0,0.0,0.0,0.0,0.0,0.0,0.0,0.0,0.0,0.0,0.0,0.0,0.0,0.0,0.0,0.0,0.0,0.0,0.0,0.0,0.0,0.0,0.0,0.0,0.0,0.0,0.0,0.0,0.0,0.0,0.0,0.0,0.0,0.0,0.0,0.0,0.0,0.0,0.0,0.0,0.0,0.0,0.0,0.0,0.0,0.0,0.0,0.0,0.0,0.0,0.0,0.0,0.0,0.0,0.0,0.0,0.0,0.0,0.0,0.0,0.0,0.0,0.0,0.0,0.0,-1.7183,-1.9179,-2.318,-2.395,-2.417,-2.4074,-2.3362,-2.1679,-1.8731,-1.7009,0.0,0.0,0.0,0.0,0.0,0.0,0.0,0.0,0.0,0.0,0.0,0.0,0.0,0.0,0.0,0.0,0.0,0.0,0.0,0.0,0.0,0.0,0.0,0.0,0.0,0.0,0.0,0.0,0.0,0.0,0.0,0.0,0.0,0.0,0.0,0.0,0.0,0.0,0.0,0.0,0.0,0.0,0.0,0.0,0.0,0.0,0.0,0.0,0.0,0.0,0.0,0.0,0.0,0.0,0.0,0.0,0.0,0.0,0.0,0.0,0.0,0.0,0.0,0.0,0.0,0.0,0.0,0.0,0.0,0.0,0.0,0.0,0.0,0.0,0.0,0.0,0.0,0.0,0.0,0.0,0.0,0.0,0.0,0.0,0.0,0.0,0.0,0.0,0.0,0.0,0.0,0.0,0.0,0.0,0.0,0.0,0.0,0.0,0.0,0.0,0.0,0.0,-1.9418,-2.0996,-2.3896,-2.419,-2.417,-2.4132,-2.3033,-2.1094,-1.8182,-1.6155,0.0,0.0,0.0,0.0,0.0,0.0,0.0,0.0,0.0,0.0,0.0,0.0,0.0,0.0,0.0,0.0,0.0,0.0,0.0,0.0,0.0,0.0,0.0,0.0,0.0,0.0,0.0,0.0,0.0,0.0,0.0,0.0,0.0,0.0,0.0,0.0,0.0,0.0,0.0,0.0,0.0,0.0,0.0,0.0,0.0,0.0,0.0,0.0,0.0,0.0,0.0,0.0,0.0,0.0,0.0,0.0,0.0,0.0,0.0,0.0,0.0,0.0,0.0,0.0,0.0,0.0,0.0,0.0,0.0,0.0,0.0,0.0,0.0,0.0,0.0,0.0,0.0,0.0,0.0,0.0,0.0,0.0,0.0,0.0,0.0,0.0,0.0,0.0,0.0,0.0,0.0,0.0,0.0,0.0,0.0,0.0,0.0,0.0,0.0,0.0,0.0,0.0,-1.9748,-2.2299,-2.4025,-2.419,-2.419,-2.419,-2.2025,-1.9918,-1.81,-1.5148,0.0,0.0,0.0,0.0,0.0,0.0,0.0,0.0,0.0,0.0,0.0,0.0,0.0,0.0,0.0,0.0,0.0,0.0,0.0,0.0,0.0,0.0,0.0,0.0,0.0,0.0,0.0,0.0,0.0,0.0,0.0,0.0,0.0,0.0,0.0,0.0,0.0,0.0,0.0,0.0,0.0,0.0,0.0,0.0,0.0,0.0,0.0,0.0,0.0,0.0,0.0,0.0,0.0,0.0,0.0,0.0,0.0,0.0,0.0,0.0,0.0,0.0,0.0,0.0,0.0,0.0,0.0,0.0,0.0,0.0,0.0,0.0,0.0,0.0,0.0,0.0,0.0,0.0,0.0,0.0,0.0,0.0,0.0,0.0,0.0,0.0,0.0,0.0,0.0,0.0,0.0,0.0,0.0,0.0,0.0,0.0,0.0,0.0,0.0,0.0,0.0,0.0,-1.8879,-2.1253,0.0,-2.419,-2.419,-2.419,-2.2409,-2.0205,-1.7537,0.0,0.0,0.0,0.0,0.0,0.0,0.0,0.0,0.0,0.0,0.0,0.0,0.0,0.0,0.0,0.0,0.0,0.0,0.0,0.0,0.0,0.0,0.0,0.0,0.0,0.0,0.0,0.0,0.0,0.0,0.0,0.0,0.0,0.0,0.0,0.0,0.0,0.0,0.0,0.0,0.0,0.0,0.0,0.0,0.0,0.0,0.0,0.0,0.0,0.0,0.0,0.0,0.0,0.0,0.0,0.0,0.0,0.0,0.0,0.0,0.0,0.0,0.0,0.0,0.0,0.0,0.0,0.0,0.0,0.0,0.0,0.0,0.0,0.0,0.0,0.0,0.0,0.0,0.0,0.0,0.0,0.0,0.0,0.0,0.0,0.0,0.0,0.0,0.0,0.0,0.0,0.0,0.0,0.0,0.0,0.0,0.0,0.0,0.0,0.0,0.0,0.0,-1.6645,-1.8801,-2.1143,0.0,-2.419,-2.419,-2.419,-2.2226,-1.9853,-1.718,0.0,0.0,0.0,0.0,0.0,0.0,0.0,0.0,0.0,0.0,0.0,0.0,0.0,0.0,0.0,0.0,0.0,0.0,0.0,0.0,0.0,0.0,0.0,0.0,0.0,0.0,0.0,0.0,0.0,0.0,0.0,0.0,0.0,0.0,0.0,0.0,0.0,0.0,0.0,0.0,0.0,0.0,0.0,0.0,0.0,0.0,0.0,0.0,0.0,0.0,0.0,0.0,0.0,0.0,0.0,0.0,0.0,0.0,0.0,0.0,0.0,0.0,0.0,0.0,0.0,0.0,0.0,0.0,0.0,0.0,0.0,0.0,0.0,0.0,0.0,0.0,0.0,0.0,0.0,0.0,0.0,0.0,0.0,0.0,0.0,0.0,0.0,0.0,0.0,0.0,0.0,0.0,0.0,0.0,0.0,0.0,0.0,0.0,0.0,0.0,0.0,0.0,-1.6781,-1.981,-2.2427,-2.4025,-2.419,-2.4227,-2.4227,-2.1215,-1.8673,0.0,0.0,0.0,0.0,0.0,0.0,0.0,0.0,0.0,0.0,0.0,0.0,0.0,0.0,0.0,0.0,0.0,0.0,0.0,0.0,0.0,0.0,0.0,0.0,0.0,0.0,0.0,0.0,0.0,0.0,0.0,0.0,0.0,0.0,0.0,0.0,0.0,0.0,0.0,0.0,0.0,0.0,0.0,0.0,0.0,0.0,0.0,0.0,0.0,0.0,0.0,0.0,0.0,0.0,0.0,0.0,0.0,0.0,0.0,0.0,0.0,0.0,0.0,0.0,0.0,0.0,0.0,0.0,0.0,0.0,0.0,0.0,0.0,0.0,0.0,0.0,0.0,0.0,0.0,0.0,0.0,0.0,0.0,0.0,0.0,0.0,0.0,0.0,0.0,0.0,0.0,0.0,0.0,0.0,0.0,0.0,0.0,0.0,0.0,0.0,0.0,0.0,0.0,-1.6873,-1.9926,-2.256,-2.4171,-2.4461,-2.4547,-2.4547,-2.2585,-2.0185,-1.7449,0.0,0.0,0.0,0.0,0.0,0.0,0.0,0.0,0.0,0.0,0.0,0.0,0.0,0.0,0.0,0.0,0.0,0.0,0.0,0.0,0.0,0.0,0.0,0.0,0.0,0.0,0.0,0.0,0.0,0.0,0.0,0.0,0.0,0.0,0.0,0.0,0.0,0.0,0.0,0.0,0.0,0.0,0.0,0.0,0.0,0.0,0.0,0.0,0.0,0.0,0.0,0.0,0.0,0.0,0.0,0.0,0.0,0.0,0.0,0.0,0.0,0.0,0.0,0.0,0.0,0.0,0.0,0.0,0.0,0.0,0.0,0.0,0.0,0.0,0.0,0.0,0.0,0.0,0.0,0.0,0.0,0.0,0.0,0.0,0.0,0.0,0.0,0.0,0.0,0.0,0.0,0.0,0.0,0.0,0.0,0.0,0.0,0.0,0.0,0.0,0.0,0.0,-1.7001,-2.0019,-2.2654,-2.4342,-2.4626,-2.4707,-2.4707,-2.3153,-2.096,-1.8065,0.0,0.0,0.0,0.0,0.0,0.0,0.0,0.0,0.0,0.0,0.0,0.0,0.0,0.0,0.0,0.0,0.0,0.0,0.0,0.0,0.0,0.0,0.0,0.0,0.0,0.0,0.0,0.0,0.0,0.0,0.0,0.0,0.0,0.0,0.0,0.0,0.0,0.0,0.0,0.0,0.0,0.0,0.0,0.0,0.0,0.0,0.0,0.0,0.0,0.0,0.0,0.0,0.0,0.0,0.0,0.0,0.0,0.0,0.0,0.0,0.0,0.0,0.0,0.0,0.0,0.0,0.0,0.0,0.0,0.0,0.0,0.0,0.0,0.0,0.0,0.0,0.0,0.0,0.0,0.0,0.0,0.0,0.0,0.0,0.0,0.0,0.0,0.0,0.0,0.0,0.0,0.0,0.0,0.0,0.0,0.0,0.0,0.0,0.0,0.0,0.0,0.0,-1.7242,-2.0143,-2.27,-2.4504,-2.4738,-2.4753,-2.4753,-2.3286,-2.1318,-1.889,0.0,0.0,0.0,0.0,0.0,0.0,0.0,0.0,0.0,0.0,0.0,0.0,0.0,0.0,0.0,0.0,0.0,0.0,0.0,0.0,0.0,0.0,0.0,0.0,0.0,0.0,0.0,0.0,0.0,0.0,0.0,0.0,0.0,0.0,0.0,0.0,0.0,0.0,0.0,0.0,0.0,0.0,0.0,0.0,0.0,0.0,0.0,0.0,0.0,0.0,0.0,0.0,0.0,0.0,0.0,0.0,0.0,0.0,0.0,0.0,-1.3553,0.0,0.0,0.0,0.0,0.0,0.0,0.0,0.0,0.0,0.0,0.0,0.0,0.0,0.0,0.0,0.0,0.0,0.0,0.0,0.0,0.0,0.0,0.0,0.0,0.0,0.0,0.0,0.0,0.0,0.0,0.0,0.0,0.0,0.0,0.0,0.0,0.0,0.0,0.0,0.0,0.0,-1.7898,-2.05,-2.2797,-2.452,-2.4926,-2.5088,-2.5088,-2.4143,-2.2459,-1.9936,-1.8058,0.0,0.0,0.0,0.0,0.0,0.0,0.0,0.0,0.0,0.0,0.0,0.0,0.0,0.0,0.0,0.0,0.0,0.0,0.0,0.0,0.0,0.0,0.0,0.0,0.0,0.0,0.0,0.0,0.0,0.0,0.0,0.0,0.0,0.0,0.0,0.0,0.0,0.0,0.0,0.0,0.0,0.0,0.0,0.0,0.0,0.0,0.0,0.0,0.0,0.0,0.0,0.0,0.0,0.0,0.0,0.0,0.0,0.0,0.0,0.0,-1.4595,0.0,0.0,0.0,0.0,0.0,0.0,0.0,0.0,0.0,0.0,0.0,0.0,0.0,0.0,0.0,0.0,0.0,0.0,0.0,0.0,0.0,0.0,0.0,0.0,0.0,0.0,0.0,0.0,0.0,0.0,0.0,0.0,0.0,0.0,0.0,0.0,0.0,0.0,0.0,0.0,-1.8359,-2.1147,-2.3447,-2.4793,-2.5107,-2.5191,-2.5191,-2.4396,-2.3002,-2.0862,-1.9143,0.0,0.0,0.0,0.0,0.0,0.0,0.0,0.0,0.0,0.0,0.0,0.0,0.0,0.0,0.0,0.0,0.0,0.0,0.0,0.0,0.0,0.0,0.0,0.0,0.0,0.0,0.0,0.0,0.0,0.0,0.0,0.0,0.0,0.0,0.0,0.0,0.0,0.0,0.0,0.0,0.0,0.0,0.0,0.0,0.0,0.0,0.0,0.0,0.0,0.0,0.0,0.0,0.0,-2.3494,-2.2607,-2.0858,-1.8253,-1.8003,-1.9536,-1.8217,-1.7453,-1.7044,-1.5822,0.0,0.0,0.0,0.0,0.0,0.0,0.0,0.0,0.0,0.0,0.0,0.0,0.0,0.0,0.0,0.0,0.0,0.0,0.0,0.0,0.0,0.0,0.0,0.0,-2.0336,-2.0173,0.0,0.0,0.0,0.0,0.0,0.0,0.0,0.0,0.0,0.0,0.0,0.0,-1.9059,-2.1863,-2.4075,-2.503,-2.518,-2.5191,-2.5191,-2.453,-2.346,-2.1942,-2.026,-1.8264,0.0,0.0,0.0,0.0,0.0,0.0,0.0,0.0,0.0,0.0,0.0,0.0,0.0,0.0,0.0,0.0,0.0,0.0,0.0,0.0,0.0,0.0,0.0,0.0,0.0,0.0,0.0,0.0,0.0,0.0,0.0,0.0,-0.995,-1.0376,0.0,0.0,0.0,0.0,0.0,0.0,0.0,0.0,0.0,0.0,0.0,0.0,0.0,-1.8932,-2.1667,-2.2071,-2.2674,-2.3494,-2.3494,-2.3351,-2.3066,-2.2656,-2.262,-2.287,-2.2656,0.0,-1.8626,-1.9715,0.0,0.0,0.0,0.0,0.0,0.0,0.0,0.0,0.0,0.0,0.0,0.0,0.0,0.0,0.0,0.0,0.0,0.0,0.0,0.0,0.0,0.0,-2.291,-2.2347,-2.2799,-2.3035,0.0,-1.9716,-1.78,-1.7601,-1.646,0.0,0.0,0.0,0.0,0.0,0.0,0.0,-2.0589,-2.2507,-2.4018,-2.4853,-2.5101,-2.5191,-2.5191,-2.5096,-2.4618,-2.3632,-2.1989,-2.0279,-1.8474,-1.6055,0.0,0.0,0.0,0.0,0.0,0.0,0.0,0.0,0.0,0.0,0.0,0.0,0.0,0.0,0.0,0.0,0.0,0.0,0.0,0.0,0.0,0.0,0.0,0.0,0.0,0.0,0.0,0.0,0.0,-0.9702,-1.1208,-1.1399,-1.1309,-1.1352,0.0,0.0,0.0,0.0,0.0,0.0,0.0,0.0,0.0,-1.8036,-2.0243,-2.2086,-2.3476,-2.3494,-2.3494,-2.3494,-2.3494,-2.3939,-2.4766,-2.3909,-2.3494,-2.3494,-2.3494,-2.3708,-2.3993,-2.291,-2.1251,-1.9056,0.0,0.0,0.0,0.0,-1.4647,-1.7869,-2.0523,-2.2335,0.0,-2.3638,0.0,0.0,0.0,0.0,0.0,0.0,0.0,0.0,0.0,0.0,-2.4502,-2.4646,-2.4918,-2.5063,-2.478,-2.3279,-2.1516,0.0,-1.9013,-1.8211,-1.6953,0.0,0.0,0.0,0.0,0.0,-2.179,-2.3469,-2.4669,-2.5031,-2.5156,-2.5191,-2.5191,-2.5191,-2.4828,-2.3957,-2.3203,-2.1837,-1.9724,-1.8121,-1.6092,0.0,0.0,0.0,0.0,0.0,0.0,0.0,0.0,0.0,0.0,0.0,0.0,0.0,0.0,0.0,0.0,0.0,0.0,0.0,0.0,0.0,0.0,0.0,0.0,0.0,0.0,0.0,0.0,-1.1434,-1.2686,-1.2974,-1.3671,-1.389,0.0,0.0,0.0,0.0,0.0,0.0,-1.8297,-1.9289,-2.0299,-2.1323,-2.2758,-2.3494,-2.3494,-2.4296,-2.4688,-2.4688,-2.4688,-2.5294,-2.6389,-2.5247,-2.4688,-2.4688,-2.4688,-2.6025,-2.795,-2.4795,-2.3494,-2.3137,-1.9609,-1.7686,-1.695,-1.695,-1.9722,-2.3601,-2.4403,-2.476,-2.4759,-2.449,0.0,-2.4233,-2.4257,0.0,0.0,0.0,0.0,-2.3047,-2.4249,-2.4929,-2.5461,-2.6059,-2.6204,-2.6204,-2.6254,-2.5914,-2.4829,0.0,-2.153,-2.084,-1.9138,0.0,0.0,0.0,0.0,-2.2257,-2.2868,-2.4274,-2.5191,-2.5191,-2.5191,-2.5191,-2.5191,-2.5191,-2.4924,-2.4263,-2.4017,-2.2986,-2.0919,-1.9852,-1.8206,-1.5882,0.0,0.0,0.0,0.0,0.0,0.0,0.0,0.0,0.0,0.0,0.0,0.0,0.0,0.0,0.0,0.0,0.0,0.0,0.0,0.0,0.0,0.0,0.0,0.0,0.0,0.0,0.0,0.0,0.0,-1.5901,-1.7347,0.0,0.0,0.0,0.0,-1.5791,-1.7733,-1.9359,-2.039,-2.1652,-2.2632,-2.332,-2.3463,-2.3494,-2.3494,-2.6453,-2.795,-2.795,-2.795,-2.7986,-2.8075,-2.7986,-2.795,-2.795,-2.795,-2.8039,-2.795,-2.4795,-2.3494,-2.3476,-2.3226,-2.3106,-2.3057,-2.3057,-2.3249,-2.3922,-2.6916,-2.812,-2.8098,-2.6561,-2.5733,-2.5357,-2.5557,-2.5163,0.0,0.0,-2.547,-2.5986,-2.6059,-2.6113,-2.6149,-2.6204,-2.6204,-2.6204,-2.6204,-2.6587,-2.6526,0.0,-2.3897,-2.2996,-2.3008,0.0,-2.2194,-2.2342,-2.3155,-2.3785,-2.3842,-2.4626,-2.5191,-2.5191,-2.5191,-2.5191,-2.5191,-2.5191,-2.5172,-2.5134,-2.4361,-2.3503,-2.2603,-2.1011,-1.9327,-1.761,-1.5875,0.0,0.0,0.0,0.0,0.0,0.0,0.0,0.0,0.0,0.0,0.0,0.0,0.0,0.0,0.0,0.0,0.0,0.0,0.0,0.0,0.0,0.0,0.0,0.0,0.0,0.0,0.0,0.0,-1.7842,-1.8896,0.0,-1.8125,-1.8501,-1.8824,-1.8824,-2.0762,-2.2392,-2.3441,-2.3925,-2.4277,-2.4534,-2.385,-2.3494,-2.3494,-2.6613,-2.8182,-2.8182,-2.8182,-2.8182,-2.8182,-2.8182,-2.8182,-2.8182,-2.8182,-2.9351,-3.1135,-3.0011,-2.8352,-2.6506,-2.6506,-2.6506,-2.6506,-2.6506,-2.6506,-2.6693,-2.8003,-2.851,-2.837,-2.7127,-2.6584,-2.639,-2.6095,-2.5909,-2.5919,-2.649,-2.6812,-2.7091,-2.7616,-2.7743,-2.7743,-2.7743,-2.7743,-2.7786,-2.7858,-2.7606,-2.7279,-2.6936,-2.6339,-2.5533,-2.4459,-2.4492,-2.4346,-2.3436,-2.4011,-2.4531,-2.4531,-2.4922,-2.5191,-2.5191,-2.5191,-2.5191,-2.5191,-2.5191,-2.4962,-2.4396,-2.4115,-2.3351,-2.1972,-2.1355,-2.0246,-1.8573,-1.7353,-1.5511,0.0,0.0,0.0,0.0,0.0,0.0,0.0,0.0,0.0,0.0,0.0,0.0,0.0,0.0,0.0,0.0,0.0,0.0,0.0,0.0,0.0,0.0,0.0,0.0,0.0,0.0,-1.8717,-1.9542,-2.0582,-2.103,-2.051,-2.1173,-2.1744,-2.1964,-2.3267,-2.4427,-2.5301,-2.5354,-2.5105,-2.4587,-2.385,-2.3993,-2.5062,-2.7148,-2.8182,-2.8182,-2.8182,-2.8182,-2.8182,-2.8182,-2.8182,-2.8253,-2.9333,-3.0975,-3.288,-3.2523,-3.1118,-2.9244,-2.9066,-2.8645,-2.8253,-2.8798,-2.9022,-2.9124,-2.9547,-2.9546,-2.9248,-2.8576,-2.8341,-2.8268,-2.7924,-2.7815,-2.787,-2.8141,-2.8214,-2.8268,-2.8515,-2.8587,-2.8587,-2.8587,-2.8587,-2.8637,-2.8737,-2.8419,-2.815,-2.8239,-2.7681,-2.6836,-2.5659,-2.5944,-2.5901,-2.469,-2.4964,-2.5237,-2.5025,-2.5113,-2.5191,-2.5191,-2.5191,-2.5191,-2.5191,-2.5203,-2.4954,-2.4369,-2.4136,-2.3381,-2.2,-2.1652,-2.085,-1.9473,-1.8244,-1.6682,-1.4766,0.0,0.0,0.0,0.0,0.0,0.0,0.0,0.0,0.0,0.0,0.0,0.0,0.0,0.0,0.0,0.0,0.0,0.0,0.0,0.0,0.0,0.0,0.0,-1.7681,-1.9056,-2.0341,-2.109,-2.2571,-2.3529,-2.3529,-2.4266,-2.4837,-2.5087,-2.514,-2.5354,-2.5783,-2.5854,-2.5194,-2.369,-2.3636,-2.5098,-2.8164,-2.8182,-2.8235,-2.8342,-2.8342,-2.8342,-2.8342,-2.8342,-2.8342,-2.853,-3.1564,-3.2916,-3.2827,-3.176,-3.1332,-3.1278,-3.0743,-2.9619,-2.8467,-2.9958,-3.0646,-3.0926,-3.1572,-3.1428,-3.092,-3.0975,-3.0985,-3.0985,-3.0985,-3.0985,-3.0822,-3.0043,-2.9826,-2.9644,-2.8866,-2.8623,-2.8623,-2.8605,-2.8587,-2.8612,-2.8687,-2.8897,-2.9104,-2.9188,-2.7951,-2.6859,-2.6859,-2.699,-2.6904,-2.6231,-2.6095,0.0,-2.5302,-2.5199,-2.5191,-2.5191,-2.5191,-2.5191,-2.5191,-2.5195,-2.5198,-2.5149,-2.4417,-2.3611,-2.2834,-2.1957,-2.1139,-2.035,-1.8657,-1.7369,-1.658,0.0,0.0,0.0,0.0,0.0,0.0,0.0,0.0,0.0,0.0,0.0,0.0,0.0,0.0,0.0,0.0,0.0,0.0,0.0,0.0,0.0,0.0,-1.9556,-1.9359,-2.068,-2.1964,-2.2749,-2.3749,-2.4373,-2.4373,-2.5051,-2.539,-2.5122,-2.5775,-2.6061,-2.5818,-2.6925,-2.7371,-2.6916,-2.6898,-2.7308,-2.8182,-2.8182,-2.9351,-3.1599,-3.1599,-3.1599,-3.1599,-3.1599,-3.1599,-3.1653,-3.2509,-3.2916,-3.2898,-3.2594,-3.2438,-3.2349,-3.1421,-3.0814,-3.0487,-3.0657,-3.107,-3.1554,-3.1727,-3.1437,-3.0975,-3.0985,-3.0985,-3.0985,-3.0985,-3.0985,-3.0948,-3.0713,-3.0659,-3.0477,-2.9681,-2.9463,-2.9318,-2.8732,-2.8587,-2.8637,-2.8737,-2.8815,-2.891,-2.9026,-2.8699,-2.8292,-2.7961,-2.7849,-2.7606,-2.6921,-2.6199,0.0,-2.5915,-2.5367,-2.5044,-2.518,-2.5203,-2.5195,-2.5191,-2.5198,-2.4922,-2.4307,-2.3554,-2.3026,-2.2815,-2.1957,-2.1408,-2.1177,-2.0139,-1.9177,0.0,0.0,0.0,0.0,0.0,0.0,0.0,0.0,0.0,0.0,0.0,0.0,0.0,0.0,0.0,0.0,0.0,0.0,0.0,0.0,0.0,0.0,-2.0281,-2.1768,-2.1946,-2.2732,-2.3481,-2.3963,-2.4694,-2.5283,-2.5622,-2.605,-2.6336,-2.6407,-2.6934,-2.7415,-2.7763,-2.9298,-2.9565,-2.8235,-2.9494,-3.0172,-3.0172,-3.0172,-3.1082,-3.2916,-3.2916,-3.2916,-3.2916,-3.2916,-3.2916,0.0,-3.2916,-3.2916,-3.2916,-3.2916,-3.2916,0.0,0.0,0.0,0.0,0.0,-3.1719,-3.2365,-3.2423,-3.227,-3.1999,-3.1999,-3.1999,-3.1999,-3.1999,-3.1999,-3.1926,-3.16,-3.1492,-3.131,-3.0496,-3.0296,-3.017,-2.9717,-2.9634,-2.9577,-2.935,-2.9326,-2.9284,-2.9049,-2.8994,0.0,-2.8641,-2.8544,-2.8246,-2.7587,-2.6972,-2.66,-2.6588,-2.5827,-2.5362,-2.5479,-2.5235,-2.505,-2.5012,-2.5122,0.0,0.0,0.0,-2.3179,-2.2814,-2.2303,0.0,0.0,0.0,0.0,0.0,0.0,0.0,0.0,-1.8846,-1.8898,0.0,0.0,0.0,0.0,0.0,0.0,0.0,0.0,0.0,0.0,0.0,0.0,0.0,0.0,0.0,0.0,-2.2184,-2.4088,-2.473,-2.4908,-2.4926,-2.4837,-2.5479,-2.6211,-2.6925,-2.7157,-2.7585,-2.8307,-2.836,-2.9084,-3.0689,0.0,0.0,0.0,0.0,-3.2916,-3.2916,-3.2916,-3.2916,-3.2916,-3.2916,-3.2916,-3.2916,-3.2916,-3.2916,-3.2916,-3.2916,-3.2916,-3.2916,-3.2916,-3.2916,-3.2916,-3.2916,-3.2326,-3.1523,-3.1972,-3.2541,-3.3165,-3.3334,0.0,0.0,-3.3393,-3.3393,-3.3393,-3.3393,-3.3393,-3.3248,-3.2542,-3.2343,-3.2144,-3.1329,-3.1129,-3.1093,-3.103,-3.1066,-3.0919,-3.0287,-3.0124,-2.9899,-2.925,-2.9049,-2.8994,-2.8994,-2.8994,-2.8805,-2.8227,-2.8042,-2.7807,-2.7305,-2.6441,-2.586,-2.5911,0.0,0.0,-2.4723,-2.4994,-2.5096,-2.4981,-2.449,-2.3822,-2.2985,-2.3024,-2.3043,-2.2947,-2.3043,-2.3043,-2.2947,-2.3821,-2.3841,-2.3024,-2.0831,-2.0537,0.0,0.0,0.0,0.0,0.0,0.0,0.0,0.0,0.0,0.0,0.0,0.0,0.0,0.0,0.0,-2.2531,-2.4575,-2.59,-2.564,-2.6157,-2.63,-2.5658,-2.6282,-2.6817,-2.6978,-2.8174,-2.9101,-2.9476,-2.9494,-3.035,-3.2313,-3.2706,-3.263,-3.1992,-3.2594,-3.2916,-3.2916,-3.2916,-3.2916,-3.2916,0.0,0.0,-3.2916,-3.2916,-3.2916,-3.2916,-3.2916,-3.2916,-3.2916,-3.2916,-3.2916,-3.2916,-3.2916,-3.2791,-3.2675,-3.2852,-3.3039,-3.3292,-3.3382,-3.3393,-3.3393,-3.3393,-3.3393,-3.3393,-3.3393,-3.3393,0.0,-3.3212,-3.3176,-3.2977,-3.218,-3.1962,-3.1827,-3.1211,-3.1093,-3.1091,-3.1049,-3.0552,-3.0064,-2.9984,-2.9457,-2.8994,-2.8994,-2.8994,-2.9012,-2.9047,-2.8347,-2.7888,-2.8053,-2.6654,-2.5723,-2.5876,-2.5205,-2.4731,-2.4707,-2.4814,-2.4864,-2.4847,-2.4891,-2.4588,-2.387,-2.4466,-2.4505,-2.386,-2.4485,-2.4505,-2.386,-2.4678,-2.4986,-2.4812,-2.4387,-2.3981,0.0,0.0,0.0,0.0,0.0,0.0,0.0,0.0,0.0,0.0,0.0,-1.8824,0.0,0.0,-2.3115,-2.4033,-2.5675,-2.671,-2.6443,-2.7085,-2.7299,-2.6496,-2.7121,-2.7763,-2.8156,-2.8923,-2.9726,-3.0493,-3.0547,-3.1225,-3.2827,-3.2916,-3.2916,-3.2916,-3.2916,-3.2916,-3.2916,-3.2916,-3.2916,-3.2916,-3.2916,-3.2916,-3.2916,-3.2916,-3.2916,-3.2916,-3.2916,-3.2916,-3.2916,-3.2916,-3.2916,-3.2916,-3.2916,-3.2948,-3.3028,-3.3073,-3.3165,-3.3292,-3.3382,-3.3393,-3.3393,-3.3393,-3.3393,-3.3393,-3.3393,-3.3393,-3.3393,-3.3393,-3.3393,-3.3302,-3.2904,-3.2795,-3.2705,-3.2345,-3.2292,-3.2265,-3.1918,-3.1594,-3.1139,-3.0356,-2.9879,-2.9475,-2.9067,-2.8994,-2.9021,-2.9138,-2.8717,-2.846,-2.8619,-2.7502,-2.6742,-2.684,-2.5835,-2.5125,-2.5058,-2.4797,-2.4708,-2.4847,-2.4936,-2.4853,-2.4511,-2.4893,-2.4935,-2.4598,-2.5001,-2.5051,-2.4697,-2.5101,-2.5303,-2.5303,-2.5322,-2.5119,0.0,0.0,0.0,0.0,0.0,0.0,0.0,0.0,-1.7285,-1.7883,-1.9621,-2.119,-2.1657,-2.3396,-2.4866,-2.524,-2.64,-2.7228,-2.7228,-2.7799,-2.7977,-2.7317,-2.7817,-2.853,-2.9333,-2.953,-3.0101,-3.1278,-3.151,-3.2005,-3.2862,-3.2916,-3.2916,-3.2916,-3.2916,-3.2916,-3.2916,-3.2916,-3.2916,-3.2916,-3.2916,-3.2916,-3.2916,-3.2916,-3.2916,-3.2916,-3.3094,-3.3116,-3.3134,-3.3277,-3.3241,-3.3116,-3.3116,-3.3091,-3.3028,-3.3073,-3.3165,-3.3292,-3.3382,-3.3393,-3.3393,-3.3393,-3.3393,-3.3393,-3.3393,-3.3393,-3.3393,-3.3393,-3.3393,-3.3393,-3.3393,-3.3393,-3.3393,-3.3422,-3.3491,-3.3423,-3.2785,-3.2619,-3.2228,-3.0925,-3.0411,-2.9989,-2.9347,-2.9085,-2.8994,-2.8994,-2.8994,-2.8994,-2.8994,-2.8301,-2.7787,-2.7787,-2.661,-2.5689,-2.5443,-2.4819,-2.4588,-2.4847,-2.4861,-2.4874,-2.4902,-2.4902,-2.4955,-2.5049,-2.5049,-2.5126,-2.5253,-2.5253,-2.5264,-2.5303,-2.5303,-2.5438,-1.3593,-1.4136,0.0,-1.6403,-1.6337,-1.6938,0.0,0.0,-2.0685,-2.2615,-2.3735,-2.4379,-2.4454,-2.5682,-2.6694,-2.6757,-2.7495,-2.8084,-2.8084,-2.8128,-2.8164,-2.8075,-2.8156,-2.853,-2.9333,-2.9993,-3.0725,-3.1581,-3.2313,-3.2791,-3.2898,-3.2916,-3.2916,-3.2916,-3.2916,-3.2916,-3.2916,-3.2916,-3.2916,-3.2916,-3.2916,-3.2916,-3.2916,-3.2916,-3.2916,-3.2952,-3.3651,-3.3972,-3.4026,-3.4668,-3.4561,-3.3972,-3.3972,-3.3559,-3.3028,-3.3073,-3.3165,-3.3292,-3.3382,-3.3393,-3.3393,-3.3393,-3.3393,-3.3393,-3.3393,-3.3393,-3.3393,-3.3393,-3.3393,-3.3393,-3.3393,-3.3393,-3.3422,-3.3481,-3.3549,-3.3597,-3.3561,-3.3057,-3.2559,-3.2375,-3.1182,-3.0173,-3.0081,-2.9475,-2.8994,-2.8994,-2.8994,-2.8994,-2.8994,-2.8301,-2.7787,-2.7787,-2.7019,-2.6215,-2.5558,-2.4764,-2.4445,-2.4723,-2.4719,-2.4779,-2.4902,-2.4902,-2.4915,-2.4929,-2.4929,-2.4994,-2.5126,-2.5126,-2.5182,-2.5303,-2.5303,-2.5746,-1.7302,0.0,0.0,0.0,-1.9756,-2.0323,-2.2228,-2.2602,-2.2797,-2.372,-2.4512,-2.5039,-2.5039,-2.6182,-2.7122,0.0,-2.8127,-2.8744,-2.8253,-2.862,-2.8727,-2.8253,-2.8182,-2.8663,-2.9922,-3.0332,-3.1028,-3.2295,-3.2719,-3.2916,-3.2916,-3.2916,-3.2916,-3.2916,-3.2916,-3.2916,-3.2916,-3.2916,-3.3134,-3.3598,-3.3598,-3.3812,-3.424,-3.424,-3.424,-3.4258,-3.4597,-3.474,-3.4775,-3.5079,-3.5025,-3.474,-3.474,-3.4595,-3.4282,-3.3414,-3.3165,-3.3292,-3.3382,-3.3393,-3.3393,-3.3393,-3.3393,-3.3393,-3.3393,-3.3393,-3.3393,-3.3393,-3.3393,-3.3393,-3.3393,-3.3393,-3.3411,-3.3422,-3.352,-3.3605,-3.3633,-3.3469,-3.3164,-3.2706,-3.2063,-3.1311,-3.0356,-2.9934,-2.9549,-2.9067,-2.8994,-2.8994,-2.8994,-2.8723,-2.8319,-2.7842,-2.7515,-2.6862,-2.5595,-2.5226,-2.493,-2.4601,-2.4582,-2.4615,-2.4657,-2.4676,-2.4704,-2.4779,-2.4794,-2.4847,-2.4975,-2.4975,-2.5304,-2.5937,-2.5937,-2.6732,-1.9884,0.0,0.0,-2.1354,-2.228,-2.2916,-2.3244,-2.3803,-2.4298,-2.4496,-2.4929,-2.5246,-2.533,-2.6273,0.0,-2.713,-2.8405,-2.9208,-2.862,-2.9048,-2.9191,-2.862,-2.8324,-2.8717,-3.0083,-3.0386,-3.1082,-3.2456,-3.2759,-3.2916,-3.2916,-3.2916,-3.2916,-3.2916,-3.2916,-3.3023,-3.3223,-3.3223,-3.3633,-3.4401,-3.4401,-3.4686,-3.5204,-3.5204,-3.5204,-3.5221,-3.5435,-3.5543,-3.556,-3.5774,-3.5739,-3.5543,-3.5543,-3.5452,-3.5216,-3.4117,-3.3831,-3.3888,-3.3497,-3.3526,-3.3701,-3.3465,-3.3393,-3.3393,-3.3393,-3.3393,-3.3393,-3.3393,-3.3393,-3.3393,-3.3393,-3.3393,-3.3393,-3.3393,-3.3491,-3.3605,-3.3605,-3.3698,-3.3623,-3.3054,-3.2761,-3.2173,-3.0779,-3.0356,-2.9934,-2.9104,-2.8994,-2.8994,-2.8994,-2.8994,-2.8796,-2.8191,-2.7978,-2.7453,-2.6277,-2.5837,-2.5375,-2.4871,-2.4611,-2.45,-2.45,-2.45,-2.4551,-2.4629,-2.4645,-2.4817,-2.5173,-2.5173,-2.5693,-2.6644,-2.6702,-2.7592,0.0,0.0,-2.228,-2.2345,-2.3013,-2.3832,-2.4482,-2.4872,-2.5241,-2.5812,-2.5765,-2.5654,-2.5918,-2.6324,-2.67,-2.6961,-2.8352,-2.9387,-2.9369,-2.9387,-2.9387,-2.9369,-2.8691,-2.8503,0.0,-3.0083,-3.085,-3.1671,-3.2456,-3.2916,-3.2916,-3.2916,-3.2916,-3.2916,-3.2916,-3.3259,-3.4062,-3.4062,-3.4436,-3.5186,-3.5186,-3.5186,-3.5204,-3.5204,-3.5204,-3.5257,-3.6024,-3.6363,-3.6417,-3.7202,-3.7059,-3.6363,-3.6363,-3.5882,-3.5204,-3.5305,-3.5421,-3.5299,-3.3815,-3.3876,-3.4443,-3.3647,-3.3393,-3.3393,-3.3393,-3.3393,-3.3393,-3.3393,-3.3393,-3.3393,-3.3393,-3.3393,-3.3393,-3.3393,-3.3491,-3.3605,-3.3605,-3.3698,-3.3788,-3.377,-3.3128,-3.2339,-3.1513,-3.0723,-2.9934,-2.9104,-2.8994,-2.8994,-2.8994,-2.8994,-2.8975,-2.8957,-2.8327,-2.7914,-2.792,-2.6503,-2.5616,-2.5671,-2.4927,-2.45,-2.45,-2.45,-2.45,-2.45,-2.45,-2.4957,-2.5874,-2.5874,-2.6349,-2.7278,-2.7475,-2.8051,0.0,0.0,-2.2654,-2.3679,-2.419,-2.462,-2.5392,-2.5716,-2.5737,-2.5438,-2.5328,-2.5212,-2.4978,-2.509,-2.5542,-2.6511,-2.8052,-2.9184,-2.9376,-3.0279,-3.0547,-2.953,-2.9601,0.0,0.0,0.0,0.0,-3.1599,-3.1938,-3.2331,-3.288,-3.2916,-3.2916,-3.2916,-3.3419,-3.383,-3.4115,-3.4597,-3.5221,-3.6006,-3.6542,-3.6774,-3.6774,-3.6774,-3.6774,-3.6809,-3.7077,-3.7184,-3.7202,-3.747,-3.7434,-3.7184,-3.7184,-3.7023,-3.672,-3.6238,-3.652,-3.6818,-3.4758,-3.4573,-3.5146,-3.4431,-3.4208,-3.4208,-3.4208,-3.3828,-3.3393,-3.3393,-3.3393,-3.3393,-3.3393,-3.3393,-3.3393,-3.3393,-3.3491,-3.3605,-3.3605,-3.3698,-3.3807,-3.3807,-3.3587,-3.3146,-3.2339,-3.1531,-3.054,-2.9195,-2.8994,-2.8994,-2.8994,-2.8994,-2.8994,-2.8994,-2.8868,-2.8566,-2.803,-2.7542,-2.7026,-2.6544,-2.6247,-2.5856,-2.5317,-2.5299,-2.5299,-2.5299,-2.5299,-2.5707,-2.6562,-2.6562,-2.708,-2.8041,-2.8091,-2.8685,0.0,-2.3139,-2.3464,-2.47,-2.5121,-2.5343,-2.5839,-2.5881,-2.5673,-2.5209,-2.478,-2.4392,-2.4181,-2.4303,-2.4821,-2.6036,-2.7886,-2.9319,-2.9733,-3.0886,-3.1332,-3.0332,-3.0386,-3.0315,0.0,0.0,0.0,-3.1599,-3.1956,-3.2474,-3.3277,-3.3312,-3.3437,-3.3705,-3.4222,-3.4633,-3.4918,-3.54,-3.6024,-3.6827,-3.7345,-3.7577,-3.7577,-3.7577,-3.7577,-3.7577,-3.7577,-3.7577,-3.7577,-3.7577,-3.7577,-3.7577,-3.7577,-3.7577,-3.7523,-3.7006,-3.7256,-3.754,-3.5486,-3.5353,-3.5991,-3.5263,-3.5041,-3.4987,-3.4697,-3.4244,-3.3773,-3.3484,-3.3393,-3.3393,-3.3393,-3.3393,-3.3393,-3.3393,-3.3491,-3.3605,-3.3605,-3.3698,-3.3807,-3.3807,-3.3807,-3.3532,-3.2742,-3.1696,-3.0522,-2.9195,-2.8994,-2.8994,-2.8994,-2.8994,-2.8994,-2.8994,-2.9112,-2.8975,-2.8476,-2.8229,-2.7863,-2.7362,-2.7065,-2.6674,-2.6154,-2.6135,-2.6135,-2.6135,-2.6135,-2.6526,-2.7344,-2.7344,-2.781,-2.8765,-2.882,-2.9223,-2.411,-2.4515,-2.4725,-2.5438,-2.5749,-2.5881,-2.5848,-2.545,-2.5077,-2.4961,-2.4041,-2.3282,0.0,0.0,-2.4478,-2.5476,-2.7691,-2.9543,-3.0356,-3.1194,-3.1711,0.0,0.0,0.0,0.0,0.0,0.0,-3.1813,0.0,-3.3241,-3.4062,-3.4151,-3.449,-3.5186,-3.5257,-3.5632,-3.6381,-3.6435,-3.6827,-3.7577,-3.7577,-3.7577,-3.7577,-3.7577,-3.7577,-3.7577,-3.7577,-3.7577,-3.7577,-3.7577,-3.7577,-3.7577,-3.7577,-3.7577,-3.7577,-3.7613,-3.7649,-3.7524,-3.6103,-3.6269,-3.6906,-3.6127,-3.5874,-3.5729,-3.495,-3.4679,-3.4443,-3.3683,-3.3429,-3.3393,-3.3393,-3.3393,-3.3393,-3.3393,-3.3491,-3.3605,-3.3605,-3.3698,-3.3807,-3.3807,-3.3807,-3.3532,-3.2742,-3.1347,-3.0044,-2.92,-2.9049,-2.9049,-2.8994,-2.8994,-2.8994,-2.9017,-2.9112,-2.92,-2.92,-2.8563,-2.816,-2.816,-2.7455,-2.7009,-2.6972,-2.6972,-2.6972,-2.6972,-2.6972,-2.7362,-2.816,-2.816,-2.8608,-2.9407,-2.9532,-2.9589,-2.4256,-2.4903,-2.5373,-2.561,-2.5807,-2.5786,-2.5264,-2.5122,-2.463,-2.2973,-2.2555,-2.205,-2.0614,0.0,0.0,-2.3516,-2.5831,0.0,-2.9871,-3.1291,0.0,0.0,0.0,-3.2955,-3.2331,-3.333,0.0,0.0,-3.3419,-3.3241,-3.4062,-3.4633,-3.5025,-3.5204,-3.5792,-3.6185,-3.6399,-3.6988,-3.738,-3.7577,-3.7577,-3.7577,-3.7577,-3.7577,-3.7577,-3.7577,-3.7577,-3.7577,-3.7577,-3.7577,-3.7577,-3.7577,-3.7577,-3.7577,-3.7631,-3.7649,-3.7757,-3.7792,-3.7464,-3.7514,-3.7636,-3.6924,-3.6689,-3.6653,-3.6435,-3.5548,-3.457,-3.4353,-3.3864,-3.3393,-3.3393,-3.3393,-3.3393,-3.3393,-3.3491,-3.3605,-3.3605,-3.3698,-3.3807,-3.3807,-3.3807,-3.3532,-3.2742,-3.2265,-3.1513,-3.0118,-2.9898,-2.9696,-2.9067,-2.8994,-2.9017,-2.9085,-2.9134,-2.9218,-2.9262,-2.9161,-2.9072,-2.9072,-2.8886,-2.8477,-2.7807,-2.7789,-2.7789,-2.7789,-2.7789,-2.8217,-2.9072,-2.9072,-2.9184,-2.9407,-2.9429,-2.9512,-2.5276,-2.5762,-2.6085,-2.6168,-2.5807,-2.5245,-2.4576,-2.4034,-2.3123,-2.1218,-2.1078,0.0,0.0,0.0,0.0,0.0,0.0,0.0,-2.901,-3.076,-3.1964,0.0,-3.3446,0.0,-3.3919,-3.4704,-3.5204,0.0,-3.4401,-3.4258,-3.5079,-3.5507,-3.5899,-3.6238,-3.6684,-3.6916,-3.6916,-3.7362,-3.7577,-3.7577,-3.7577,-3.7577,-3.7577,-3.7577,-3.7577,-3.7577,0.0,-3.7577,-3.7577,-3.7577,-3.7577,-3.7577,-3.7577,-3.7577,-3.7631,-3.7667,-3.7792,-3.7899,-3.7967,-3.8036,-3.8016,-3.7649,-3.7522,-3.7449,-3.712,-3.6363,-3.5512,-3.4806,-3.428,-3.3846,-3.3502,-3.3393,-3.3393,-3.3393,-3.3491,-3.3605,-3.3605,-3.3698,-3.3807,-3.3807,-3.3807,-3.3532,-3.2742,-3.2614,-3.2063,-3.0448,-3.021,-2.9916,-2.9085,-2.904,-2.9062,-2.9108,-2.9197,-2.9262,-2.9302,-2.9365,-2.9407,-2.9407,-2.9407,-2.9184,-2.87,-2.8682,-2.8682,-2.8682,-2.8682,-2.8924,-2.9407,-2.9407,-2.9407,-2.9407,-2.9407,-2.945,-2.649,-2.662,-2.661,-2.6769,-2.5807,-2.4622,-2.3835,-2.263,-2.1201,-1.9634,0.0,0.0,-1.8052,0.0,-2.1292,-2.1738,0.0,-2.6492,-2.828,-3.0051,-3.1686,-3.3231,-3.3896,-3.4508,-3.515,-3.54,-3.5525,-3.5525,-3.5525,-3.5792,-3.6363,-3.6488,-3.6881,-3.7559,-3.7577,-3.7577,-3.7577,-3.7577,-3.7577,-3.7577,-3.7577,-3.7577,-3.7577,-3.7577,-3.7577,-3.7577,-3.7577,0.0,-3.7503,-3.7503,-3.7449,-3.7411,-3.7485,-3.7503,-3.7522,-3.7667,-3.781,-3.7899,-3.8002,-3.8088,-3.8192,-3.8192,-3.8192,-3.8065,-3.7392,-3.7069,-3.6671,-3.5186,-3.4679,-3.4407,-3.361,-3.3393,-3.3393,-3.3393,-3.3491,-3.3605,-3.3605,-3.3698,-3.3807,-3.3807,-3.3807,-3.3587,-3.2889,-3.2761,-3.221,-3.0595,-3.0356,-3.0026,-2.9104,-2.9062,-2.9089,-2.9112,-2.9218,-2.9302,-2.9323,-2.9365,-2.9407,-2.9407,-2.9407,-2.9407,-2.9407,-2.9407,-2.9407,-2.9407,-2.9407,-2.9407,-2.9407,-2.9407,-2.9407,-2.9407,-2.9407,-2.9407,-2.649,-2.6264,-2.594,-2.6639,-2.5807,-2.449,-2.3227,-2.1886,0.0,0.0,0.0,-1.7084,-1.6415,-1.761,0.0,-2.112,0.0,0.0,0.0,0.0,-3.1272,0.0,0.0,0.0,0.0,0.0,0.0,0.0,0.0,-3.6934,-3.6435,-3.7023,-3.7452,-3.7577,-3.7577,-3.7577,-3.7577,-3.7577,-3.7577,-3.7577,-3.7577,-3.7577,-3.7577,-3.7577,-3.7577,-3.7577,-3.7577,0.0,-3.7017,-3.7017,-3.6781,-3.6481,-3.686,-3.7017,-3.7111,-3.7649,-3.7864,-3.7952,-3.8106,-3.8174,-3.8192,-3.8192,-3.8192,-3.8156,-3.8011,-3.7522,-3.6779,-3.5874,-3.5113,-3.4407,-3.361,-3.3393,-3.3393,-3.3393,-3.3491,-3.3605,-3.3605,-3.3698,-3.3807,-3.3807,-3.3807,-3.3752,-3.3623,-3.3587,-3.3054,-3.1421,-3.1182,-3.065,-2.92,-2.9062,-2.9112,-2.9178,-2.924,-2.9323,-2.9386,-2.9386,-2.9407,-2.9407,-2.9407,-2.9407,-2.9407,-2.9407,-2.9407,-2.9407,-2.9407,-2.9407,-2.9407,-2.9407,-2.9407,-2.9407,-2.9407,-2.9407,-2.649,-2.6481,-2.6324,-2.6704,-2.5513,-2.3917,-2.2536,0.0,0.0,0.0,0.0,-1.5684,-1.4706,0.0,0.0,0.0,0.0,0.0,0.0,0.0,0.0,0.0,0.0,0.0,0.0,0.0,0.0,0.0,0.0,-3.7416,-3.7041,-3.738,-3.7577,-3.7577,-3.7577,-3.7577,-3.7577,-3.7577,-3.7577,-3.7577,-3.7577,-3.7577,-3.7577,-3.7577,-3.7466,-3.7243,-3.7243,0.0,-3.6522,-3.6522,-3.6381,-3.6274,-3.6741,-3.69,-3.6978,-3.7649,-3.7899,-3.7934,-3.8124,-3.8192,-3.8119,-3.7703,-3.7848,-3.8192,-3.8192,-3.7631,-3.6816,-3.6037,-3.5222,-3.4407,-3.361,-3.3393,-3.3393,-3.3393,-3.3491,-3.3633,-3.3698,-3.3753,-3.3807,-3.3807,-3.3807,-3.3807,-3.3807,-3.3807,-3.3256,-3.1623,-3.1384,-3.0815,-2.9195,-2.9108,-2.9156,-2.92,-2.9283,-2.9365,-2.9407,-2.9407,-2.9407,-2.9407,-2.9407,-2.9407,-2.9407,-2.9407,-2.9407,-2.9407,-2.9407,-2.9407,-2.9407,-2.9407,-2.9407,-2.9407,-2.9407,-2.9407,-2.6264,-2.6497,-2.659,-2.6753,-2.5288,-2.3375,-2.1829,-1.9811,0.0,0.0,0.0,-1.4571,-1.3769,0.0,0.0,0.0,0.0,0.0,0.0,0.0,0.0,0.0,0.0,0.0,0.0,0.0,0.0,0.0,0.0,0.0,-3.7577,-3.7577,-3.7577,-3.7577,-3.7577,-3.7577,-3.7577,-3.7577,-3.7577,-3.7577,-3.7577,-3.7577,-3.7594,-3.7503,-3.7281,-3.7034,-3.6821,0.0,0.0,-3.6105,-3.6062,-3.6105,-3.6563,-3.6821,-3.696,-3.747,-3.7647,-3.7664,-3.7672,-3.7685,-3.7576,-3.6942,-3.7268,-3.7902,-3.7739,-3.7232,-3.658,-3.5783,-3.5095,-3.4407,-3.361,-3.3393,-3.3411,-3.3422,-3.352,-3.3643,-3.378,-3.3807,-3.3807,-3.3807,-3.3807,-3.3807,-3.3807,-3.366,-3.3054,-3.1604,-3.1237,-3.0613,-2.9177,-2.913,-2.92,-2.92,-2.9326,-2.9407,-2.9407,-2.9407,-2.9407,-2.9407,-2.9407,-2.9407,-2.9407,-2.9407,-2.9407,-2.9407,-2.9407,-2.9407,-2.9407,-2.9407,-2.9407,-2.9407,-2.9407,-2.9407,-2.5503,-2.5713,-2.5913,-2.6623,-2.5252,-2.3194,-2.1157,0.0,0.0,0.0,-1.3781,-1.3593,-1.4487,0.0,0.0,0.0,0.0,0.0,0.0,0.0,0.0,0.0,0.0,0.0,0.0,0.0,0.0,0.0,0.0,0.0,-3.7541,-3.7577,-3.7577,-3.7577,-3.7577,-3.7577,-3.7577,-3.7577,-3.7577,-3.7577,-3.7577,-3.7577,-3.7594,-3.715,-3.715,-3.7503,-3.6643,0.0,0.0,-3.582,-3.5661,-3.5705,-3.6105,-3.6522,-3.689,-3.6845,-3.682,-3.6746,-3.6208,-3.6037,-3.6019,-3.5946,-3.6453,-3.6961,-3.6254,-3.5983,-3.5747,-3.495,-3.4661,-3.4407,-3.361,-3.3393,-3.3422,-3.3549,-3.3633,-3.3698,-3.378,-3.3807,-3.3807,-3.3807,-3.3807,-3.3807,-3.3807,-3.3201,-3.2412,-3.1513,-3.0779,-2.9989,-2.9104,-2.913,-2.92,-2.92,-2.9326,-2.9407,-2.9407,-2.9407,-2.9407,-2.9407,-2.9407,-2.9407,-2.9407,-2.9407,-2.9407,-2.9407,-2.9407,-2.9407,-2.9407,-2.9407,-2.9407,-2.9407,-2.9407,-2.9407,-2.4628,-2.5334,-2.5717,-2.5517,-2.4599,-2.3079,-2.0529,0.0,0.0,-1.4659,-1.3597,-1.3256,-1.3803,-1.4384,-1.554,0.0,0.0,0.0,0.0,0.0,0.0,0.0,0.0,0.0,0.0,0.0,0.0,0.0,0.0,0.0,-3.6131,-3.6167,-3.6167,-3.6167,-3.6167,-3.6381,-3.6863,-3.6881,-3.6881,-3.6881,-3.7362,-3.7327,-3.6863,-3.6701,-3.6688,-3.6781,-3.6173,0.0,0.0,-3.5186,-3.4928,-3.4922,-3.4619,-3.4641,-3.4852,-3.5179,-3.5313,-3.5296,-3.5172,-3.5135,-3.5064,-3.4583,-3.4636,-3.5023,-3.562,-3.5476,-3.5023,-3.4697,-3.4262,-3.381,-3.3484,-3.3422,-3.3481,-3.3577,-3.3643,-3.3726,-3.3807,-3.3807,-3.3807,-3.3807,-3.3807,-3.3807,-3.3807,-3.3128,-3.2339,-3.1513,-3.0723,-2.9916,-2.9085,-2.913,-2.92,-2.92,-2.9326,-2.9407,-2.9407,-2.9407,-2.9407,-2.9407,-2.9407,-2.9407,-2.9407,-2.9407,-2.9407,-2.9407,-2.9407,-2.9407,-2.9407,-2.9407,-2.9407,-2.9407,-2.9407,-2.9407,-2.3547,-2.4544,-2.5092,-2.4498,-2.3751,-2.2437,0.0,0.0,-1.6497,-1.4327,-1.3466,-1.3156,-1.3345,-1.3972,-1.5036,0.0,-1.7381,-1.8699,0.0,0.0,0.0,0.0,0.0,0.0,0.0,0.0,0.0,0.0,0.0,0.0,-3.4882,-3.465,-3.474,-3.5204,-3.5204,-3.5471,-3.6042,-3.6042,-3.6042,-3.6042,-3.6613,-3.6577,-3.6042,-3.5936,-3.5854,-3.5798,-3.5384,0.0,0.0,-3.437,-3.415,-3.41,-3.3618,-3.3481,-3.3652,-3.3887,-3.399,-3.4047,-3.3949,-3.3951,-3.3899,-3.3319,-3.3143,-3.3353,-3.4446,-3.4379,-3.393,-3.393,-3.3579,-3.3208,-3.3208,-3.3375,-3.3549,-3.3605,-3.3671,-3.3753,-3.3807,-3.3807,-3.3807,-3.3807,-3.3807,-3.3715,-3.3495,-3.2779,-3.1971,-3.1164,-3.0356,-2.9641,-2.9067,-2.913,-2.92,-2.92,-2.9326,-2.9407,-2.9407,-2.9407,-2.9407,-2.9407,-2.9407,-2.9407,-2.9407,-2.9407,-2.9407,-2.9407,-2.9407,-2.9407,-2.9407,-2.9407,-2.9407,-2.9407,-2.9407,-2.9407,-2.215,-2.3062,-2.3634,-2.3769,-2.2669,-2.0996,0.0,-1.7425,-1.579,-1.3565,-1.3118,-1.3191,-1.3542,-1.3605,-1.4234,-1.6118,-1.7075,0.0,0.0,0.0,0.0,0.0,0.0,0.0,0.0,0.0,0.0,0.0,0.0,0.0,-3.4115,-3.3348,-3.3616,-3.5168,-3.5204,-3.5204,-3.5221,-3.5221,-3.5221,-3.5221,-3.5239,-3.5239,-3.5187,-3.4799,-3.467,0.0,0.0,0.0,0.0,-3.3355,-3.3355,-3.3414,-3.3397,-3.3686,-3.3999,-3.3263,-3.3115,-3.312,-3.2371,-3.2214,-3.2335,-3.2335,-3.2317,-3.2335,-3.2335,-3.2335,-3.2317,-3.2317,-3.2553,-3.2795,-3.2795,-3.3202,-3.3605,-3.3605,-3.3698,-3.3807,-3.3807,-3.3807,-3.3807,-3.3807,-3.3807,-3.355,-3.2761,-3.1953,-3.1127,-3.0338,-2.9549,-2.8994,-2.8994,-2.913,-2.92,-2.92,-2.9326,-2.9407,-2.9407,-2.9407,-2.9407,-2.9407,-2.9407,-2.9407,-2.9407,-2.9407,-2.9407,-2.9407,-2.9407,-2.9407,-2.9407,-2.9407,-2.9407,-2.9407,-2.9407,-2.9407,-1.9519,-2.0577,-2.1324,-2.0336,-2.0122,-1.9476,-1.6888,-1.637,-1.5773,-1.3565,-1.3157,-1.3312,-1.3557,-1.3682,-1.45,-1.6828,0.0,0.0,0.0,0.0,0.0,0.0,0.0,0.0,0.0,0.0,0.0,0.0,0.0,0.0,-3.3277,-3.3027,-3.3098,-3.3598,-3.3616,-3.3883,-3.4454,-3.4454,-3.4454,-3.4454,-3.4972,-3.4954,-3.4454,-3.4319,-3.4216,0.0,0.0,0.0,0.0,-3.2838,-3.2635,-3.2584,-3.1767,-3.1524,-3.1655,-3.1579,-3.1574,-3.1618,-3.1534,-3.1524,-3.1542,-3.1542,-3.1542,-3.1542,-3.1542,-3.1913,-3.2317,-3.2317,-3.2385,-3.2468,-3.2468,-3.2619,-3.2876,-3.3172,-3.3142,-3.3184,-3.368,-3.3625,-3.3465,-3.3465,-3.3465,-3.3288,-3.2811,-3.1789,-3.0965,-3.0729,-2.9716,-2.8994,-2.8994,-2.913,-2.92,-2.92,-2.9326,-2.9407,-2.9407,-2.9407,-2.9407,-2.9407,-2.9407,-2.9407,-2.9407,-2.9407,-2.9407,-2.9407,-2.9407,-2.9407,-2.9407,-2.9407,-2.9407,-2.9407,-2.9407,-2.9407,0.0,-1.8618,-1.9147,-1.8268,-1.8169,-1.7741,-1.5752,-1.5442,-1.5089,-1.3449,-1.3209,-1.3362,-1.3573,-1.3713,-1.4528,-1.6791,0.0,0.0,0.0,0.0,0.0,0.0,0.0,0.0,0.0,0.0,0.0,0.0,0.0,0.0,-3.2884,-3.2916,-3.2916,-3.2916,-3.2916,-3.3134,-3.3633,-3.3651,-3.3651,-3.3651,-3.4115,-3.4097,-3.3633,-3.3501,-3.3318,0.0,0.0,0.0,0.0,-3.1962,-3.1736,-3.1539,-3.08,-3.0526,-3.0526,-3.0692,-3.0814,-3.0912,-3.1032,-3.1151,-3.119,-3.119,-3.119,-3.119,-3.119,-3.1542,-3.1877,-3.1877,-3.1967,-3.2056,-3.2056,-3.2248,-3.2486,-3.283,-3.2798,-3.2813,-3.3302,-3.3273,-3.3124,-3.3124,-3.2889,-3.2571,-3.2158,-3.1207,-3.0432,-3.0202,-2.9521,-2.9017,-2.904,-2.9134,-2.92,-2.924,-2.9344,-2.9407,-2.9407,-2.9407,-2.9407,-2.9407,-2.9407,-2.9407,-2.9407,-2.9407,-2.9407,-2.9407,-2.9407,-2.9407,-2.9407,-2.9407,-2.9407,-2.9407,-2.9407,-2.9407,0.0,-1.6894,-1.695,-1.7027,-1.6502,-1.583,-1.5205,-1.4609,0.0,-1.3251,-1.3226,-1.3412,-1.3711,-1.3835,-1.4511,-1.6419,0.0,0.0,0.0,0.0,0.0,0.0,0.0,0.0,0.0,0.0,0.0,0.0,0.0,0.0,-3.2884,-3.2916,-3.2916,-3.2916,-3.2916,-3.2916,-3.2916,-3.2916,-3.2916,-3.2916,-3.2916,-3.2916,-3.2884,-3.2521,-3.2091,0.0,0.0,0.0,0.0,-3.0885,-3.0861,-3.0526,-3.0526,-3.0526,-3.0526,-3.0526,-3.0692,-3.0912,-3.0912,-3.1032,-3.119,-3.119,-3.119,-3.119,-3.119,-3.119,-3.119,-3.119,-3.1428,-3.164,-3.164,-3.2003,-3.2369,-3.2521,-3.2588,-3.2669,-3.2763,-3.2763,-3.2763,-3.2763,-3.2224,-3.1553,-3.098,-3.0306,-2.966,-2.9106,-2.9007,-2.9017,-2.9067,-2.9134,-2.9218,-2.928,-2.9344,-2.9386,-2.9386,-2.9407,-2.9407,-2.9407,-2.9407,-2.9407,-2.9407,-2.9407,-2.9407,-2.9407,-2.9407,-2.9407,-2.9407,-2.9407,-2.9407,-2.9407,-2.9407,-2.9407,-1.2025,0.0,-1.3133,-1.2588,-1.315,-1.3627,0.0,-1.3516,0.0,0.0,0.0,-1.3902,-1.5124,-1.4966,-1.5815,0.0,0.0,0.0,0.0,0.0,0.0,0.0,0.0,0.0,0.0,0.0,0.0,0.0,0.0,0.0,-3.2884,-3.2916,-3.2916,-3.2916,-3.2916,-3.2916,-3.2916,-3.2916,-3.2916,-3.2916,-3.2916,-3.2916,-3.2884,-3.2802,-3.2369,0.0,0.0,0.0,-3.0526,-3.0593,-3.0593,-3.0526,-3.0526,-3.0526,-3.051,-3.0733,-3.0871,-3.0912,-3.1072,-3.1151,-3.119,-3.119,-3.119,-3.119,-3.119,-3.119,-3.119,-3.119,-3.1269,-3.1329,-3.1329,-3.1406,-3.16,-3.2056,-3.1966,-3.1966,-3.2634,-3.2586,-3.2403,-3.2403,-3.2296,-3.1876,-3.0921,-3.0499,-3.0009,-2.9322,-2.9119,-2.9017,-2.9017,-2.9067,-2.913,-2.9152,-2.924,-2.9323,-2.9323,-2.9365,-2.9407,-2.9407,-2.9407,-2.9407,-2.9407,-2.9407,-2.9407,-2.9407,-2.9407,-2.9407,-2.9407,-2.9407,-2.9407,-2.9407,-2.9407,-2.9407,-0.9776,-1.1429,-1.2919,-1.2522,-1.3267,-1.3996,-1.3617,0.0,0.0,0.0,0.0,0.0,-1.5245,0.0,0.0,0.0,0.0,0.0,0.0,0.0,0.0,0.0,0.0,0.0,0.0,0.0,0.0,0.0,0.0,0.0,-3.2884,-3.2916,-3.2916,-3.2916,-3.2916,-3.2916,-3.2916,-3.2916,-3.2916,-3.2916,-3.2916,-3.2916,-3.2884,-3.2705,-3.23,0.0,0.0,0.0,-3.0526,-3.0526,-3.0526,-3.0526,-3.0526,-3.0526,-3.0526,-3.0733,-3.0871,-3.0912,-3.1072,-3.1151,-3.119,-3.119,-3.119,-3.119,-3.119,-3.119,-3.119,-3.119,-3.119,-3.119,-3.119,-3.119,-3.1308,-3.1691,-3.1634,-3.1634,-3.2231,-3.2214,-3.2055,-3.2055,-3.1777,-3.1307,-3.0507,-3.011,-2.9701,-2.9071,-2.8991,-2.897,-2.8881,-2.8998,-2.9048,-2.8938,-2.9156,-2.9302,-2.9302,-2.9365,-2.9407,-2.9407,-2.9407,-2.9407,-2.9407,-2.9407,-2.9407,-2.9407,-2.9407,-2.9407,-2.9407,-2.9407,-2.9407,-2.9407,-2.9407,-2.9407,-0.9118,-1.1727,-1.4261,-1.3814,-1.4493,-1.5259,0.0,0.0,0.0,0.0,0.0,0.0,0.0,0.0,0.0,0.0,0.0,0.0,0.0,0.0,0.0,0.0,0.0,0.0,0.0,0.0,0.0,0.0,0.0,0.0,-3.277,-3.2802,-3.277,-3.2737,-3.277,-3.277,-3.2737,-3.2852,-3.2916,-3.2916,-3.2916,-3.2916,-3.2884,-3.2539,-3.2162,-3.175,0.0,0.0,-3.0593,-3.0593,-3.0551,-3.0526,-3.0526,-3.0526,-3.0526,-3.0692,-3.079,-3.0912,-3.0975,-3.1095,-3.119,-3.119,-3.119,-3.119,-3.119,-3.119,-3.119,-3.119,-3.119,-3.119,-3.119,-3.119,-3.1269,-3.1423,-3.1517,-3.1576,-3.1763,-3.18,-3.18,-3.18,-3.1282,-3.0681,-3.0014,-2.9672,-2.9247,-2.8626,-2.8767,-2.8881,-2.8743,-2.8905,-2.8938,-2.8766,-2.9071,-2.9283,-2.9283,-2.9365,-2.9407,-2.9407,-2.9407,-2.9407,-2.9407,-2.9407,-2.9407,-2.9407,-2.9407,-2.9407,-2.9407,-2.9407,-2.9407,-2.9407,-2.9407,-2.9407,-1.0983,-1.3267,-1.4529,-1.2025,-1.3368,-1.5143,0.0,0.0,0.0,0.0,0.0,0.0,0.0,0.0,0.0,0.0,0.0,0.0,0.0,0.0,0.0,0.0,0.0,0.0,0.0,0.0,0.0,0.0,0.0,0.0,-3.2386,-3.2386,-3.2249,-3.1896,-3.2197,-3.2249,-3.1896,-3.2555,-3.2916,-3.2916,-3.2916,-3.2916,-3.2916,-3.2852,-3.2606,-3.2197,0.0,-3.1677,-3.1004,-3.1004,-3.0821,-3.0526,-3.0526,-3.0526,-3.051,-3.0773,-3.0871,-3.0912,-3.1112,-3.119,-3.119,-3.119,-3.119,-3.119,-3.119,-3.119,-3.119,-3.119,-3.119,-3.119,-3.119,-3.1252,-3.1312,-3.1479,-3.1538,-3.1617,-3.1763,-3.18,-3.18,-3.18,-3.1714,-3.1215,-2.9816,-2.9959,-2.975,-2.8371,-2.8456,-2.8743,-2.8929,-2.8791,-2.8743,-2.891,-2.9112,-2.9218,-2.9218,-2.9326,-2.9407,-2.9407,-2.9407,-2.9407,-2.9407,-2.9407,-2.9407,-2.9407,-2.9407,-2.9407,-2.9407,-2.9407,-2.9407,-2.9407,-2.9407,-2.9407,-1.0018,-1.2221,-1.4016,-1.3209,-1.5318,-1.7588,0.0,0.0,0.0,0.0,0.0,0.0,0.0,0.0,0.0,0.0,0.0,0.0,0.0,0.0,0.0,0.0,0.0,0.0,0.0,0.0,0.0,0.0,0.0,0.0,-3.1985,-3.1985,-3.1913,-3.1714,-3.1877,-3.1877,-3.1677,-3.2091,-3.2369,-3.2573,-3.2573,-3.2705,-3.2884,-3.2437,-3.2162,-3.1949,0.0,-3.13,-3.0781,-3.0781,-3.0675,-3.0526,-3.0568,-3.0609,-3.0651,-3.0855,-3.0992,-3.1072,-3.1151,-3.119,-3.119,-3.119,-3.119,-3.119,-3.119,-3.119,-3.119,-3.119,-3.119,-3.119,-3.119,-3.1252,-3.1351,-3.1462,-3.1576,-3.1617,-3.1746,-3.18,-3.18,-3.18,-3.1472,-3.0905,-2.9934,-2.9775,-2.943,-2.8263,-2.8404,-2.8576,-2.8533,-2.8558,-2.8669,-2.8767,-2.9026,-2.92,-2.92,-2.9326,-2.9407,-2.9407,-2.9407,-2.9407,-2.9407,-2.9407,-2.9407,-2.9407,-2.9407,-2.9407,-2.9407,-2.9407,-2.9407,-2.9407,-2.9407,-2.9407,-0.9504,-1.1466,-1.3667,0.0,0.0,0.0,0.0,0.0,0.0,0.0,0.0,0.0,0.0,0.0,0.0,0.0,0.0,0.0,0.0,0.0,0.0,0.0,0.0,0.0,0.0,0.0,0.0,0.0,0.0,0.0,-3.1196,-3.1124,-3.0996,-3.0939,-3.0996,-3.0996,-3.0939,-3.1185,-3.1578,-3.2162,-3.2162,-3.23,-3.2588,-3.1967,-3.1677,-3.1677,-3.1376,-3.1004,-3.0634,-3.0634,-3.0593,-3.051,-3.0651,-3.0733,-3.0773,-3.0935,-3.1095,-3.119,-3.119,-3.119,-3.119,-3.119,-3.119,-3.119,-3.119,-3.119,-3.119,-3.119,-3.119,-3.119,-3.123,-3.1274,-3.1368,-3.15,-3.1614,-3.1671,-3.18,-3.18,-3.18,-3.18,-3.1196,-3.0543,-2.9964,-2.9475,-2.8934,-2.8116,-2.8281,-2.843,-2.8237,-2.843,-2.8626,-2.8694,-2.898,-2.92,-2.9243,-2.9326,-2.9407,-2.9407,-2.9407,-2.9407,-2.9407,-2.9407,-2.9407,-2.9407,-2.9407,-2.9407,-2.9407,-2.9407,-2.9407,-2.9407,-2.9407,-2.9407,-1.1393,-1.2717,-1.4057,-1.6428,0.0,0.0,0.0,0.0,0.0,0.0,0.0,0.0,0.0,0.0,0.0,0.0,0.0,0.0,0.0,0.0,0.0,0.0,0.0,0.0,0.0,0.0,0.0,0.0,0.0,0.0,-2.9627,-2.9295,-2.8949,-2.8638,-2.8949,-2.8949,-2.8638,-2.964,-3.0677,-3.175,-3.175,-3.175,-3.1787,-3.1714,-3.1677,-3.1677,-3.1677,-3.1414,-3.1044,-3.1044,-3.0861,-3.051,-3.0651,-3.0814,-3.0975,-3.0975,-3.1095,-3.119,-3.119,-3.119,-3.119,-3.119,-3.119,-3.119,-3.119,-3.119,-3.119,-3.119,-3.119,-3.123,-3.1274,-3.1406,-3.15,-3.1596,-3.1709,-3.18,-3.18,-3.18,-3.18,-3.18,-3.1196,-3.0437,-2.9679,-2.9129,-2.8592,-2.7836,-2.7954,-2.8237,-2.8525,-2.8576,-2.8694,-2.8929,-2.9112,-2.9262,-2.9386,-2.9386,-2.9407,-2.9407,-2.9407,-2.9407,-2.9407,-2.9407,-2.9407,-2.9407,-2.9407,-2.9407,-2.9407,-2.9407,-2.9407,-2.9407,-2.9407,-2.9407,-1.0111,-1.2016,-1.4103,0.0,0.0,0.0,0.0,0.0,0.0,0.0,0.0,0.0,0.0,0.0,0.0,0.0,0.0,0.0,0.0,0.0,0.0,0.0,0.0,0.0,0.0,0.0,0.0,0.0,0.0,0.0,0.0,-2.874,-2.859,-2.851,-2.8628,-2.8628,-2.8434,-2.8853,-2.9273,-2.9673,-3.0323,-3.0531,-3.0335,-3.0268,-3.0412,-3.0657,-3.0881,-3.0861,-3.074,-3.074,-3.0634,-3.0526,-3.0733,-3.0952,-3.1112,-3.1112,-3.1151,-3.119,-3.119,-3.119,-3.119,-3.119,-3.119,-3.119,-3.119,-3.119,-3.119,-3.119,-3.119,-3.119,-3.1213,-3.1385,-3.1517,-3.1538,-3.1688,-3.18,-3.18,-3.18,-3.1662,-3.1196,-3.0489,-2.9765,-2.9166,-2.8539,-2.8017,-2.7736,-2.7926,-2.8156,-2.8264,-2.8456,-2.8694,-2.8952,-2.9112,-2.9243,-2.9386,-2.9407,-2.9407,-2.9407,-2.9407,-2.9407,-2.9407,-2.9407,-2.9407,-2.9407,-2.9407,-2.9407,-2.9407,-2.9407,-2.9407,-2.9407,-2.9407,-2.9407,-0.9915,-1.205,-1.4453,0.0,0.0,0.0,0.0,0.0,0.0,0.0,0.0,0.0,0.0,0.0,0.0,0.0,0.0,0.0,0.0,0.0,0.0,0.0,0.0,0.0,0.0,0.0,0.0,0.0,0.0,0.0,0.0,-2.7958,-2.7901,-2.7938,-2.7938,-2.7901,-2.7864,-2.806,-2.8006,-2.7753,-2.8716,-2.9161,-2.9141,-2.9109,-2.9226,-2.9513,-2.9736,-2.9847,-2.9864,-3.0079,-3.0352,-3.0651,-3.0855,-3.1032,-3.119,-3.119,-3.119,-3.119,-3.119,-3.119,-3.119,-3.119,-3.119,-3.119,-3.119,-3.119,-3.119,-3.119,-3.119,-3.119,-3.119,-3.1363,-3.1517,-3.1538,-3.1688,-3.18,-3.18,-3.161,-3.13,-3.0782,-2.9851,-2.9056,-2.8728,-2.8058,-2.76,-2.7701,-2.7926,-2.8129,-2.8237,-2.8533,-2.8815,-2.904,-2.9175,-2.9283,-2.9386,-2.9407,-2.9407,-2.9407,-2.9407,-2.9407,-2.9407,-2.9407,-2.9407,-2.9407,-2.9407,-2.9407,-2.9407,-2.9407,-2.9407,-2.9407,-2.9407,-2.9407,-1.1516,-1.3233,0.0,0.0,0.0,0.0,0.0,0.0,0.0,0.0,0.0,0.0,0.0,0.0,0.0,0.0,0.0,0.0,0.0,0.0,0.0,0.0,0.0,0.0,0.0,0.0,0.0,0.0,0.0,0.0,0.0,-2.6674,-2.6485,-2.6485,-2.6485,-2.6485,-2.6485,-2.7081,-2.7028,-2.6312,-2.6972,-2.7682,-2.8395,-2.8412,-2.8412,-2.8412,-2.8412,-2.8412,-2.8439,-2.9118,-2.9969,-3.0895,-3.0958,-3.1055,-3.119,-3.119,-3.119,-3.119,-3.119,-3.119,-3.119,-3.119,-3.119,-3.119,-3.119,-3.119,-3.119,-3.119,-3.119,-3.1173,-3.119,-3.1329,-3.1483,-3.1579,-3.1709,-3.18,-3.1783,-3.1214,-3.0696,-3.0679,-2.9437,-2.8403,-2.8385,-2.7782,-2.739,-2.7672,-2.7926,-2.8228,-2.8551,-2.8834,-2.9062,-2.9178,-2.9262,-2.9323,-2.9386,-2.9407,-2.9407,-2.9407,-2.9407,-2.9407,-2.9407,-2.9407,-2.9407,-2.9407,-2.9407,-2.9407,-2.9407,-2.9407,-2.9407,-2.9407,-2.9407,-2.9407,-1.1008,0.0,0.0,0.0,0.0,0.0,0.0,0.0,0.0,0.0,0.0,0.0,0.0,0.0,0.0,0.0,0.0,0.0,0.0,0.0,0.0,0.0,0.0,0.0,0.0,0.0,0.0,0.0,0.0,0.0,0.0,-2.6657,-2.6606,-2.664,-2.664,-2.6623,-2.6589,-2.6756,-2.6721,-2.6434,-2.6528,-2.669,-2.6882,-2.7379,-2.7649,-2.7665,-2.8158,-2.8412,-2.8428,-2.8666,-2.9015,-2.937,-2.9446,-2.9842,-3.0429,-3.0429,-3.0751,-3.119,-3.119,-3.119,-3.119,-3.119,-3.119,-3.119,-3.119,-3.0835,-3.0531,-3.1055,-3.0446,-2.9753,-3.0294,-3.0173,-3.0167,-3.1281,-3.1614,-3.1554,-3.1127,-3.0834,-3.0368,-2.9282,-2.8713,-2.823,-2.7713,-2.7591,-2.76,-2.7701,-2.8138,-2.8576,-2.8839,-2.8952,-2.9062,-2.9178,-2.9218,-2.9283,-2.9386,-2.9407,-2.9407,-2.9407,-2.9407,-2.9407,-2.9407,-2.9407,-2.9407,-2.9407,-2.9407,-2.9407,-2.9407,-2.9407,-2.9407,-2.9407,-2.9407,-2.9407,0.0,0.0,0.0,0.0,0.0,0.0,0.0,0.0,0.0,0.0,0.0,0.0,0.0,0.0,0.0,0.0,0.0,0.0,0.0,0.0,0.0,0.0,0.0,0.0,0.0,0.0,0.0,0.0,0.0,0.0,0.0,-2.664,-2.6657,-2.6691,-2.6691,-2.6674,-2.6623,-2.6606,-2.6589,-2.6554,-2.6382,-2.6277,-2.6239,-2.6687,-2.6849,-2.6882,-2.735,-2.7736,-2.8002,-2.8152,-2.8394,-2.8753,-2.8848,-2.9208,-2.9651,-2.9651,-2.9939,-3.0311,-3.0311,-3.0514,-3.0768,-3.0768,-3.0768,-3.0768,-3.0768,-3.0243,-2.9753,-3.0192,-2.9668,-2.9093,-2.955,-2.9406,-2.9379,-3.0353,-3.0668,-3.0676,-3.0317,-2.9989,-2.9506,-2.8575,-2.8161,-2.7848,-2.7521,-2.76,-2.7771,-2.8027,-2.8474,-2.8834,-2.8994,-2.8994,-2.904,-2.9112,-2.9218,-2.9304,-2.9386,-2.9407,-2.9407,-2.9407,-2.9407,-2.9407,-2.9407,-2.9407,-2.9407,-2.9407,-2.9407,-2.9407,-2.9407,-2.9407,-2.9407,-2.9407,-2.9407,-2.9407,0.0,0.0,0.0,0.0,0.0,0.0,0.0,0.0,0.0,0.0,0.0,0.0,0.0,0.0,0.0,0.0,0.0,0.0,0.0,0.0,0.0,0.0,0.0,0.0,0.0,0.0,0.0,0.0,0.0,0.0,0.0,-2.6691,-2.6691,-2.6691,-2.6691,-2.6691,-2.6691,-2.6623,-2.6606,-2.6606,-2.6417,-2.633,-2.633,-2.6239,-2.6203,-2.6203,-2.6277,-2.6714,-2.7348,-2.7528,-2.8003,-2.8609,-2.8735,-2.8822,-2.8873,-2.8873,-2.8924,-2.9011,-2.9011,-2.9431,-3.0006,-3.0006,-3.0006,-3.0006,-3.0006,-2.9482,-2.889,-2.8958,-2.8909,-2.8825,-2.8856,-2.8895,-2.8934,-2.8988,-2.9265,-2.9489,-2.942,-2.8868,-2.8385,-2.8316,-2.7747,-2.7407,-2.7642,-2.773,-2.7943,-2.8551,-2.8839,-2.8994,-2.8994,-2.8994,-2.9017,-2.9017,-2.924,-2.9386,-2.9407,-2.9407,-2.9407,-2.9407,-2.9407,-2.9407,-2.9407,-2.9407,-2.9407,-2.9407,-2.9407,-2.9407,-2.9407,-2.9407,-2.9407,-2.9407,-2.9407,-2.9407,0.0,0.0,0.0,0.0,0.0,0.0,0.0,0.0,0.0,0.0,0.0,0.0,0.0,0.0,0.0,0.0,0.0,0.0,0.0,0.0,0.0,0.0,0.0,0.0,0.0,0.0,0.0,0.0,0.0,0.0,-2.6691,-2.6691,-2.6691,-2.6691,-2.6691,-2.6691,-2.6691,-2.6708,-2.6674,0.0,-2.6589,-2.6537,-2.6537,-2.631,-2.6222,-2.6277,-2.6399,-2.6534,-2.6719,-2.6807,-2.6943,-2.7077,-2.7164,-2.7554,-2.8078,-2.8078,-2.8467,-2.9011,-2.9011,-2.9093,-2.9228,-2.9228,-2.9228,-2.9228,-2.9228,-2.8687,-2.8197,-2.8805,-2.8112,-2.7317,-2.7909,-2.7759,-2.7469,-2.7452,-2.8459,-2.9283,-2.8731,-2.8506,-2.823,-2.7644,-2.7402,-2.7407,-2.7642,-2.7869,-2.8228,-2.8815,-2.8952,-2.8994,-2.8994,-2.8994,-2.904,-2.9152,-2.9218,-2.9283,-2.9386,-2.9407,-2.9407,-2.9407,-2.9407,-2.9407,-2.9407,-2.9407,-2.9407,-2.9407,-2.9407,-2.9407,-2.9407,-2.9407,-2.9407,-2.9407,-2.9407,-2.9407,0.0,0.0,0.0,0.0,0.0,0.0,0.0,0.0,0.0,0.0,0.0,0.0,0.0,0.0,0.0,0.0,0.0,0.0,0.0,0.0,0.0,0.0,0.0,0.0,0.0,0.0,0.0,0.0,0.0,-2.5642,-2.5642,-2.5642,-2.5642,-2.5642,-2.5642,-2.5642,-2.5642,-2.5998,-2.6167,-2.6184,-2.6455,-2.6572,-2.6554,-2.6415,-2.6364,-2.6399,-2.6503,-2.6554,-2.6554,-2.6623,-2.6657,-2.6657,-2.6708,-2.6928,-2.7283,-2.7283,-2.7537,-2.7892,-2.7892,-2.8129,-2.8433,-2.8433,-2.8433,-2.8433,-2.8433,-2.7892,-2.7368,-2.7774,-2.7317,-2.6793,-2.7233,-2.7198,-2.7007,-2.7023,-2.7738,-2.8302,-2.7954,-2.7868,-2.7747,-2.7368,-2.739,-2.7569,-2.7858,-2.8255,-2.8651,-2.8952,-2.8994,-2.8994,-2.8994,-2.8994,-2.9085,-2.9283,-2.9304,-2.9326,-2.9386,-2.9407,-2.9407,-2.9407,-2.9407,-2.9407,-2.9407,-2.9407,-2.9407,-2.9407,-2.9407,-2.9407,-2.9407,-2.9407,-2.9407,-2.9407,-2.9407,-2.9407,0.0,0.0,0.0,0.0,0.0,0.0,0.0,0.0,0.0,0.0,0.0,0.0,0.0,0.0,0.0,0.0,0.0,0.0,0.0,0.0,0.0,0.0,0.0,0.0,0.0,0.0,0.0,0.0,0.0,-2.4506,-2.4506,-2.4506,-2.4506,-2.4506,-2.4506,-2.4506,-2.4506,-2.5101,-2.5423,-2.5423,-2.5949,-2.6269,-2.6319,-2.6319,-2.6402,-2.652,-2.6572,-2.6606,-2.664,-2.6674,-2.6691,-2.6691,-2.6691,-2.6691,-2.6691,-2.6691,-2.6691,-2.6691,-2.6691,-2.7097,-2.7621,-2.7621,-2.7621,-2.7621,-2.7621,-2.7182,-2.6691,-2.6691,-2.6691,-2.6742,-2.6876,-2.6959,-2.7007,-2.707,-2.7201,-2.7299,-2.7299,-2.7299,-2.7299,-2.7299,-2.7526,-2.78,-2.802,-2.8583,-2.8994,-2.8994,-2.8994,-2.8994,-2.8994,-2.8994,-2.9108,-2.9365,-2.9407,-2.9407,-2.9407,-2.9407,-2.9407,-2.9407,-2.9407,-2.9407,-2.9407,-2.9407,-2.9407,-2.9407,-2.9407,-2.9407,-2.9407,-2.9407,-2.9407,-2.9407,-2.9407,-2.9407,0.0,0.0,0.0,0.0,0.0,0.0,0.0,0.0,0.0,0.0,0.0,0.0,0.0,0.0,0.0,0.0,0.0,0.0,0.0,0.0,0.0,0.0,0.0,0.0,0.0,0.0,0.0,0.0,-2.4506,-2.4506,-2.4506,-2.4506,-2.4506,-2.4506,-2.4506,-2.4506,-2.4506,-2.4608,-2.4659,-2.4659,-2.4746,-2.5103,-2.5728,-2.5728,-2.6034,-2.6589,-2.664,-2.6708,-2.6708,-2.6691,-2.6691,-2.6691,-2.6691,-2.6691,-2.6691,-2.6691,-2.6691,-2.6691,-2.6691,-2.6759,-2.6843,-2.6843,-2.6843,-2.6843,-2.6843,-2.6776,-2.6691,-2.6691,-2.6691,-2.6742,-2.6876,-2.6959,-2.7007,-2.707,-2.7201,-2.7299,-2.7299,-2.7299,-2.7299,-2.7299,-2.7569,-2.7811,-2.7823,-2.8482,-2.8994,-2.8994,-2.8994,-2.8994,-2.8994,-2.8994,-2.9108,-2.9365,-2.9407,-2.9407,-2.9407,-2.9407,-2.9407,-2.9407,-2.9407,-2.9407,-2.9407,-2.9407,-2.9407,-2.9407,-2.9407,-2.9407,-2.9407,-2.9407,-2.9407,-2.9407,-2.9407,-2.9407,0.0,0.0,0.0,0.0,0.0,0.0,0.0,0.0,0.0,0.0,0.0,0.0,0.0,0.0,0.0,0.0,0.0,0.0,0.0,0.0,0.0,0.0,0.0,0.0,0.0,0.0,0.0,0.0,-2.3274,-2.3274,-2.3274,-2.3274,-2.3274,-2.3274,-2.3274,-2.3274,-2.3274,-2.3663,-2.4069,-2.4506,-2.4506,-2.4661,-2.4983,-2.4983,-2.5593,-2.6657,-2.6708,-2.6691,-2.6691,-2.6691,-2.6691,-2.6691,-2.6691,-2.6691,-2.6691,-2.6691,-2.6691,-2.6691,-2.6691,-2.6691,-2.6691,-2.6691,-2.6691,-2.6691,-2.6691,-2.6691,-2.6691,-2.6691,-2.6742,-2.6825,-2.6942,-2.7007,-2.7087,-2.7201,-2.725,-2.7299,-2.7299,-2.7299,-2.7345,-2.7539,-2.7713,-2.7936,-2.8386,-2.8767,-2.8994,-2.8994,-2.8994,-2.8994,-2.8994,-2.8994,-2.9108,-2.9365,-2.9407,-2.9407,-2.9407,-2.9407,-2.9407,-2.9407,-2.9407,-2.9407,-2.9407,-2.9407,-2.9407,-2.9407,-2.9407,-2.9407,-2.9407,-2.9407,-2.9407,-2.9407,-2.9407,-2.9407,0.0,0.0,0.0,0.0,0.0,0.0,0.0,0.0,0.0,0.0,0.0,0.0,0.0,0.0,0.0,0.0,0.0,0.0,0.0,0.0,0.0,0.0,0.0,0.0,0.0,0.0,0.0,0.0,-2.231,-2.231,-2.231,-2.231,-2.231,-2.231,-2.231,-2.231,-2.231,-2.2852,-2.3393,-2.3934,-2.3934,-2.4036,-2.4205,-2.4205,-2.4915,-2.615,-2.6336,-2.642,-2.6437,-2.6623,-2.6691,-2.6691,-2.6691,-2.6691,-2.6691,-2.6691,-2.6691,-2.6691,-2.6691,-2.6691,-2.6691,-2.6691,-2.6691,-2.6691,-2.6691,-2.6691,-2.6691,-2.6691,-2.6775,-2.6876,-2.6975,-2.7055,-2.7152,-2.725,-2.7299,-2.7299,-2.7299,-2.7299,-2.7359,-2.7612,-2.7683,-2.7858,-2.8474,-2.881,-2.8994,-2.8994,-2.8994,-2.8994,-2.8994,-2.9062,-2.9152,-2.9283,-2.9302,-2.9302,-2.9302,-2.9365,-2.9407,-2.9407,-2.9407,-2.9407,-2.9407,-2.9407,-2.9407,-2.9407,-2.9407,-2.9407,-2.9407,-2.9407,-2.9407,-2.9407,-2.9407,-2.9407,0.0,0.0,0.0,0.0,0.0,0.0,0.0,0.0,0.0,0.0,0.0,0.0,0.0,0.0,0.0,0.0,0.0,0.0,0.0,0.0,0.0,0.0,0.0,0.0,0.0,0.0,0.0,0.0,-2.231,-2.231,-2.231,-2.231,-2.231,-2.231,-2.231,-2.231,-2.231,-2.2344,-2.2395,-2.2412,-2.2412,-2.2784,-2.346,-2.346,-2.3866,-2.4659,-2.5355,-2.5659,-2.571,-2.6404,-2.6691,-2.6691,-2.6691,-2.6691,-2.6691,-2.6691,-2.6691,-2.6691,-2.6691,-2.6691,-2.6691,-2.6691,-2.6691,-2.6691,-2.6691,-2.6691,-2.6691,-2.6691,-2.6691,-2.6775,-2.704,-2.7105,-2.7137,-2.7267,-2.7299,-2.7299,-2.7299,-2.7299,-2.7299,-2.7313,-2.7313,-2.7345,-2.7376,-2.8291,-2.8994,-2.8994,-2.8994,-2.8994,-2.8994,-2.9218,-2.9302,-2.904,-2.9017,-2.9017,-2.9017,-2.924,-2.9407,-2.9407,-2.9407,-2.9407,-2.9407,-2.9407,-2.9407,-2.9407,-2.9407,-2.9407,-2.9407,-2.9407,-2.9407,-2.9407,-2.9407,-2.9407,0.0,0.0,0.0,0.0,0.0,0.0,0.0,0.0,0.0,0.0,0.0,0.0,0.0,0.0,0.0,0.0,0.0,0.0,0.0,0.0,0.0,0.0,0.0,0.0,0.0,0.0,0.0,0.0,0.0,-2.231,-2.231,-2.231,-2.231,-2.231,-2.231,-2.231,-2.231,-2.231,-2.231,-2.231,-2.231,-2.2446,-2.2699,-2.2699,-2.2835,-2.3122,-2.3866,-2.4458,-2.4898,-2.5169,-2.5558,-2.5998,-2.5998,-2.6285,-2.6691,-2.6691,-2.6691,-2.6691,-2.6691,-2.6691,-2.6691,-2.6691,-2.6691,-2.6691,-2.6691,-2.6691,-2.6691,-2.6691,-2.6691,-2.6725,-2.6808,-2.7023,-2.725,-2.7299,-2.7299,-2.7299,-2.7299,-2.7299,-2.7359,-2.7582,-2.7434,-2.7544,-2.8264,-2.8718,-2.8994,-2.8994,-2.8994,-2.8994,-2.8994,-2.9085,-2.9108,-2.9017,-2.8994,-2.9062,-2.924,-2.9326,-2.9407,-2.9407,-2.9407,-2.9407,-2.9407,-2.9407,-2.9407,-2.9407,-2.9407,-2.9407,-2.9407,-2.9407,-2.9407,-2.9407,-2.9407,-2.9407,0.0,0.0,0.0,0.0,0.0,0.0,0.0,0.0,0.0,0.0,0.0,0.0,0.0,0.0,0.0,0.0,0.0,0.0,0.0,0.0,0.0,0.0,0.0,0.0,0.0,0.0,0.0,0.0,0.0,0.0,-2.231,-2.231,-2.231,-2.231,-2.231,-2.231,-2.231,-2.231,-2.231,-2.231,-2.231,-2.231,-2.231,-2.231,-2.231,-2.2344,-2.2818,-2.3444,-2.4137,-2.4404,-2.478,-2.5236,-2.5236,-2.5524,-2.5947,-2.5947,-2.6116,-2.6336,-2.6336,-2.6488,-2.6691,-2.6691,-2.6691,-2.6691,-2.6691,-2.6691,-2.6691,-2.6691,-2.6691,-2.6691,-2.6691,-2.699,-2.7299,-2.7299,-2.7299,-2.7299,-2.7299,-2.7299,-2.739,-2.7725,-2.7539,-2.7677,-2.8791,-2.8994,-2.8994,-2.8994,-2.8994,-2.8994,-2.8994,-2.8994,-2.8994,-2.8994,-2.8994,-2.9108,-2.9386,-2.9407,-2.9407,-2.9407,-2.9407,-2.9407,-2.9407,-2.9407,-2.9407,-2.9407,-2.9407,-2.9407,-2.9407,-2.9407,-2.9407,-2.9407,-2.9407,-2.9429,0.0,0.0,0.0,0.0,0.0,0.0,0.0,0.0,0.0,0.0,0.0,0.0,0.0,0.0,0.0,0.0,0.0,0.0,0.0,0.0,0.0,0.0,0.0,0.0,0.0,0.0,0.0,0.0,-2.231,-2.231,-2.231,-2.231,-2.231,-2.231,-2.231,-2.231,-2.231,-2.231,-2.231,-2.231,-2.231,-2.231,-2.231,-2.231,-2.231,-2.231,-2.231,-2.2716,-2.341,-2.415,-2.4455,-2.4472,-2.4472,-2.4489,-2.4506,-2.4506,-2.4949,-2.5575,-2.5575,-2.6031,-2.6623,-2.6623,-2.6657,-2.6691,-2.6691,-2.6691,-2.6691,-2.6691,-2.6691,-2.6691,-2.6725,-2.699,-2.7299,-2.7299,-2.7299,-2.7299,-2.7299,-2.7299,-2.739,-2.7725,-2.7539,-2.7659,-2.881,-2.8994,-2.8994,-2.8994,-2.8994,-2.8994,-2.8994,-2.8994,-2.8994,-2.8994,-2.8994,-2.9108,-2.9386,-2.9407,-2.9407,-2.9407,-2.9407,-2.9407,-2.9407,-2.9407,-2.9407,-2.9407,-2.937,-2.937,-2.937,-2.9388,-2.9407,-2.9407,-2.9407,-2.9491,-0.9475,0.0,0.0,0.0,0.0,0.0,0.0,0.0,0.0,0.0,0.0,0.0,0.0,0.0,0.0,0.0,0.0,0.0,0.0,0.0,0.0,0.0,0.0,0.0,0.0,0.0,0.0,0.0,-2.231,-2.231,-2.231,-2.231,-2.231,-2.231,-2.231,-2.231,-2.231,-2.231,-2.231,-2.231,-2.231,-2.231,-2.231,-2.231,-2.231,-2.231,-2.231,-2.2429,-2.2632,-2.2835,-2.3224,-2.3697,-2.3697,-2.4019,-2.4506,-2.4506,-2.4642,-2.478,-2.478,-2.4932,-2.5133,-2.5133,-2.5812,-2.6691,-2.6691,-2.6691,-2.6691,-2.6691,-2.6691,-2.6775,-2.7072,-2.7218,-2.7299,-2.7299,-2.7299,-2.7299,-2.7299,-2.7299,-2.7434,-2.7908,-2.7936,-2.812,-2.8881,-2.8994,-2.8994,-2.8994,-2.8994,-2.8994,-2.8994,-2.8994,-2.8994,-2.8994,-2.8994,-2.9108,-2.9386,-2.9407,-2.9407,-2.9407,-2.9407,-2.9407,-2.9407,-2.9407,-2.9407,-2.9407,-2.8793,-2.8477,-2.8477,-2.9091,-2.9407,-2.9407,-2.9492,-2.968,0.0,0.0,0.0,0.0,0.0,0.0,0.0,0.0,0.0,0.0,0.0,0.0,0.0,0.0,0.0,0.0,0.0,0.0,0.0,0.0,0.0,0.0,0.0,0.0,0.0,-2.231,-2.231,-2.231,-2.231,-2.231,-2.231,-2.231,-2.231,-2.231,-2.231,-2.231,-2.231,-2.231,-2.231,-2.231,-2.231,-2.231,-2.231,-2.231,-2.231,-2.231,-2.231,-2.231,-2.231,-2.231,-2.2564,-2.2936,-2.2936,-2.319,-2.3579,-2.3579,-2.3765,-2.4036,-2.4036,-2.4222,-2.4506,-2.4506,-2.4932,-2.5558,-2.5964,-2.593,-2.5778,-2.5778,-2.5875,-2.6187,-2.7078,-2.6816,-2.6488,-2.7144,-2.7299,-2.7299,-2.7299,-2.7659,-2.8045,-2.8075,-2.829,-2.8583,-2.8929,-2.8994,-2.8994,-2.8994,-2.8994,-2.8994,-2.8994,-2.8994,-2.8994,-2.8994,-2.8994,-2.9062,-2.9218,-2.9283,-2.9326,-2.9407,-2.9407,-2.9407,-2.9407,-2.9054,-2.8812,-2.868,-2.7956,-2.7696,-2.7919,-2.8236,-2.8477,-2.8719,-2.9401,-2.9834,0.0,0.0,0.0,0.0,0.0,0.0,-1.1078,-1.1235,0.0,0.0,0.0,0.0,0.0,0.0,0.0,0.0,0.0,0.0,0.0,0.0,0.0,0.0,0.0,0.0,-2.2029,-2.2029,-2.209,-2.2175,-2.226,-2.231,-2.231,-2.231,-2.231,-2.231,-2.231,-2.231,-2.231,-2.231,-2.231,-2.231,-2.231,-2.231,-2.231,-2.231,-2.231,-2.231,-2.231,-2.231,-2.231,-2.231,-2.231,-2.231,-2.231,-2.231,-2.231,-2.231,-2.2716,-2.3274,-2.3274,-2.3697,-2.4269,-2.4269,-2.4019,-2.3883,-2.4661,-2.4661,-2.4404,-2.4303,-2.4496,-2.5057,-2.6437,-2.5764,-2.5178,-2.6885,-2.7299,-2.7313,-2.7452,-2.8291,-2.8839,-2.829,-2.8633,-2.8994,-2.8994,-2.8994,-2.8994,-2.8994,-2.8994,-2.8994,-2.8994,-2.8994,-2.8994,-2.8994,-2.8994,-2.8994,-2.8994,-2.8968,-2.9005,-2.9107,-2.9128,-2.9128,-2.9128,-2.8384,-2.7844,-2.7621,-2.7064,-2.699,-2.7343,-2.7046,-2.7138,-2.7641,-2.902,-2.968,0.0,0.0,-1.2358,0.0,0.0,0.0,0.0,-1.0493,0.0,0.0,0.0,0.0,0.0,0.0,0.0,0.0,0.0,0.0,0.0,0.0,0.0,0.0,0.0,0.0,-2.0441,-2.0441,-2.0737,-2.1363,-2.1972,-2.231,-2.231,-2.231,-2.231,-2.231,-2.231,-2.231,-2.231,-2.231,-2.231,-2.231,-2.231,-2.231,-2.231,-2.231,-2.231,-2.231,-2.231,-2.231,-2.231,-2.231,-2.231,-2.231,-2.231,-2.231,-2.231,-2.231,-2.2395,-2.2513,-2.2513,-2.2615,-2.2733,-2.2733,-2.3071,-2.3393,-2.3004,-2.3376,-2.3778,-2.3079,-2.3024,-2.3229,-2.3522,-2.3384,-2.385,-2.6626,-2.7299,-2.7557,-2.8474,-2.8858,-2.897,-2.8839,-2.8929,-2.8994,-2.8994,-2.8994,-2.8994,-2.8994,-2.8994,-2.8994,-2.8994,-2.8994,-2.8994,-2.8994,-2.8994,-2.8994,-2.8994,-2.7999,-2.7342,-2.7399,-2.7399,-2.7399,-2.7399,-2.7232,-2.712,-2.7065,-2.6525,-2.5875,-2.5132,-2.6321,-2.6953,-2.7083,-2.7792,-2.8344,0.0,0.0,-1.2968,-1.2389,0.0,0.0,0.0,0.0,-1.0997,0.0,0.0,0.0,0.0,0.0,0.0,0.0,0.0,0.0,0.0,0.0,0.0,0.0,0.0,0.0,-1.9452,-1.9765,-2.0154,-2.0568,-2.0957,-2.1133,-2.1133,-2.1532,-2.1752,-2.1752,-2.2124,-2.231,-2.231,-2.231,-2.231,-2.231,-2.231,-2.231,-2.231,-2.231,-2.231,-2.231,-2.231,-2.231,-2.231,-2.231,-2.231,-2.231,-2.231,-2.231,-2.231,-2.231,-2.231,-2.231,-2.231,-2.231,-2.231,-2.231,-2.2564,-2.2784,-2.2412,-2.2677,-2.3022,-2.2651,-2.2605,-2.2659,-2.2685,-2.2712,-2.3091,-2.4643,-2.5392,-2.5893,-2.6487,-2.6612,-2.6612,-2.6612,-2.6612,-2.7126,-2.8718,-2.8994,-2.8994,-2.8994,-2.8994,-2.8994,-2.8994,-2.8994,-2.8994,-2.8994,-2.8994,-2.9062,-2.9197,-2.7043,-2.5653,-2.5597,-2.6674,-2.7176,-2.6916,-2.6618,-2.6209,-2.5653,-2.543,-2.5039,-2.45,-2.5317,-2.5708,-2.5708,-2.5987,-2.6222,0.0,0.0,0.0,0.0,0.0,-1.3451,0.0,0.0,0.0,-1.2667,0.0,0.0,0.0,0.0,0.0,0.0,0.0,0.0,0.0,0.0,0.0,0.0,0.0,0.0,0.0,-1.9012,-1.9478,-1.9765,-1.9647,-1.9697,-1.9985,-2.0619,-2.0957,-2.0957,-2.1701,-2.209,-2.209,-2.2243,-2.231,-2.231,-2.231,-2.231,-2.231,-2.231,-2.231,-2.231,-2.231,-2.231,-2.231,-2.231,-2.231,-2.231,-2.231,-2.231,-2.231,-2.231,-2.231,-2.231,-2.231,-2.231,-2.231,-2.231,-2.231,-2.231,-2.231,-2.2338,-2.2432,-2.2542,-2.2579,-2.2623,-2.2685,-2.2712,-2.2764,-2.2935,-2.362,-2.419,-2.419,-2.419,-2.419,-2.419,-2.419,-2.5034,-2.764,-2.8081,-2.8081,-2.8081,-2.8081,-2.8081,-2.8081,-2.8081,-2.8081,-2.8081,-2.8081,-2.8169,-2.8439,-2.6024,-2.4446,-2.4358,-2.6042,-2.6859,-2.6414,-2.5931,-2.5282,-2.443,-2.4465,-2.45,-2.45,-2.45,-2.45,-2.45,-2.45,-2.45,0.0,0.0,0.0,0.0,-1.5437,0.0,0.0,0.0,-1.2718,-1.1601,0.0,0.0,0.0,0.0,0.0,0.0,0.0,0.0,0.0,0.0,0.0,0.0,0.0,0.0,0.0,-1.7037,-1.7608,-1.8927,-1.842,-1.8616,-1.9934,-2.0086,-2.0137,-2.0137,-2.0906,-2.1312,-2.1312,-2.1972,-2.231,-2.231,-2.231,-2.231,-2.231,-2.231,-2.231,-2.231,-2.231,-2.231,-2.231,-2.231,-2.231,-2.231,-2.231,-2.231,-2.231,-2.231,-2.231,-2.231,-2.231,-2.231,-2.231,-2.231,-2.231,-2.231,-2.231,-2.2338,-2.2422,-2.2487,-2.2552,-2.2623,-2.2685,-2.2712,-2.291,-2.3831,-2.4132,-2.419,-2.419,-2.419,-2.419,-2.419,-2.419,-2.4318,-2.4685,-2.474,-2.474,-2.474,-2.474,-2.474,-2.474,-2.474,-2.474,-2.474,-2.474,-2.4837,-2.5039,-2.4704,-2.45,-2.4482,-2.4598,-2.4672,-2.4617,-2.4524,-2.4487,-2.4482,-2.45,-2.45,-2.45,-2.45,-2.45,-2.45,-2.45,-2.45,0.0,0.0,0.0,0.0,0.0,0.0,-1.293,0.0,-1.2246,0.0,0.0,0.0,0.0,0.0,0.0,0.0,0.0,0.0,0.0,0.0,0.0,0.0,0.0,0.0,0.0,0.0,0.0,0.0,-1.6306,-1.6542,-1.8014,-1.8504,-1.8927,-1.935,-2.0111,-2.072,-2.1204,-2.1498,-2.187,-2.231,-2.231,-2.231,-2.231,-2.231,-2.231,-2.231,-2.231,-2.231,-2.231,-2.231,-2.231,-2.231,-2.231,-2.231,-2.231,-2.231,-2.231,-2.231,-2.231,-2.231,-2.231,-2.231,-2.231,-2.231,-2.2338,-2.2394,-2.2405,-2.2542,-2.2579,-2.2623,-2.2685,-2.2712,-2.2935,-2.3955,-2.419,-2.4034,-2.3463,-2.333,-2.3508,-2.4092,-2.419,-2.419,-2.419,-2.419,-2.419,-2.419,-2.419,-2.419,-2.419,-2.419,-2.419,-2.419,-2.419,-2.4228,-2.4321,-2.4321,-2.4321,-2.4321,-2.4284,-2.4228,-2.4228,-2.4228,-2.4266,-2.4321,-2.4321,-2.4376,-2.45,-2.45,-2.45,-2.45,-2.45,-2.45,-1.7253,0.0,0.0,0.0,0.0,0.0,0.0,0.0,0.0,0.0,0.0,0.0,0.0,0.0,0.0,0.0,0.0,0.0,0.0,0.0,0.0,0.0,0.0,0.0,0.0,0.0,0.0,0.0,0.0,-1.4546,-1.6018,-1.6982,-1.7743,-1.8268,-1.9215,-1.9993,-2.0577,-2.0754,-2.1143,-2.1657,-2.1904,-2.2006,-2.2006,-2.2226,-2.231,-2.231,-2.231,-2.231,-2.231,-2.231,-2.231,-2.231,-2.231,-2.231,-2.231,-2.231,-2.231,-2.231,-2.231,-2.231,-2.231,-2.231,-2.231,-2.231,-2.2366,-2.2394,-2.2405,-2.2525,-2.2579,-2.2623,-2.2685,-2.2712,-2.2876,-2.362,-2.3789,-2.3598,-2.285,-2.2712,-2.2985,-2.4014,-2.419,-2.419,-2.419,-2.419,-2.419,-2.419,-2.419,-2.419,-2.419,-2.419,-2.419,-2.419,-2.419,-2.419,-2.419,-2.419,-2.419,-2.419,-2.419,-2.419,-2.419,-2.419,-2.419,-2.419,-2.419,-2.4284,-2.4447,-2.4465,-2.4482,-2.45,-2.45,-2.45,0.0,0.0,0.0,-1.5653,0.0,0.0,0.0,0.0,-1.3142,0.0,0.0,0.0,0.0,0.0,0.0,0.0,0.0,0.0,0.0,0.0,0.0,0.0,0.0,0.0,0.0,0.0,0.0,0.0,0.0,0.0,-1.4477,-1.595,-1.6749,-1.6766,-1.8166,-1.8944,-1.8961,-1.9688,-2.0052,-2.0086,-2.0856,-2.1254,-2.1271,-2.1972,-2.231,-2.231,-2.231,-2.231,-2.231,-2.231,-2.231,-2.231,-2.231,-2.231,-2.231,-2.231,-2.231,-2.231,-2.231,-2.231,-2.231,-2.231,-2.231,-2.231,-2.231,-2.2366,-2.2405,-2.2415,-2.2497,-2.2623,-2.2685,-2.2712,-2.2712,-2.2738,-2.2764,-2.2738,-2.2712,-2.2712,-2.2985,-2.4014,-2.419,-2.419,-2.419,-2.419,-2.419,-2.419,-2.419,-2.419,-2.419,-2.419,-2.419,-2.419,-2.419,-2.419,-2.419,-2.419,-2.419,-2.419,-2.419,-2.419,-2.419,-2.419,-2.419,-2.419,-2.419,-2.4247,-2.4321,-2.4358,-2.443,-2.45,-2.45,-2.45,0.0,0.0,-1.7815,-1.608,0.0,0.0,0.0,0.0,0.0,0.0,0.0,0.0,0.0,0.0,0.0,0.0,0.0,0.0,0.0,0.0,0.0,0.0,0.0,0.0,0.0,0.0,0.0,0.0,-1.1637,0.0,0.0,-1.5155,-1.6208,-1.6682,-1.7659,-1.8403,-1.8894,-1.9147,-1.9536,-2.0002,-2.0272,-2.0686,-2.1221,-2.1448,-2.1837,-2.231,-2.231,-2.231,-2.231,-2.231,-2.231,-2.231,-2.231,-2.231,-2.231,-2.231,-2.231,-2.231,-2.231,-2.231,-2.231,-2.231,-2.231,-2.231,-2.2349,-2.2394,-2.2405,-2.2497,-2.2525,-2.2569,-2.2659,-2.2712,-2.2712,-2.2712,-2.2712,-2.2799,-2.3098,-2.3427,-2.3685,-2.3671,-2.3976,-2.419,-2.419,-2.419,-2.419,-2.419,-2.419,-2.419,-2.419,-2.419,-2.419,-2.419,-2.419,-2.419,-2.419,-2.419,-2.419,-2.419,-2.419,-2.419,-2.419,-2.419,-2.419,-2.419,-2.4228,-2.4303,-2.4376,-2.443,-2.4482,-2.45,-2.45,-2.45,-1.8188,-1.8187,0.0,-1.6245,-1.5034,0.0,-1.2584,0.0,0.0,0.0,0.0,0.0,0.0,0.0,0.0,0.0,0.0,0.0,0.0,0.0,0.0,0.0,0.0,0.0,0.0,0.0,-0.981,-1.028,0.0,0.0,0.0,0.0,-1.5815,-1.6292,-1.7287,-1.8031,-1.8504,-1.8504,-1.8758,-1.9208,-1.9478,-1.9891,-2.0408,-2.0653,-2.1194,-2.1904,-2.1904,-2.2073,-2.231,-2.231,-2.231,-2.231,-2.231,-2.231,-2.231,-2.231,-2.231,-2.231,-2.231,-2.231,-2.231,-2.231,-2.231,-2.231,-2.2366,-2.2405,-2.2487,-2.2596,-2.2596,-2.2579,-2.2685,-2.2712,-2.2721,-2.291,-2.291,-2.2935,-2.3122,-2.3513,-2.3771,-2.3477,-2.354,-2.3771,-2.4132,-2.419,-2.419,-2.419,-2.419,-2.419,-2.419,-2.419,-2.419,-2.419,-2.419,-2.419,-2.419,-2.419,-2.419,-2.419,-2.419,-2.419,-2.419,-2.419,-2.419,-2.419,-2.4228,-2.4284,-2.4339,-2.4375,-2.4411,-2.4429,-2.4429,-2.4482]}]]